GFSMW_500_rhum_000.txt.gz
RH
9 9 9 8 8 7 7 8 7 7 6 6 6 6 6 10 13 18 27 26 28 28 24 22 23 26 30 35 39 44 52 52 49 45 36 20 12 12 13 13 10 8 8
2 4 4 5 5 6 6 7 7 7 6 6 5 6 8 11 15 18 22 24 26 26 28 29 24 23 25 29 35 40 47 58 60 57 53 33 20 15 14 14 13 10 10
3 3 2 2 2 3 4 5 5 5 6 6 5 5 8 10 11 9 20 20 21 22 28 32 31 25 23 24 28 34 45 55 65 64 60 47 26 20 18 16 15 12 11
2 1 0 0 0 0 0 1 3 4 4 4 4 4 7 8 8 6 3 7 11 13 26 32 32 28 24 22 26 31 39 51 69 65 66 60 34 22 24 21 20 15 15
6 5 4 3 2 1 1 1 1 1 1 1 1 2 3 3 2 1 0 0 3 15 27 28 27 27 27 28 32 34 35 50 69 67 67 65 56 36 50 28 35 24 23
12 12 12 12 13 16 16 14 15 16 13 11 9 8 5 5 5 6 11 21 28 32 36 40 40 40 40 40 38 34 42 67 71 70 72 76 90 72 72 90 41 28 44
14 16 16 16 15 14 15 17 19 20 21 24 28 31 33 34 36 37 38 41 45 47 49 46 45 44 41 41 45 57 68 74 76 77 77 87 95 94 80 53 33 29 46
25 30 31 27 23 22 24 26 29 32 33 33 34 34 32 30 32 36 42 46 50 56 56 56 57 56 59 61 62 64 68 70 74 79 88 93 97 94 87 76 45 34 36
42 48 48 49 50 50 51 50 46 43 42 40 39 37 37 40 42 45 49 59 62 69 71 68 68 72 75 79 84 90 100 96 99 98 96 95 95 86 76 56 73 61 38
47 46 42 37 34 31 29 26 24 22 20 18 16 16 17 18 25 36 43 42 52 58 68 78 82 88 91 86 80 87 99 95 95 97 97 98 98 94 80 87 62 56 83
44 40 36 32 28 24 21 18 16 15 15 14 15 16 16 17 17 20 28 32 40 52 64 75 82 89 93 96 81 80 88 81 91 94 96 96 99 98 89 54 49 88 62
27 24 22 21 19 16 13 13 14 18 26 34 35 35 33 32 31 31 29 29 35 53 65 89 95 100 98 92 94 97 86 76 76 96 95 95 96 85 59 65 96 98 57
16 14 12 11 13 19 26 37 44 43 43 42 42 42 42 40 38 37 37 36 34 34 34 37 42 51 68 88 100 98 97 96 94 94 93 94 97 90 95 98 98 98 96
26 30 35 43 49 52 50 46 43 42 40 38 38 37 40 43 44 44 44 43 41 44 48 56 60 72 85 96 100 99 90 95 89 87 95 96 88 97 98 100 99 97 98
50 53 53 50 51 52 51 48 45 43 42 39 39 36 33 32 31 34 39 45 50 54 56 56 58 63 76 93 97 89 96 100 87 80 88 96 96 96 96 97 99 97 97
49 51 56 57 54 51 50 50 50 46 44 41 38 35 30 28 28 28 30 34 39 44 49 58 63 69 75 79 100 100 99 96 91 83 84 94 97 95 96 98 97 98 97
63 62 62 63 63 58 56 55 56 53 50 46 43 38 34 31 29 27 27 27 30 30 32 38 45 56 76 89 97 100 100 77 100 98 99 94 98 98 98 95 96 98 98
62 64 64 64 63 60 60 58 54 50 48 46 45 42 39 36 32 28 26 25 24 24 24 28 49 53 60 86 96 100 100 84 82 100 100 97 98 98 96 96 93 98 99
77 76 73 68 63 59 55 52 50 49 49 50 49 46 43 38 33 29 26 26 25 26 26 28 37 52 48 92 91 94 99 82 87 82 99 97 97 91 95 95 85 96 99
78 78 74 69 65 60 57 56 56 55 55 54 52 50 45 39 34 30 29 28 28 26 25 27 56 86 62 97 99 94 92 89 89 99 99 100 98 97 97 96 95 86 91
86 85 80 67 60 58 60 62 67 64 60 56 54 49 42 35 30 26 26 26 25 24 25 29 38 51 63 90 100 99 99 90 79 92 98 99 99 97 96 97 96 88 93
81 78 71 62 56 57 62 66 69 68 65 59 51 42 33 26 22 21 21 22 22 26 32 40 48 56 57 56 78 98 99 94 84 83 96 99 98 97 93 96 89 96 99
61 76 83 80 83 86 89 85 77 68 57 44 33 24 18 16 16 17 19 22 28 38 58 70 62 58 59 66 82 91 99 92 76 87 92 90 98 98 81 89 99 99 99
69 83 92 92 89 89 84 71 54 40 32 26 20 16 13 12 13 17 23 25 30 49 73 82 71 61 58 76 86 88 70 85 86 78 77 79 98 100 100 94 89 100 99
100 100 100 98 94 78 53 39 31 24 20 16 13 10 8 8 11 18 32 32 52 88 85 89 78 63 55 64 77 70 58 75 92 70 74 93 99 100 98 98 92 98 98
100 100 95 70 46 37 30 24 19 16 13 11 10 9 8 8 8 12 20 48 42 70 88 88 82 66 55 64 87 78 56 56 81 58 63 80 95 100 97 98 100 99 99

GFSMW_500_rhum_003.txt.gz
RH
23 20 16 10 9 10 10 8 7 7 6 6 6 6 6 5 6 6 6 9 15 19 24 25 18 24 24 27 33 32 25 24 25 27 34 40 54 64 66 61 55 35 30
12 7 3 3 5 6 6 6 6 6 7 7 7 6 7 6 6 6 7 8 12 14 14 8 4 12 15 19 31 34 31 27 27 28 36 39 47 62 68 66 70 47 46
2 3 5 4 4 2 1 0 1 2 4 4 5 5 5 6 6 6 7 8 9 11 10 3 0 1 4 11 29 31 31 32 37 43 45 42 44 59 68 71 76 69 71
5 6 5 4 2 2 1 1 1 1 1 1 2 2 3 4 5 5 5 6 6 6 6 3 1 1 14 31 38 42 44 47 48 47 47 46 55 65 70 79 83 83 89
9 9 9 8 8 9 10 10 10 9 7 6 5 6 6 7 4 4 3 3 4 4 9 22 34 39 41 46 46 47 46 47 47 48 48 59 72 80 83 85 96 95 97
9 10 11 12 13 14 15 15 15 15 16 17 18 20 22 24 26 29 28 29 29 32 36 37 34 32 34 42 48 50 54 60 61 65 71 72 80 93 97 95 97 98 100
11 14 17 19 20 20 22 22 22 22 21 20 20 20 21 24 28 31 32 32 37 43 47 46 46 47 51 51 59 61 62 65 66 76 85 88 95 100 95 93 99 94 100
22 26 30 32 37 44 47 49 49 48 46 44 42 41 42 40 38 37 38 41 43 44 40 49 60 62 58 56 60 60 67 74 79 90 100 100 98 96 95 92 90 89 94
44 46 48 51 52 48 45 40 36 35 32 28 26 25 23 22 21 20 18 17 17 17 16 19 28 40 53 56 62 62 74 82 82 87 98 95 92 94 89 97 95 92 84
47 48 45 42 40 36 33 29 26 24 22 19 18 16 16 16 16 17 16 15 15 16 19 24 27 31 42 61 62 59 69 78 76 95 96 98 100 94 90 99 100 96 92
43 40 33 26 22 19 17 15 14 13 13 13 14 16 18 20 23 31 36 36 36 34 34 37 39 43 49 62 73 73 85 78 74 81 81 84 100 96 99 97 96 100 96
25 23 20 17 16 16 18 18 18 22 29 34 37 42 49 47 46 49 48 46 42 42 41 42 42 42 44 48 54 54 57 56 52 54 58 71 98 100 88 86 98 98 100
18 17 18 20 26 37 43 51 52 52 54 52 49 45 41 39 39 39 38 40 39 42 46 43 42 42 42 44 53 60 58 59 60 68 100 100 86 85 91 100 91 92 99
22 33 42 47 53 54 56 58 56 54 52 52 49 48 45 42 40 38 37 38 40 40 39 42 46 48 50 57 62 67 67 64 65 72 90 100 93 81 87 100 96 99 96
61 63 62 64 64 63 59 60 62 61 56 53 51 50 47 44 43 42 40 38 36 33 32 34 38 43 45 50 62 66 66 67 65 73 82 87 91 100 81 98 96 100 98
57 54 57 58 57 53 46 39 40 44 48 53 52 50 51 50 48 44 40 37 36 34 31 29 27 28 30 35 47 57 56 50 64 75 85 97 100 100 86 85 94 97 98
40 37 35 37 36 36 38 39 42 44 48 49 49 52 50 48 46 45 44 41 39 37 35 32 30 27 27 31 38 42 45 41 60 92 88 81 99 97 100 100 91 97 92
16 17 17 18 19 24 34 38 42 42 47 51 54 53 50 48 50 53 54 52 48 45 41 36 31 27 26 27 28 30 31 30 38 76 77 56 79 100 100 100 93 88 96
18 20 28 36 41 50 48 51 52 52 54 51 48 47 49 51 56 60 60 55 48 45 41 37 32 27 24 24 25 29 28 26 31 68 59 91 88 100 100 96 99 98 100
20 31 47 66 72 71 66 62 57 50 49 53 56 54 60 78 80 76 69 60 50 40 28 20 18 17 17 19 24 34 33 28 34 42 55 97 100 100 100 99 97 99 100
33 46 66 86 86 79 72 68 63 60 66 80 91 88 89 79 73 59 44 33 25 20 17 14 12 12 14 16 20 26 38 34 28 33 76 100 100 99 89 100 99 100 99
34 48 56 58 59 68 76 72 79 87 86 82 81 78 75 60 43 34 27 22 18 14 12 11 10 9 10 12 19 29 68 65 48 52 78 88 100 100 93 100 99 99 100
44 56 58 75 84 87 82 87 90 90 88 84 78 64 51 40 34 28 23 17 11 8 8 8 7 6 13 20 34 58 80 68 56 47 58 69 100 96 96 100 100 99 99
76 90 100 100 100 100 100 98 94 88 76 60 46 34 30 25 19 14 11 9 9 9 9 8 7 8 15 30 63 78 81 72 64 57 72 97 100 98 100 100 98 100 100
100 100 100 100 100 100 97 77 54 41 34 28 24 21 18 15 12 10 8 9 10 10 8 7 8 8 12 34 59 90 85 70 65 60 74 95 100 98 98 99 98 100 94
100 99 100 100 96 78 56 41 36 33 30 26 23 20 17 14 11 7 5 5 7 8 6 5 6 7 10 25 44 83 90 78 70 62 70 90 100 94 98 99 99 100 97

GFSMW_500_rhum_006.txt.gz
RH
34 31 27 21 17 13 5 4 5 6 6 6 6 6 7 7 7 7 7 6 6 6 6 6 7 8 6 4 2 0 1 2 4 25 32 36 40 45 49 49 49 50 58
30 27 19 14 6 3 4 5 4 4 4 3 4 5 5 5 5 6 6 6 6 6 6 7 7 7 8 5 2 2 2 10 33 38 42 44 47 51 51 51 52 60 73
26 16 11 3 5 5 4 2 2 1 1 1 0 0 1 1 2 3 3 3 4 5 5 5 6 6 4 5 12 30 38 37 42 45 47 45 46 51 57 61 70 78 86
5 2 5 7 7 6 6 5 5 5 6 6 7 8 8 8 8 6 6 8 9 10 10 8 9 9 17 28 34 38 39 35 42 47 56 58 66 66 59 68 80 92 99
2 7 9 9 11 13 14 15 15 14 14 15 14 14 13 13 14 14 14 16 18 18 20 22 21 22 25 33 41 45 46 48 57 64 67 71 73 74 75 63 89 79 93
8 9 9 10 13 14 15 17 19 21 22 21 20 21 22 22 23 25 25 27 27 28 30 34 40 46 45 45 46 51 56 62 68 70 72 74 74 85 89 76 88 82 82
7 9 11 13 15 17 21 22 26 29 30 33 36 37 38 39 41 42 42 42 40 39 36 35 37 41 39 37 43 41 40 57 52 59 62 70 68 73 72 89 88 80 79
20 22 24 24 26 33 39 38 40 42 41 41 39 38 35 33 30 27 25 24 24 24 23 22 21 20 20 23 28 33 42 47 36 41 64 75 74 94 96 96 95 86 80
27 35 38 43 46 47 44 42 36 31 25 22 20 18 18 17 17 18 18 17 16 16 16 16 17 17 17 20 22 26 31 38 42 46 53 64 80 100 99 100 100 99 69
48 46 43 41 37 31 27 22 19 17 16 15 14 14 13 13 12 12 14 16 18 22 29 36 41 47 48 46 44 43 44 44 49 53 57 62 72 79 82 94 99 100 98
29 26 24 20 17 15 14 14 14 16 18 20 22 24 28 31 40 43 48 46 45 48 46 41 40 42 47 54 51 52 53 54 57 65 65 72 78 86 94 100 100 100 100
17 14 12 12 12 13 16 30 32 36 46 52 54 54 54 52 51 51 50 48 48 49 49 50 49 49 51 52 52 47 45 44 45 48 47 70 96 87 89 96 100 100 100
17 18 22 31 38 40 40 52 50 50 52 55 56 58 60 62 62 63 61 58 55 53 50 49 48 46 46 47 50 55 54 50 47 42 44 45 54 59 68 72 90 93 95
33 40 41 43 44 39 35 34 32 27 25 30 37 39 42 42 43 45 57 66 64 62 59 56 54 50 48 47 49 50 50 47 46 50 57 60 61 66 70 72 59 66 82
15 15 14 12 11 10 10 10 11 12 13 17 22 24 30 32 32 35 36 40 43 40 44 47 50 52 51 51 52 49 44 42 43 45 43 44 43 47 49 50 39 61 69
10 10 11 10 11 10 10 11 12 13 13 14 14 17 23 28 29 34 33 34 38 43 46 46 50 51 53 54 55 53 47 44 39 36 33 31 30 33 35 52 77 75 60
11 13 14 13 13 12 13 13 14 15 15 16 18 24 25 22 24 34 39 39 43 46 49 54 58 61 67 69 63 56 51 46 42 37 33 29 28 30 33 44 54 82 47
14 14 16 16 16 16 16 17 17 18 17 17 21 27 44 54 58 57 54 54 64 62 54 50 59 71 74 68 61 54 48 43 37 32 28 25 22 24 31 32 29 34 38
18 18 17 17 15 14 14 15 14 14 15 28 49 62 72 81 80 72 74 76 77 81 79 75 72 72 68 58 45 34 26 21 17 14 12 12 14 18 20 22 24 44 68
18 18 16 14 12 11 12 13 20 40 59 75 85 85 91 83 68 75 88 90 92 87 80 72 64 51 40 32 27 22 15 12 10 11 10 11 14 16 20 18 22 70 90
18 15 13 12 12 15 22 34 56 82 89 96 100 99 94 91 89 90 90 84 76 71 65 60 54 47 36 26 18 12 10 9 8 8 8 8 9 18 20 26 56 100 100
13 11 10 14 29 49 70 83 88 93 93 96 98 100 100 96 85 73 64 54 47 41 37 31 24 18 14 11 8 9 10 10 10 13 14 15 23 39 40 59 68 100 100
8 13 29 51 80 97 98 98 99 90 86 92 89 76 59 43 37 33 28 24 20 17 15 13 12 10 9 8 7 10 9 9 12 30 59 50 61 57 53 59 70 100 100
31 43 74 100 100 100 100 95 89 88 83 63 44 41 41 42 36 28 23 20 16 13 10 9 8 7 7 6 5 8 8 8 15 33 72 83 76 60 57 60 60 98 100
68 97 100 100 100 90 88 93 81 60 47 47 50 51 43 31 28 23 20 16 10 7 6 5 4 4 4 4 5 7 7 7 16 27 77 94 84 65 58 65 83 100 100
85 100 100 87 79 89 97 77 59 52 52 54 43 32 29 27 27 24 15 9 8 9 9 8 6 5 5 5 5 6 6 7 17 36 82 92 76 75 72 82 95 100 100

GFSMW_500_rhum_009.txt.gz
RH
42 37 35 33 28 23 16 9 4 4 5 4 2 3 3 3 3 3 4 4 4 5 5 6 6 7 7 7 8 7 5 5 4 5 9 23 37 40 42 44 50 56 61
39 37 33 30 24 14 7 4 5 4 3 2 1 1 1 1 1 1 1 2 2 3 3 3 3 3 4 4 5 5 5 5 10 22 30 27 34 42 47 57 65 69 70
36 34 32 14 6 5 6 6 6 4 4 4 6 7 7 8 9 8 10 10 10 11 11 12 14 16 17 20 25 28 32 32 36 36 34 37 42 50 64 69 75 74 78
38 32 10 2 4 7 9 10 10 11 11 12 12 13 14 15 16 17 18 20 20 22 23 23 24 25 25 25 27 29 32 37 43 56 66 60 59 57 42 73 76 75 81
19 8 3 5 10 13 13 12 12 12 13 16 18 19 19 20 21 22 24 26 30 32 36 40 41 42 42 42 42 43 45 50 48 49 46 46 61 60 38 18 57 57 87
3 5 9 10 11 11 12 13 16 19 20 20 20 21 24 27 31 33 35 35 36 36 34 33 32 31 30 28 26 25 25 24 23 23 27 26 23 39 45 28 28 37 65
4 6 7 10 16 19 19 19 21 24 26 32 37 38 36 33 29 25 22 21 22 23 25 24 23 23 22 22 21 19 18 19 20 20 23 28 36 50 58 54 48 42 45
17 20 21 23 25 32 36 40 41 39 35 29 24 20 17 16 16 15 15 15 14 14 14 14 14 15 16 18 21 22 27 32 42 61 77 76 78 86 85 85 87 82 84
33 37 41 41 40 36 33 30 26 22 18 16 14 13 12 14 16 19 20 24 26 28 31 34 37 44 48 47 46 50 52 53 55 63 79 80 80 86 87 94 100 98 88
39 33 29 26 23 22 22 20 18 16 16 17 20 25 33 41 45 50 52 52 54 54 54 53 53 53 55 55 55 54 52 50 50 49 50 50 67 80 83 84 92 99 99
25 24 21 16 15 15 16 26 34 36 39 42 41 39 40 42 40 40 42 46 49 52 56 58 61 64 65 67 66 64 62 61 57 53 53 54 58 60 60 66 68 78 91
16 15 16 25 36 34 28 24 14 10 11 10 10 10 10 12 13 14 15 17 18 24 27 32 36 37 45 58 67 69 68 65 64 62 61 62 64 63 64 63 59 60 78
33 41 45 38 19 9 9 8 8 9 9 10 10 10 10 11 11 11 12 14 15 17 22 31 36 38 45 61 66 65 62 64 69 70 70 70 70 66 62 58 50 45 41
34 19 11 10 9 9 9 10 12 12 12 11 13 12 14 14 14 14 14 14 15 15 19 26 30 39 43 46 54 54 58 65 75 82 84 80 74 67 59 51 45 41 37
12 11 12 12 12 12 13 14 14 13 12 13 13 13 13 13 12 12 12 13 14 17 29 42 46 51 69 73 75 76 75 68 66 76 81 80 80 72 62 53 49 42 36
13 13 14 16 17 16 16 16 14 14 15 15 15 14 13 12 11 11 10 11 22 58 80 87 92 86 77 74 70 65 68 84 80 77 85 88 80 67 59 49 40 33 30
16 18 19 19 18 17 17 16 16 16 16 15 14 14 12 11 9 10 16 32 43 61 60 56 58 67 58 63 90 91 96 92 94 86 81 76 62 46 38 32 26 22 18
21 20 19 18 18 18 17 16 15 15 14 13 12 10 10 13 21 36 48 59 63 76 84 86 88 79 72 80 90 94 91 87 80 71 60 51 46 37 30 27 26 21 18
21 21 21 20 17 16 15 15 14 13 12 10 11 17 29 42 59 68 71 75 78 79 79 80 78 80 74 71 70 65 62 60 58 60 58 52 47 39 27 20 19 14 10
23 22 20 18 16 16 15 12 10 9 9 13 22 44 66 75 76 77 74 76 79 74 68 63 57 51 46 42 37 36 36 35 34 31 27 21 16 13 10 9 8 7 7
22 20 18 16 11 10 10 10 11 15 26 46 70 77 81 78 76 70 64 53 42 32 26 22 20 18 17 15 14 13 12 12 11 10 10 11 10 9 10 10 8 8 7
19 17 15 13 11 12 15 25 38 56 76 83 80 74 72 66 59 45 35 32 33 29 26 24 22 19 17 14 12 11 8 7 7 7 8 8 7 10 9 9 9 35 40
19 16 14 12 17 32 49 56 69 86 84 74 73 70 62 48 36 35 41 42 40 37 32 26 19 15 11 7 6 5 5 5 5 4 5 5 8 8 10 11 43 77 84
15 13 13 19 41 57 70 77 86 84 74 69 69 58 49 46 50 47 45 43 41 34 27 18 12 8 6 7 6 6 6 5 5 5 5 6 8 9 16 39 77 78 70
12 12 23 47 58 69 88 97 91 82 79 71 67 64 60 52 46 46 44 38 31 22 13 10 8 7 8 9 8 7 6 6 6 6 6 7 8 17 46 73 79 76 79
12 18 42 57 70 85 90 88 84 79 71 62 58 54 49 43 35 29 23 18 12 10 12 16 15 13 11 10 9 9 7 6 7 7 6 7 19 40 61 85 91 100 94

GFSMW_500_rhum_012.txt.gz
RH
58 54 43 39 36 35 31 28 20 12 5 5 3 2 1 1 1 2 2 4 5 6 6 8 9 10 10 11 12 10 9 9 8 8 8 8 9 18 38 41 38 44 51
51 42 40 37 35 32 27 17 10 5 6 6 4 5 7 9 10 10 12 13 14 16 18 20 22 25 26 29 30 29 28 26 25 24 23 25 33 43 48 52 60 67 67
43 39 37 35 36 33 14 4 4 6 8 10 12 12 13 15 17 19 20 19 20 20 20 20 22 25 28 32 38 40 41 41 45 47 47 43 40 47 67 66 66 66 70
39 39 40 40 34 15 4 5 9 11 11 11 11 14 18 19 20 20 20 23 26 29 30 30 31 32 32 34 35 35 34 34 33 34 32 30 27 25 22 36 45 43 49
36 30 21 14 9 4 8 11 10 10 11 16 18 19 19 23 28 32 33 33 31 28 26 23 22 24 25 25 28 28 26 25 23 22 20 19 20 21 20 16 23 33 47
19 10 6 7 8 8 8 11 20 25 28 29 31 34 34 32 30 26 22 19 19 18 17 16 16 16 16 15 15 15 16 17 18 21 26 35 34 42 58 65 66 77 98
5 6 5 6 10 18 27 34 38 40 38 36 32 27 23 19 16 15 16 16 18 20 22 26 30 32 35 37 40 41 45 50 51 54 57 64 76 84 90 92 86 88 85
7 11 16 26 39 40 38 36 35 32 28 24 19 16 16 16 20 28 31 30 28 27 24 18 17 17 22 29 34 39 43 48 54 58 62 63 64 69 82 85 88 84 83
17 26 40 40 38 35 32 29 26 22 20 19 20 27 33 33 26 14 9 9 9 8 9 9 9 10 10 10 11 13 17 18 20 25 41 47 56 73 76 80 83 87 79
41 42 39 35 29 25 22 21 20 22 29 28 18 11 9 9 9 10 10 10 10 10 10 11 12 12 12 13 13 15 17 18 22 31 36 51 66 74 79 80 81 82 84
39 33 27 23 19 18 24 33 34 21 9 8 9 10 11 12 12 11 11 11 11 12 12 12 12 12 13 14 14 16 19 23 35 47 60 68 82 82 84 84 85 82 83
26 21 20 26 40 38 22 12 10 10 11 12 12 13 13 13 12 11 11 12 12 12 13 13 13 12 12 12 14 17 20 30 52 66 71 75 82 80 81 77 75 77 83
24 20 23 36 22 13 12 12 13 13 14 15 15 14 14 13 13 13 13 13 13 13 14 14 14 13 12 12 17 28 44 66 82 89 81 74 71 68 69 71 78 83 82
36 37 25 15 14 14 15 17 18 18 18 17 16 16 15 15 14 12 11 11 12 13 12 12 11 13 17 28 41 51 59 72 74 66 61 71 73 68 76 92 95 98 95
16 16 16 17 18 20 21 21 20 19 18 18 17 16 14 12 10 10 10 11 10 9 8 8 13 21 32 48 68 71 74 89 98 99 100 100 100 100 100 100 98 97 89
20 22 22 23 24 24 23 22 21 20 20 18 16 12 10 9 9 8 8 8 7 8 8 11 26 45 68 78 86 94 93 94 92 88 95 100 100 99 98 98 96 94 86
27 26 25 25 24 24 23 22 22 20 17 14 11 10 9 8 8 8 8 9 10 14 32 53 61 65 68 71 71 68 64 58 56 55 54 55 59 61 64 70 70 67 62
26 25 27 27 25 25 25 23 19 17 13 11 10 8 8 8 9 12 16 29 44 50 52 53 53 48 44 40 34 28 24 20 18 16 15 16 19 20 22 30 39 43 40
32 31 30 30 29 26 22 19 15 12 10 10 9 9 9 15 26 41 57 56 51 50 47 38 30 27 26 24 22 19 17 16 14 13 11 10 10 9 10 11 12 14 17
35 34 31 28 24 21 19 14 12 12 12 11 11 16 37 54 65 64 59 55 44 35 35 34 38 38 29 27 25 25 22 17 12 10 9 9 8 8 9 8 9 9 10
34 30 26 25 24 20 15 14 14 14 13 16 31 51 65 72 75 72 65 57 55 47 43 41 35 30 28 24 23 20 16 11 8 6 5 5 5 5 5 5 6 7 8
29 28 29 28 22 18 17 16 16 14 20 38 55 66 73 77 73 66 60 46 38 33 31 28 24 22 20 18 16 13 9 8 7 6 5 5 5 5 5 5 6 6 7
32 32 32 24 21 20 18 16 15 22 39 56 66 72 73 72 64 48 39 32 28 23 19 17 16 14 12 11 10 9 9 12 10 9 8 6 5 5 6 7 7 9 10
35 35 29 24 22 20 17 16 24 45 56 60 69 74 70 58 44 32 24 19 18 16 13 10 8 8 8 11 13 14 15 12 10 9 10 7 6 6 8 9 10 16 23
39 33 28 24 21 18 17 23 41 56 67 75 73 60 47 33 23 19 18 15 10 9 8 10 11 13 17 22 21 16 11 10 10 10 9 6 7 8 9 14 21 38 89
36 30 25 22 18 17 29 47 62 68 71 65 52 33 22 18 18 14 9 9 13 16 22 29 29 28 23 17 14 11 10 13 13 11 8 6 9 9 15 27 40 90 94

GFSMW_500_rhum_015.txt.gz
RH
49 56 59 57 50 46 41 37 34 30 25 16 10 6 6 5 4 6 11 12 13 16 17 18 20 20 21 23 26 27 28 31 36 35 39 40 41 39 40 45 48 52 58
46 48 54 49 42 39 37 35 31 27 14 4 5 8 9 12 14 14 16 19 20 20 21 22 25 28 30 33 34 34 35 35 38 34 30 26 30 39 46 49 48 47 47
46 47 47 42 40 37 34 32 27 18 4 5 9 10 11 13 17 20 22 26 28 31 33 32 33 31 28 27 26 24 22 20 22 22 20 18 15 16 17 20 21 24 25
40 38 38 36 35 32 26 20 16 6 4 8 9 14 19 21 26 32 34 33 32 30 27 24 21 19 17 16 16 17 17 19 20 24 27 26 22 17 14 17 32 60 54
40 39 40 35 27 20 13 6 4 6 7 16 22 25 31 36 37 36 33 30 26 22 19 17 16 17 20 24 26 28 31 27 27 32 38 43 47 50 50 38 41 46 72
40 37 30 22 14 8 5 6 9 22 26 31 35 36 37 34 30 26 22 19 17 18 20 21 16 10 8 8 8 8 8 9 9 10 10 10 14 20 33 35 31 43 57
26 23 17 10 4 4 14 26 32 34 37 38 37 33 29 24 20 19 20 22 18 12 8 8 9 9 9 9 9 9 9 10 10 11 12 12 12 14 14 18 14 16 18
17 13 9 4 10 27 40 41 40 38 36 32 26 22 19 20 19 11 8 8 9 10 10 10 10 10 10 10 10 11 11 12 12 12 12 12 14 18 22 24 34 20 21
11 8 5 17 38 46 45 40 35 30 23 18 20 26 17 9 9 10 10 11 12 12 12 12 12 12 12 12 12 12 12 11 11 12 13 15 16 19 27 42 53 66 37
7 17 31 44 47 42 33 27 22 20 28 27 14 10 10 11 11 12 14 15 14 15 14 14 14 13 12 11 10 10 11 11 12 13 14 15 17 20 32 56 79 91 91
34 42 45 41 32 24 20 31 46 34 14 12 13 14 15 17 18 17 16 16 16 16 14 12 11 9 8 7 7 8 8 8 8 9 10 13 17 22 42 71 90 100 100
45 37 28 26 25 24 46 44 25 13 13 15 17 18 20 21 20 19 19 18 16 14 11 9 8 7 7 7 7 6 7 7 7 10 15 24 26 38 59 70 82 89 88
27 28 31 36 40 32 21 15 14 16 17 18 21 22 22 22 22 20 19 16 14 10 8 8 8 8 7 6 6 7 8 12 26 39 55 70 82 92 100 100 100 100 100
34 40 36 18 14 16 21 22 21 22 24 24 24 24 23 22 21 18 15 11 10 10 10 9 8 7 7 9 12 22 33 44 57 69 81 93 97 94 90 90 91 93 94
35 19 17 21 26 24 24 26 28 28 28 26 26 25 23 20 17 13 11 12 11 9 7 7 8 9 16 27 42 44 43 44 50 50 44 38 33 29 26 26 26 27 32
19 25 29 28 28 33 33 32 31 30 29 27 25 22 19 14 13 14 13 10 8 8 8 10 17 32 48 53 52 50 41 35 31 29 31 30 25 22 20 19 18 16 15
30 30 31 34 35 35 34 32 31 29 27 25 24 19 16 17 16 13 10 9 9 9 19 39 57 62 62 57 43 35 31 28 24 21 19 19 20 18 16 14 13 12 11
32 35 36 36 35 34 33 31 28 28 28 26 21 20 20 17 13 11 10 10 15 32 49 61 69 69 63 49 37 31 27 24 21 20 18 17 15 15 13 12 10 8 7
38 39 37 36 35 33 31 30 30 29 26 24 24 21 16 14 13 12 14 26 40 48 60 64 61 55 49 42 34 29 23 17 14 13 12 12 10 10 9 7 5 5 4
42 40 38 35 33 33 34 32 31 30 28 26 21 18 16 14 12 18 33 50 57 59 58 53 45 37 30 21 15 13 10 8 6 6 6 7 7 7 6 6 5 4 4
42 39 37 37 37 36 36 35 32 30 28 24 21 18 13 14 29 44 54 56 50 41 30 22 17 15 13 9 7 7 7 7 7 9 9 11 11 11 10 8 6 4 4
44 44 43 41 39 38 36 34 33 31 27 23 17 13 18 33 46 49 44 29 20 18 17 15 11 8 7 10 10 10 12 17 21 20 20 16 13 12 11 8 6 6 5
55 51 48 44 42 41 38 36 33 29 23 17 15 19 36 49 44 26 21 18 17 16 12 7 6 8 14 11 11 12 14 16 18 17 16 15 17 15 11 6 6 7 8
56 55 51 48 44 41 38 34 29 22 17 15 21 38 48 37 24 22 19 17 14 9 8 10 14 14 10 9 8 10 11 14 17 17 20 20 16 12 7 6 10 10 12
61 56 52 46 43 41 34 27 20 16 15 21 38 50 40 28 26 23 18 14 9 12 13 17 14 10 8 8 8 10 12 14 14 14 16 14 11 8 6 10 14 25 35
60 55 51 47 42 31 23 18 16 14 22 38 54 47 33 31 28 21 16 10 12 15 18 16 12 9 9 8 9 11 17 22 14 12 11 9 8 5 10 15 35 64 100

GFSMW_500_rhum_018.txt.gz
RH
55 47 37 44 54 60 54 51 45 40 36 34 31 22 9 4 6 8 10 11 12 16 20 21 23 26 30 35 35 34 33 31 27 23 21 19 18 17 17 18 18 19 20
40 40 45 47 52 57 53 50 43 38 36 34 30 16 4 7 10 11 12 15 20 23 27 32 35 35 34 31 26 22 18 16 16 16 14 14 16 20 24 34 38 43 46
25 33 42 49 50 48 45 41 37 35 33 26 18 5 7 9 11 15 21 26 32 37 37 35 31 27 22 18 18 19 20 17 21 21 18 10 8 8 8 8 11 20 30
21 37 44 46 45 38 34 34 33 26 18 7 5 8 10 20 23 27 34 37 39 37 32 25 21 19 20 20 16 11 9 8 8 9 10 11 10 9 7 8 8 9 10
24 29 42 43 40 37 29 25 18 8 4 6 9 20 27 33 40 43 45 40 30 23 20 20 16 10 8 8 9 10 10 11 10 10 11 12 12 13 12 10 10 10 10
18 21 22 29 32 26 22 12 5 4 9 21 27 33 40 42 41 34 25 21 19 14 10 8 9 10 11 12 12 13 14 13 13 13 12 12 11 10 10 9 8 9 9
19 19 19 18 20 19 9 5 6 17 24 34 42 45 41 30 22 24 25 15 10 11 13 15 16 15 15 14 15 15 15 14 13 11 10 8 7 7 7 7 6 6 6
18 18 19 19 16 8 5 10 20 34 44 47 44 32 21 25 22 13 11 12 14 16 17 18 18 18 18 17 17 16 14 12 10 8 8 8 8 7 7 7 7 7 6
15 16 15 13 7 8 15 29 44 47 44 32 20 27 28 13 11 12 14 16 16 18 19 20 21 20 19 17 15 13 11 10 10 10 10 8 7 6 7 8 13 17 10
13 11 10 12 21 34 44 48 45 33 22 26 36 25 13 15 18 20 20 21 22 22 23 22 21 19 18 16 14 13 12 12 10 8 6 6 7 7 10 16 27 41 46
12 15 26 38 48 48 43 32 27 32 38 30 16 19 20 20 19 19 20 22 23 23 22 21 20 19 17 16 15 13 9 8 8 8 7 8 10 18 32 47 60 71 86
35 48 52 49 37 29 29 39 38 20 18 23 22 21 20 22 22 22 23 24 24 23 22 20 19 17 17 13 10 10 10 8 7 8 14 26 40 47 50 53 54 58 62
58 47 34 28 30 44 41 18 23 25 23 21 21 22 23 24 25 26 25 24 23 23 20 19 18 15 12 12 10 9 7 8 13 35 59 62 60 56 51 48 44 37 33
34 30 37 50 49 23 23 25 24 23 22 22 25 25 27 26 26 25 25 25 23 22 21 18 15 14 12 9 7 7 14 31 56 69 78 74 68 58 48 42 40 39 37
38 52 50 26 21 26 25 26 25 25 25 29 28 28 27 27 27 27 26 25 23 21 18 17 14 10 8 9 16 27 34 43 55 62 57 49 42 38 34 29 26 24 22
58 32 22 25 27 28 29 30 33 33 33 30 30 30 30 29 28 28 26 24 23 21 17 13 9 8 15 27 32 32 30 31 29 27 27 27 26 26 24 21 18 18 16
42 25 29 31 34 34 38 38 36 35 34 34 34 32 30 30 29 28 25 23 20 15 11 9 10 17 25 22 17 16 14 14 13 11 9 7 6 6 6 6 6 7 7
27 32 35 38 40 42 41 39 38 39 40 38 35 33 32 31 29 26 22 18 14 12 9 13 22 23 19 16 13 12 11 7 5 6 8 8 7 7 7 7 6 6 7
36 38 42 45 46 46 46 48 48 47 43 40 37 35 34 30 27 21 17 15 12 10 19 27 24 20 16 13 11 6 5 8 11 11 8 9 10 14 17 16 16 14 14
44 46 48 50 52 54 54 52 49 48 46 41 38 35 32 27 21 18 15 11 12 27 31 28 24 18 13 10 7 8 13 11 9 7 8 10 11 13 17 18 16 14 12
41 44 46 50 52 51 51 51 52 48 43 40 38 34 26 22 18 14 11 18 35 36 33 30 22 15 11 7 12 13 12 9 7 7 9 11 11 11 11 13 15 14 12
43 46 50 50 48 48 53 55 50 46 43 41 35 28 23 18 14 14 22 43 43 38 36 28 19 13 7 9 11 11 10 9 9 10 12 13 12 12 14 15 13 11 7
44 48 50 49 52 58 57 53 49 46 42 37 32 25 20 16 16 27 47 48 42 40 32 22 15 9 7 8 8 9 9 9 10 12 22 16 12 13 13 11 10 6 10
53 52 54 60 63 60 54 50 48 45 41 36 27 23 19 18 31 54 55 47 42 36 25 17 12 7 9 8 8 8 8 9 9 14 32 22 11 9 8 8 6 11 15
54 63 67 65 62 57 53 48 47 45 39 30 25 20 21 37 52 58 54 46 41 29 19 14 7 10 10 9 9 8 8 8 8 12 31 26 9 7 9 6 11 22 78
67 66 66 63 60 56 51 48 46 40 31 25 20 22 34 48 56 54 49 45 36 24 17 8 10 13 9 9 9 9 10 10 9 13 30 18 6 7 6 12 37 98 100

GFSMW_500_rhum_021.txt.gz
RH
39 55 56 58 40 38 44 51 62 60 51 43 39 37 35 35 27 12 6 9 11 12 13 17 22 27 35 39 38 36 28 21 18 16 15 15 13 11 9 9 10 12 17
54 51 43 37 40 46 47 52 58 54 47 44 40 38 37 28 15 7 11 12 15 21 28 34 40 41 37 30 22 18 18 16 11 9 8 7 8 9 9 9 10 11 11
41 30 22 26 37 45 56 55 54 48 44 41 40 30 16 8 7 11 11 22 29 38 44 42 34 25 20 17 13 10 8 9 11 11 10 10 10 9 10 11 12 12 12
26 19 17 30 43 45 47 45 41 43 42 31 18 8 6 8 10 19 30 39 44 40 31 23 21 16 10 10 11 13 14 14 15 16 17 16 16 15 12 13 13 12 12
39 30 20 29 37 40 40 41 44 41 26 10 5 5 12 24 31 39 46 40 26 24 24 19 13 12 13 14 14 16 17 18 19 19 19 19 18 16 16 16 15 14 12
32 32 24 20 27 30 33 41 35 21 10 5 7 19 31 41 48 44 31 23 23 16 12 14 17 19 19 20 20 21 21 21 21 20 19 18 16 15 14 14 14 14 13
25 24 22 20 19 25 26 23 17 10 5 10 22 38 48 47 35 26 30 19 12 16 20 20 17 17 18 20 21 21 22 21 20 19 17 16 16 15 13 12 11 12 12
24 22 22 19 18 20 18 15 10 8 16 31 50 50 38 23 29 34 18 17 21 20 19 18 16 16 18 20 21 20 20 21 20 19 18 16 14 12 12 10 9 8 7
19 19 17 16 17 14 10 9 16 34 50 52 40 27 27 36 24 19 21 21 20 18 17 16 18 20 21 21 21 21 21 21 20 18 15 14 12 10 8 7 8 12 9
12 14 16 15 13 13 22 40 57 52 38 29 34 34 23 20 22 22 20 18 17 16 15 18 21 21 22 22 22 21 21 19 17 15 12 10 8 7 6 7 17 42 69
12 15 17 18 30 53 62 56 41 30 37 36 21 22 24 22 20 19 18 17 16 18 21 22 23 23 23 22 21 20 18 16 14 12 9 7 6 6 10 19 36 54 74
24 27 33 52 68 58 41 32 38 42 27 23 26 23 21 18 20 19 20 22 23 24 25 25 25 24 23 22 20 17 15 14 11 9 7 6 7 12 18 24 33 46 56
39 57 67 62 50 33 43 49 29 25 27 26 21 19 19 23 23 25 26 28 29 29 28 26 24 23 22 19 18 16 12 10 8 7 8 12 13 12 12 13 14 15 17
74 76 58 37 36 51 35 25 25 25 24 21 23 26 28 29 30 33 32 33 31 29 27 26 25 23 21 19 15 12 10 9 12 14 13 11 10 8 7 5 5 5 5
73 48 36 46 57 27 25 26 26 26 29 30 34 35 35 37 38 37 36 34 31 29 28 27 25 22 17 14 12 10 13 17 16 15 11 9 5 5 5 7 6 7 7
42 48 61 64 54 28 26 30 34 37 39 40 39 42 39 38 40 41 39 34 32 32 30 27 20 16 14 12 15 21 23 22 18 12 8 5 7 8 8 7 6 6 8
69 56 61 55 29 31 38 41 40 42 42 43 44 42 43 47 46 42 36 35 34 32 25 20 17 14 13 20 28 32 28 20 14 7 6 9 10 8 7 7 6 7 9
66 76 37 31 38 43 44 43 42 43 47 47 46 47 52 50 45 40 37 35 31 24 20 16 14 14 26 32 33 31 22 14 8 6 8 10 9 8 8 7 6 8 9
39 31 35 42 43 42 42 44 47 50 49 51 54 55 52 46 42 39 36 30 22 19 16 14 16 24 32 33 32 23 16 9 6 8 8 8 8 8 8 9 8 8 11
35 41 46 46 44 42 44 48 51 52 54 57 56 54 48 43 39 35 27 20 17 15 15 15 23 34 34 34 24 18 9 7 8 8 7 8 8 7 13 18 9 8 10
44 46 44 41 41 44 50 52 53 58 57 56 54 48 44 39 33 24 18 15 14 14 16 22 30 35 37 28 20 11 7 9 10 9 8 9 8 10 25 26 10 8 8
44 42 40 41 46 55 55 53 55 55 56 52 48 46 42 31 22 19 16 15 14 19 32 35 34 38 32 24 17 7 11 13 10 9 9 10 9 14 35 23 8 7 6
42 41 41 54 59 52 52 52 55 55 51 49 46 39 29 23 20 18 17 15 23 39 46 41 38 34 28 22 11 8 14 12 9 9 9 10 10 20 30 9 7 6 14
41 46 63 58 53 53 54 55 51 48 46 45 36 27 24 22 20 18 16 27 48 56 50 44 37 31 25 19 7 12 13 9 11 10 9 10 10 30 15 6 7 35 76
58 67 59 57 58 56 52 47 43 41 37 30 25 23 23 21 18 16 23 47 66 56 50 44 36 29 24 12 8 11 10 14 17 9 14 12 24 21 6 10 53 93 96
68 61 60 60 55 48 41 38 33 29 25 21 21 22 21 19 16 18 37 64 60 56 54 43 36 28 20 7 11 11 16 27 14 18 14 21 22 6 12 60 100 96 99

GFSMW_500_rhum_024.txt.gz
RH
49 53 52 46 57 58 57 40 40 49 50 60 62 56 48 42 38 37 32 20 11 9 10 13 20 27 35 38 37 31 23 16 13 12 10 10 11 13 13 14 15 15 14
41 41 39 42 50 54 47 34 45 49 56 59 59 55 45 40 38 24 12 9 11 12 20 32 39 39 33 25 20 18 14 12 13 14 14 13 15 16 16 17 18 18 18
47 51 52 52 47 34 26 35 52 57 53 54 51 45 40 24 12 10 11 13 23 35 41 40 32 24 20 17 13 14 16 14 15 15 15 14 14 14 17 18 19 19 18
57 54 42 28 18 17 26 40 47 54 58 54 43 35 20 11 8 10 21 32 44 45 37 27 24 18 13 16 19 15 12 10 10 12 15 17 16 16 14 15 16 17 18
55 54 41 29 26 18 29 40 47 57 54 49 38 20 12 9 12 28 45 49 42 31 28 28 15 14 19 18 14 14 13 13 14 16 17 18 19 19 18 15 15 15 16
43 50 46 39 32 23 23 34 46 50 45 32 18 11 12 27 43 53 48 35 25 32 31 18 20 20 17 16 16 16 16 17 19 20 20 20 20 20 20 18 17 16 16
24 31 29 27 25 21 23 32 36 32 23 13 9 18 33 45 51 42 30 32 37 25 20 21 19 17 18 18 17 17 20 21 22 22 22 22 22 21 19 17 15 14 13
20 22 25 25 20 19 24 25 22 18 14 16 31 51 52 40 33 36 36 25 22 23 20 18 19 19 18 19 21 23 23 23 23 23 22 21 19 18 16 15 13 11 10
17 18 22 21 17 20 20 17 14 15 27 48 56 40 33 39 35 23 25 24 21 19 17 20 22 23 24 24 24 25 25 24 23 22 21 19 18 15 12 11 10 10 8
20 11 11 15 16 16 15 18 29 46 58 47 35 41 39 25 26 27 21 19 19 23 25 26 26 28 27 26 27 27 25 23 22 21 19 15 13 11 10 9 10 12 13
22 13 11 12 14 20 34 50 62 47 36 44 43 31 26 27 24 21 21 24 27 29 29 30 29 28 30 30 28 26 24 22 20 17 13 11 9 9 8 10 11 9 10
12 13 18 23 34 54 66 59 38 44 47 36 26 26 26 23 23 25 28 30 30 31 31 30 31 34 32 29 26 24 22 18 14 11 10 9 8 8 7 8 10 10 8
14 19 28 44 64 73 56 37 50 41 28 26 25 24 26 27 27 28 32 34 35 34 35 37 37 34 31 28 25 20 15 11 9 9 9 8 5 6 13 12 9 6 4
23 38 52 74 76 48 38 54 49 34 32 28 26 29 31 31 33 37 39 38 38 41 43 42 37 33 28 22 14 9 8 8 8 9 7 7 14 16 12 8 5 5 7
32 52 78 76 49 49 61 63 62 56 31 30 34 35 36 39 41 42 42 43 44 48 46 39 33 26 17 11 11 10 9 8 8 7 8 19 19 13 6 4 7 8 8
55 88 82 49 61 64 70 59 38 33 36 38 38 39 43 46 46 45 46 49 54 49 40 33 25 16 14 13 11 10 10 10 9 10 20 20 14 6 5 8 8 7 8
81 81 61 63 68 83 72 33 38 41 40 40 41 44 49 49 48 49 53 57 48 40 32 23 17 16 14 12 12 12 14 11 18 24 21 16 8 6 8 9 8 7 8
81 79 73 70 70 41 35 44 44 42 41 41 46 52 51 51 55 58 55 46 37 30 22 19 17 14 13 13 14 18 14 21 26 23 18 11 7 11 10 8 8 8 8
67 60 83 63 37 40 46 45 44 41 42 51 56 51 54 57 57 49 42 32 24 18 16 14 14 14 14 17 24 20 24 26 24 21 14 8 12 11 9 8 8 8 10
79 93 55 37 44 47 47 45 42 44 58 56 52 55 56 51 45 34 21 12 12 13 14 15 15 15 20 26 25 29 28 25 23 19 7 10 9 12 11 8 9 8 17
80 43 39 45 48 50 46 42 47 62 58 56 56 53 46 37 25 15 14 14 14 15 17 17 17 18 23 29 34 34 30 27 22 10 7 10 18 16 10 10 9 15 8
38 42 45 50 50 44 42 53 65 59 58 55 48 38 28 21 14 14 15 16 17 18 19 18 20 27 33 37 37 34 30 28 14 6 11 18 20 13 13 12 18 8 17
44 49 50 47 43 44 65 64 60 58 48 37 27 22 18 17 17 17 17 18 20 21 19 19 28 33 35 40 36 31 29 20 6 11 22 20 17 17 16 23 7 25 74
55 47 43 41 52 68 63 62 50 34 25 21 19 18 18 18 18 18 20 22 22 21 23 34 37 40 43 39 32 30 26 6 9 19 22 26 22 21 22 7 25 76 84
45 42 44 65 65 63 54 36 25 23 21 19 20 20 20 19 19 22 23 22 22 25 37 46 48 45 40 34 33 28 9 6 15 22 26 27 24 24 8 21 74 91 96
41 63 66 62 55 40 27 24 21 20 21 22 20 19 18 19 21 23 22 20 23 43 59 58 52 43 38 36 30 11 5 15 24 24 26 25 24 7 20 80 100 100 100

GFSMW_500_rhum_027.txt.gz
RH
42 50 65 67 67 66 52 51 53 63 67 43 31 45 57 61 57 51 44 38 34 14 8 8 13 30 40 40 34 27 22 18 15 15 16 15 12 11 10 11 12 13 16
36 47 52 46 50 50 46 51 55 54 49 32 45 56 58 57 52 43 37 28 12 10 18 33 42 45 38 30 24 22 16 14 16 17 15 12 12 13 13 13 14 15 16
32 32 35 44 43 44 48 52 49 38 25 36 47 61 60 53 45 36 22 12 11 23 37 48 46 36 29 28 26 16 15 19 18 15 14 13 12 10 12 13 15 17 18
32 29 34 41 50 52 47 27 17 17 26 38 46 60 56 46 39 24 13 10 23 43 52 44 33 30 38 32 18 19 18 16 15 16 16 15 14 11 8 13 16 18 18
43 48 52 55 55 46 32 25 20 20 32 39 50 53 46 39 24 12 11 25 46 50 43 31 34 38 25 21 20 17 18 17 17 16 16 17 19 20 19 15 16 16 17
36 44 47 51 52 46 37 31 23 23 34 41 45 43 33 18 12 18 33 49 44 36 35 32 26 22 20 19 18 21 20 20 21 20 21 21 21 21 20 18 17 15 14
29 28 31 32 37 35 30 23 21 26 34 40 35 24 16 17 30 47 44 37 36 33 25 24 22 20 19 22 25 24 24 24 25 25 26 25 24 22 20 18 16 13 12
43 38 31 24 23 24 23 21 22 24 28 25 20 14 18 38 49 38 38 36 27 26 25 22 22 23 26 27 27 28 29 27 27 28 27 26 24 21 18 15 13 12 10
30 34 29 24 19 21 21 20 20 20 20 18 24 48 56 44 38 40 31 28 29 26 23 26 27 30 31 31 31 31 30 30 31 31 28 24 20 17 13 11 9 8 8
37 35 31 24 13 12 14 15 15 16 23 43 60 44 40 43 35 29 28 28 24 25 27 30 33 34 34 34 33 31 34 34 32 28 23 19 15 13 11 10 8 7 7
32 31 30 26 19 13 11 16 23 36 55 58 41 42 42 30 27 26 25 26 28 31 34 36 37 37 36 36 37 40 37 32 27 23 17 15 14 11 9 8 7 7 7
33 29 25 22 16 16 20 29 46 62 59 40 47 40 27 27 33 26 30 31 34 37 40 41 40 39 41 43 41 38 33 26 21 17 15 11 9 8 8 9 8 7 9
36 29 22 16 16 21 32 55 69 56 41 53 52 48 52 47 30 33 34 36 40 44 45 43 42 45 46 42 38 30 23 18 13 10 9 9 9 10 11 9 9 15 14
36 31 25 19 22 36 62 72 59 52 58 63 61 53 33 33 36 36 39 43 48 48 45 47 48 45 41 31 22 16 12 10 9 9 10 11 13 12 10 16 18 14 12
43 29 20 24 43 67 84 67 57 65 68 66 55 35 37 38 39 42 47 52 50 45 48 46 43 32 19 15 12 11 10 10 10 11 13 13 12 13 25 19 16 13 5
36 18 24 37 63 87 66 61 66 76 77 39 37 40 40 40 44 51 55 49 47 49 45 38 23 15 12 12 12 12 11 12 14 14 14 13 26 27 20 18 13 5 8
21 17 31 55 80 76 72 69 71 56 38 39 41 42 41 44 53 57 52 52 47 39 29 18 14 14 14 14 14 13 14 16 16 15 16 31 29 22 20 14 5 8 12
22 40 65 78 82 82 71 77 74 42 42 44 44 42 44 55 58 55 48 38 27 19 15 15 16 14 14 15 15 17 17 15 17 27 39 31 24 23 14 5 8 11 15
45 59 79 99 67 80 94 62 40 46 47 47 43 46 59 57 52 36 20 14 14 16 17 14 14 14 15 16 18 16 13 20 32 41 34 27 26 15 6 12 14 14 12
70 92 97 81 92 92 48 44 49 50 49 44 53 60 58 40 23 12 13 18 16 15 15 15 14 12 14 17 14 14 25 30 38 34 29 29 15 6 19 20 15 12 12
97 91 85 89 43 40 48 51 52 50 44 60 62 48 27 20 16 17 17 16 16 16 16 16 14 14 14 12 21 38 42 40 32 29 27 16 6 18 23 25 20 15 13
71 69 48 39 43 54 57 53 46 47 63 59 36 23 18 17 15 15 16 16 15 17 16 14 13 11 11 24 39 43 38 36 32 29 15 5 16 23 25 22 20 13 17
44 40 41 55 67 52 51 44 60 64 50 29 22 19 19 17 17 16 15 16 19 17 14 12 9 12 26 42 42 37 34 34 30 12 5 16 24 24 24 24 9 21 72
46 72 85 54 49 48 49 72 59 38 28 24 20 19 19 18 19 17 16 18 18 15 11 10 15 31 42 42 37 34 32 26 8 5 16 23 25 25 20 8 26 83 95
89 75 49 47 45 68 68 51 34 29 26 22 22 20 19 18 18 18 18 19 17 12 12 25 36 40 39 38 35 34 24 6 7 16 20 25 26 21 8 42 95 96 98
62 50 46 57 78 63 42 33 30 28 25 24 21 21 19 19 21 21 19 18 12 11 26 37 40 37 38 37 35 22 6 12 17 18 22 26 20 8 58 100 100 100 100

GFSMW_500_rhum_030.txt.gz
RH
26 29 27 30 44 54 71 78 69 60 52 54 60 63 52 36 40 56 61 56 50 45 42 22 7 6 16 35 44 42 34 28 27 25 20 18 18 18 16 15 15 15 15
25 31 31 40 46 62 66 66 63 54 46 46 52 50 38 31 43 61 58 52 47 42 24 10 7 21 37 45 40 30 32 34 28 24 21 19 18 17 17 17 16 16 15
23 28 32 36 47 58 50 53 49 46 48 49 35 22 21 36 46 59 58 50 45 27 12 8 15 31 43 38 33 33 30 23 21 20 21 19 19 18 18 18 18 19 18
26 32 34 32 34 38 43 44 46 50 38 16 14 18 29 39 46 54 50 41 25 12 11 22 37 41 37 35 28 25 22 21 20 20 20 21 20 20 19 21 21 20 20
32 27 34 32 31 34 43 51 54 44 30 22 19 22 30 36 42 40 34 21 14 21 32 40 39 37 29 26 25 22 20 19 21 24 24 26 27 26 23 17 18 20 21
45 36 32 43 46 50 52 49 44 38 28 25 22 25 29 29 31 24 18 16 33 42 40 39 32 28 28 26 23 23 24 26 28 29 28 27 26 26 26 23 22 20 19
35 47 30 31 38 42 39 31 30 29 26 23 22 22 24 25 21 19 26 42 46 42 38 32 30 29 27 26 28 29 31 32 32 32 32 32 31 29 27 25 22 20 19
37 52 50 42 37 30 25 22 21 21 23 24 24 22 20 19 22 44 50 44 42 36 31 32 31 30 29 30 31 34 36 37 38 35 33 31 30 30 28 25 22 18 17
29 40 43 40 38 32 25 22 20 19 17 16 18 18 19 35 55 45 47 44 33 31 32 31 31 31 32 34 37 40 41 38 35 33 32 32 30 27 23 19 15 14 14
39 37 36 37 37 32 26 21 17 16 13 12 19 27 46 58 45 46 38 30 30 33 33 32 34 36 39 42 43 41 38 36 36 34 32 27 22 18 14 11 8 7 7
34 31 32 35 34 31 28 23 20 18 18 28 41 58 63 45 50 46 39 44 44 35 35 37 40 44 47 46 42 40 39 37 31 24 20 15 12 8 6 6 7 8 11
34 33 32 31 30 28 26 24 20 20 28 47 65 64 48 56 60 61 50 37 36 37 39 44 49 50 47 45 42 35 24 18 15 13 10 7 7 7 7 8 9 11 12
37 36 35 34 32 29 23 18 24 36 47 58 66 58 64 68 66 51 38 38 39 42 48 53 52 49 42 29 18 14 11 10 8 8 8 8 7 7 8 10 10 10 10
43 43 43 40 37 33 28 26 32 42 62 76 61 67 76 77 45 38 40 41 44 51 55 52 44 26 16 13 10 8 7 7 7 8 9 8 8 9 10 10 10 12 15
43 40 44 47 43 30 21 29 46 68 74 65 70 76 60 42 40 42 43 44 54 55 49 30 16 13 14 11 9 8 7 7 7 8 9 8 9 10 12 17 20 23 21
50 51 58 57 45 26 20 39 69 74 76 77 73 74 51 42 45 44 45 57 55 38 18 12 13 12 10 9 8 8 8 8 8 8 7 7 9 20 26 25 24 24 19
68 63 63 41 21 24 42 75 81 87 83 90 85 42 46 48 45 48 60 53 26 19 14 13 11 11 10 10 10 9 8 8 6 6 7 13 27 28 25 24 22 17 6
74 62 30 17 26 44 70 88 97 82 95 62 44 49 51 45 53 61 45 22 16 15 14 14 13 11 12 12 10 9 7 5 6 12 24 29 26 26 25 20 11 5 15
42 18 17 30 53 88 99 97 96 95 43 46 55 50 46 60 61 37 22 18 16 17 16 13 12 13 14 12 10 7 5 6 12 24 29 28 26 23 16 6 4 15 23
24 38 58 88 90 94 96 95 53 42 53 60 50 49 66 59 32 23 18 18 19 16 13 14 14 14 12 11 8 6 7 12 21 27 27 27 22 10 5 9 20 22 21
58 90 100 93 81 76 68 53 46 63 57 51 53 68 52 31 26 21 21 21 15 14 15 16 14 13 11 9 7 12 20 27 27 25 24 17 6 7 17 23 24 22 12
67 54 69 73 74 66 45 58 71 54 51 61 69 46 30 27 24 24 19 15 15 17 19 15 15 14 10 8 14 24 29 29 27 23 12 6 14 18 24 25 21 12 67
69 72 77 76 46 51 86 74 51 53 71 65 40 30 28 27 24 16 15 16 19 21 19 17 16 11 8 15 22 27 29 27 17 7 8 17 18 22 26 21 16 87 96
46 43 44 55 86 72 54 51 65 75 57 37 32 29 27 20 16 15 16 21 23 22 20 18 12 7 14 24 28 27 16 7 6 9 17 17 20 25 16 27 94 99 100
66 60 61 61 62 59 66 79 74 54 37 34 30 24 18 16 15 18 23 26 25 23 20 14 8 12 22 27 26 12 8 8 13 17 17 18 22 18 41 100 98 100 100
87 76 75 64 56 75 79 70 52 39 36 30 22 19 17 15 18 24 27 32 28 23 15 9 16 24 30 30 12 13 17 20 20 19 16 21 16 61 100 100 100 100 100

GFSMW_500_rhum_033.txt.gz
RH
28 39 21 24 31 32 60 67 62 76 79 71 62 54 53 47 51 43 27 41 52 56 53 49 45 36 23 15 9 10 25 35 36 34 34 32 27 25 22 21 20 19 20
25 52 23 27 30 28 32 46 56 73 73 71 58 50 46 48 33 19 30 42 47 50 49 47 36 23 17 12 11 20 37 37 36 35 30 27 23 21 21 22 23 24 24
22 46 36 26 32 34 43 50 64 60 58 55 50 46 46 20 15 19 33 42 44 43 37 28 20 16 13 27 37 39 37 31 28 27 27 27 27 27 24 25 26 26 27
28 33 41 23 29 34 37 45 54 46 48 46 47 46 27 22 21 22 27 30 32 28 23 18 15 19 34 40 39 33 29 28 27 26 24 26 27 26 25 25 29 29 28
40 45 27 29 33 35 33 32 35 41 46 54 49 35 29 27 25 25 26 25 25 22 16 18 34 43 44 38 32 30 29 27 27 27 28 30 32 31 27 22 24 27 29
33 49 38 32 29 34 33 33 43 52 52 46 39 35 28 25 26 27 27 24 20 22 34 44 46 42 35 33 33 33 32 31 30 32 32 33 33 33 33 30 27 25 25
30 45 52 46 33 30 36 43 42 40 34 30 26 23 24 25 26 23 20 22 31 45 46 48 42 34 34 34 33 33 32 35 36 38 40 40 38 36 33 31 27 23 20
28 32 34 47 49 43 38 33 30 27 24 22 21 22 20 17 18 17 22 44 54 49 50 38 33 32 36 40 36 35 38 40 43 44 42 40 37 30 22 20 15 10 6
28 28 32 52 55 51 45 40 35 28 24 19 14 15 16 13 17 33 58 59 52 49 40 36 42 46 40 36 38 42 46 47 45 43 35 23 18 15 9 6 6 5 5
27 29 35 40 40 35 35 36 34 30 27 23 19 16 16 26 48 65 58 49 60 56 54 52 42 37 38 42 47 49 46 43 32 19 15 11 7 6 6 6 6 5 4
32 33 36 37 34 31 33 34 32 28 24 24 23 24 32 57 74 62 59 67 70 65 53 42 40 42 47 50 49 45 33 18 13 9 7 6 6 6 6 6 6 5 4
35 36 34 33 33 34 34 32 29 30 28 23 22 30 56 77 72 60 73 83 68 47 42 42 45 51 53 48 37 20 14 10 10 10 8 7 7 7 6 6 5 4 4
43 40 38 37 35 36 36 34 32 31 31 28 27 41 82 80 61 76 80 58 64 46 46 50 56 54 40 23 15 12 13 13 10 8 8 7 7 6 5 4 4 3 4
46 44 44 42 40 43 46 45 42 36 28 27 48 89 77 75 80 72 84 54 48 52 55 59 51 30 18 14 14 16 13 9 8 8 8 7 6 5 4 4 4 7 11
53 50 48 47 48 52 60 53 41 34 34 58 91 83 88 89 91 71 52 53 60 57 61 46 25 18 15 18 17 13 10 8 8 10 8 6 5 4 4 8 11 16 19
65 61 64 67 63 64 67 46 30 31 52 87 92 95 92 97 52 56 68 60 63 62 39 24 19 19 19 14 11 10 8 10 13 11 7 5 5 7 12 17 20 24 22
69 70 69 66 68 70 39 24 35 52 88 96 98 98 85 51 61 69 59 68 58 34 26 22 22 17 13 11 10 11 14 15 13 10 5 6 9 13 17 20 20 14 5
65 56 56 66 68 34 23 36 61 97 98 100 99 53 54 66 63 65 70 55 32 27 25 22 15 13 11 12 13 16 15 14 10 5 7 11 14 18 19 15 6 6 16
60 64 73 38 22 30 47 75 99 98 91 75 62 65 64 66 70 73 50 32 28 27 19 15 12 12 12 15 18 16 17 10 5 7 14 18 16 11 7 6 8 17 24
76 54 26 36 51 78 100 99 93 86 81 68 56 72 64 75 73 44 32 30 27 17 15 12 14 14 17 20 19 20 12 5 7 16 16 9 6 7 8 14 16 21 17
33 36 55 81 91 86 74 84 85 64 49 65 80 62 82 71 42 34 31 25 17 16 14 15 17 21 22 22 22 14 6 13 18 12 8 9 8 14 16 17 20 17 75
89 79 73 68 67 79 82 80 53 58 84 71 68 86 68 42 36 32 24 18 16 15 17 19 23 25 24 24 17 6 14 22 11 11 14 15 16 16 17 20 20 91 100
62 65 80 80 72 58 48 46 71 72 59 84 83 66 42 38 33 25 20 18 18 19 21 22 23 23 24 21 7 11 21 9 10 16 18 16 15 16 20 26 94 98 96
77 71 62 51 50 54 58 67 67 73 89 78 64 44 40 34 27 22 20 20 21 21 22 24 24 24 22 9 8 19 9 9 14 18 19 16 17 19 44 94 97 96 98
54 70 80 86 84 75 78 74 69 89 74 66 47 42 35 28 24 22 22 24 24 23 28 28 29 25 13 8 17 9 8 12 16 20 28 25 23 74 100 99 99 100 100
60 75 79 81 73 62 57 89 79 72 64 50 44 38 30 26 23 24 27 29 29 36 38 36 28 14 9 19 10 8 11 16 16 23 21 31 94 98 100 100 100 100 100

GFSMW_500_rhum_036.txt.gz
RH
46 36 27 32 42 25 27 31 56 57 70 66 79 80 73 62 54 50 48 29 20 35 43 45 46 42 38 31 25 22 20 18 12 15 29 37 37 33 29 26 25 24 24
45 39 31 37 40 23 25 32 38 62 70 60 78 78 70 59 52 48 30 20 20 26 31 32 31 31 26 24 22 18 14 13 24 38 39 36 30 30 29 28 28 29 29
43 36 29 44 40 26 28 31 31 37 46 64 74 63 56 50 49 42 30 30 30 30 31 29 29 27 24 20 14 17 32 41 40 39 36 36 38 37 33 33 33 33 35
40 34 30 34 50 49 28 34 38 46 56 68 60 51 48 48 50 40 35 32 32 29 28 28 26 21 17 20 29 40 43 39 35 33 35 43 46 44 38 34 35 36 36
42 34 36 31 42 38 25 30 34 43 52 56 45 43 49 51 44 39 32 28 27 29 26 21 19 24 33 41 47 44 40 34 33 41 47 39 33 33 34 32 33 37 36
40 36 39 36 38 30 29 32 35 35 36 36 39 48 42 36 31 26 24 26 24 20 18 19 31 42 49 50 42 36 34 41 52 42 34 35 39 40 39 35 32 29 27
43 36 45 50 38 38 32 29 29 31 33 40 39 31 25 24 23 23 22 19 18 19 24 43 53 53 50 45 41 52 56 45 36 38 43 44 43 39 33 29 25 21 13
49 39 34 41 43 52 50 43 38 32 29 28 29 28 27 25 19 16 18 16 23 32 48 57 54 58 60 59 64 58 40 40 43 49 47 41 28 19 14 11 8 8 8
50 34 30 34 42 44 58 57 50 46 41 36 30 27 22 22 24 20 20 27 44 60 60 60 69 72 73 67 47 41 45 52 52 43 28 18 12 10 8 9 9 7 5
48 33 28 33 33 48 58 50 41 36 35 34 31 30 26 24 23 24 28 55 71 69 63 74 80 72 69 54 47 56 57 49 33 19 14 13 11 11 10 9 7 6 6
45 35 32 32 37 47 45 40 35 33 33 33 30 29 28 25 25 37 60 82 83 65 74 76 74 66 48 57 62 56 42 24 16 15 12 12 11 9 7 7 7 7 6
40 33 33 38 46 44 38 35 35 34 33 33 33 29 30 32 44 61 92 80 74 79 80 80 53 56 67 63 53 33 20 17 15 13 12 9 8 7 7 8 7 7 6
41 41 43 44 40 38 38 39 39 38 38 39 41 40 37 42 52 90 81 80 84 90 68 56 68 70 64 46 28 22 18 15 14 10 8 8 8 8 8 9 7 4 3
44 42 44 45 43 42 46 47 46 48 50 50 46 41 40 46 82 81 80 92 93 58 64 75 71 65 41 27 22 19 15 12 10 8 9 9 11 10 10 7 3 3 6
55 53 50 50 49 49 50 53 55 56 56 52 42 33 44 78 77 86 99 88 61 72 76 74 65 38 28 24 19 15 11 9 10 10 12 13 12 12 5 4 7 12 12
65 62 59 60 64 66 67 66 64 63 54 33 36 48 70 87 97 100 61 76 70 77 79 66 37 30 26 18 15 12 10 11 11 13 15 14 13 4 4 10 10 7 6
81 82 79 74 70 64 64 69 70 52 28 39 50 83 96 98 93 78 84 68 82 82 65 36 31 26 18 16 14 12 12 12 14 15 15 13 4 6 9 7 7 7 10
82 81 78 66 61 65 73 63 36 28 43 67 96 99 94 82 81 67 72 78 85 62 37 33 27 20 18 16 12 12 12 14 16 17 11 5 8 9 7 8 10 15 17
72 68 64 67 74 64 38 26 37 62 91 99 100 98 93 68 65 79 80 86 59 38 34 29 22 19 16 14 13 12 14 17 17 10 5 10 7 7 10 12 13 16 21
66 62 72 70 46 31 38 68 92 98 95 96 96 74 52 83 80 83 85 58 40 37 32 25 20 18 16 17 16 17 18 17 10 6 10 7 8 13 14 13 13 18 44
65 60 39 35 54 82 88 88 71 80 95 83 58 64 84 66 90 81 57 44 39 33 24 21 20 19 20 19 20 21 19 9 5 9 7 8 15 17 15 14 19 72 94
44 52 77 80 66 64 67 72 84 76 54 49 59 69 76 92 79 57 46 40 34 25 22 21 21 21 22 23 21 19 8 7 10 7 8 14 20 19 18 30 87 97 99
75 77 74 77 88 84 69 53 51 57 63 66 76 84 90 76 60 50 43 37 28 23 23 22 19 18 20 19 19 9 5 11 8 8 13 17 19 20 60 91 97 97 97
74 83 75 62 63 63 72 80 83 84 82 80 79 83 74 63 53 46 39 30 24 26 24 20 16 16 18 18 12 4 9 8 8 11 14 18 23 79 90 89 92 90 93
31 33 38 44 56 74 84 84 80 73 68 89 68 77 67 57 49 41 30 26 29 25 20 16 14 15 17 12 4 9 8 9 8 12 18 26 84 92 92 90 91 95 96
48 61 69 74 75 75 73 67 59 90 77 61 81 74 62 51 42 30 32 32 25 22 19 19 20 20 13 5 9 9 11 7 10 15 24 81 88 88 93 95 97 92 81

GFSMW_500_rhum_039.txt.gz
RH
24 44 48 49 39 26 38 37 25 32 53 77 63 73 71 82 83 73 60 56 51 36 24 24 25 28 30 30 30 30 27 26 23 19 17 18 27 41 40 36 33 34 36
17 28 47 50 40 28 32 44 28 26 34 73 67 74 66 80 80 69 57 52 46 36 37 37 38 36 32 30 30 28 23 17 14 20 32 42 40 39 35 36 43 49 44
12 20 43 48 44 29 38 42 27 26 34 46 66 71 56 76 65 56 51 51 48 46 46 40 36 31 28 26 22 17 14 19 31 41 43 43 40 43 49 53 43 38 39
12 15 37 46 41 31 43 42 26 28 33 34 41 48 66 69 53 49 51 53 47 45 34 27 26 26 20 17 13 21 35 43 47 47 50 57 57 56 48 40 43 47 46
14 14 36 51 41 33 41 48 45 27 34 41 49 55 65 56 46 46 51 45 36 27 24 25 22 18 18 18 30 42 48 54 54 59 66 66 53 43 46 44 46 45 32
17 16 34 48 38 33 37 54 36 27 31 34 40 44 48 41 41 42 37 27 23 24 23 21 20 19 24 39 49 53 61 70 72 72 66 52 48 52 53 47 39 32 24
22 18 38 49 41 38 53 48 36 28 31 34 35 36 35 31 29 26 27 25 23 21 24 21 22 28 44 54 61 70 73 72 75 67 50 54 59 49 35 24 17 15 12
24 18 56 53 44 60 59 55 53 37 30 28 26 24 24 27 31 27 24 24 25 24 23 26 33 51 62 66 69 70 73 72 52 51 64 55 38 21 13 13 14 13 12
20 24 61 49 43 49 60 64 66 56 47 45 44 41 35 30 29 28 28 25 25 26 27 34 49 69 67 70 74 77 64 52 66 65 48 29 19 15 16 15 14 11 9
20 52 61 47 39 39 52 55 60 62 57 47 35 34 34 32 31 29 28 28 28 32 37 49 63 68 74 81 75 54 62 71 64 42 26 19 18 17 14 12 10 9 9
48 64 50 38 35 38 44 47 58 59 49 39 37 33 34 32 31 32 32 36 38 37 46 62 73 83 89 68 59 72 74 62 38 26 20 19 16 12 11 10 9 10 8
64 59 49 40 38 43 44 54 57 47 40 36 36 35 35 36 40 43 42 39 35 46 62 74 89 92 61 68 77 77 61 36 28 23 19 16 13 11 10 10 9 7 7
58 54 45 38 38 40 44 51 46 40 39 39 40 41 46 48 49 45 39 34 46 66 87 96 89 65 74 77 78 58 34 30 25 18 17 13 12 12 10 8 7 7 4
65 52 42 41 43 48 48 44 44 44 45 48 52 53 54 54 51 34 30 50 74 90 94 78 78 72 79 79 55 35 31 25 19 15 14 14 11 8 8 7 6 3 3
61 58 54 51 48 49 50 50 51 54 55 57 59 61 62 48 29 33 61 88 92 86 82 74 69 78 82 56 37 33 26 20 16 16 13 9 8 8 8 4 3 5 6
62 58 56 56 56 59 57 56 60 63 61 61 69 65 41 29 39 86 92 89 84 83 66 77 84 86 55 39 35 25 20 18 16 11 9 9 9 8 4 3 6 6 10
71 68 66 63 62 63 67 66 61 58 64 74 61 31 33 64 98 95 97 95 68 76 84 87 86 55 42 35 25 21 19 15 13 9 10 9 8 4 4 6 7 13 16
80 77 76 75 76 72 65 57 57 66 64 36 29 53 94 100 96 100 91 60 87 78 90 87 55 44 36 27 22 20 17 13 10 11 12 8 4 5 7 7 13 15 13
92 87 83 77 69 62 60 69 63 35 31 51 87 100 95 93 100 76 65 81 75 94 85 57 46 37 28 23 21 18 12 10 11 13 9 4 5 7 7 12 15 16 27
86 79 74 68 66 73 66 41 35 51 86 99 91 79 99 90 55 58 72 88 96 81 59 48 39 28 26 23 18 13 10 12 12 10 4 6 7 7 10 15 28 61 92
77 71 66 65 61 42 40 72 87 79 77 75 84 81 55 54 62 78 89 89 77 60 49 40 30 28 23 20 13 12 13 13 11 4 6 7 8 9 14 29 77 88 93
58 60 64 48 49 79 79 67 81 89 77 58 59 70 71 78 84 85 80 77 62 51 40 32 30 25 19 12 12 14 14 12 4 6 8 8 8 13 27 72 86 88 94
62 61 78 81 78 77 82 73 66 69 80 85 86 87 83 77 86 72 81 66 53 39 34 32 26 15 10 12 13 15 11 5 7 8 9 8 12 21 75 80 87 93 90
79 81 74 70 57 51 52 58 68 83 88 89 80 71 85 72 72 86 69 52 40 37 34 26 15 10 11 12 13 10 5 6 7 9 8 13 20 74 80 86 87 85 79
45 33 34 42 51 62 71 78 78 76 77 73 76 89 57 76 87 68 51 43 41 35 23 12 11 11 11 11 8 4 7 7 9 7 12 20 72 89 88 86 77 66 51
33 42 57 66 71 73 71 69 76 79 82 92 77 54 76 88 70 56 50 45 32 20 13 13 12 12 13 8 5 8 8 10 7 11 20 72 88 87 81 67 42 23 22

GFSMW_500_rhum_045.txt.gz
RH
17 16 19 17 13 11 15 32 59 56 44 33 43 24 26 59 64 79 84 73 76 86 89 92 83 72 60 52 49 49 46 34 28 27 24 21 21 18 19 22 28 36 42
20 19 17 17 14 13 12 21 45 58 50 34 35 38 28 52 80 89 87 76 81 78 89 90 77 64 54 52 49 39 31 25 25 24 23 23 24 23 31 41 46 52 57
25 28 26 20 17 13 13 22 31 60 52 44 31 45 31 44 71 86 89 80 87 76 84 81 65 55 51 50 38 26 24 25 25 24 24 24 28 30 46 55 63 63 67
28 30 28 29 20 17 14 16 27 58 56 49 32 40 39 35 55 70 87 88 90 73 75 74 60 50 46 36 25 25 26 26 25 25 26 30 32 34 36 63 71 68 62
30 30 31 31 29 21 15 13 22 53 57 52 36 48 40 34 55 67 75 84 80 61 72 65 52 43 34 26 26 28 27 28 28 30 34 39 42 38 39 50 63 64 68
28 26 35 33 34 24 17 14 21 36 57 55 41 56 49 52 57 56 62 61 52 61 61 49 41 30 26 29 30 29 31 33 33 36 44 47 50 64 61 56 58 56 58
36 35 34 31 34 27 18 14 17 31 57 53 37 53 52 30 32 42 44 50 50 42 39 35 27 27 32 32 32 35 39 37 40 45 47 63 73 71 68 64 56 49 49
35 36 39 37 33 29 17 19 20 41 56 50 36 50 50 29 31 34 36 37 35 30 28 29 29 35 34 36 42 45 42 43 46 56 77 79 74 69 65 60 56 50 46
24 35 39 38 36 29 18 25 33 45 58 47 36 51 43 32 29 28 29 30 35 34 30 35 38 38 42 49 48 43 41 47 68 81 78 70 69 67 67 61 49 41 36
16 26 38 36 38 30 20 28 34 38 58 42 39 52 47 55 59 58 53 42 34 36 38 39 42 48 54 50 42 49 68 81 79 72 71 70 68 69 55 44 33 24 21
27 24 39 37 38 25 21 23 28 46 58 45 57 64 76 80 76 56 38 37 38 40 42 47 55 59 51 43 61 83 86 83 68 73 70 73 69 52 39 27 20 14 14
46 44 42 46 35 24 22 25 22 55 53 62 65 73 80 88 62 41 39 40 42 46 57 64 67 51 42 73 92 88 68 67 74 76 79 68 50 35 27 16 13 16 16
64 50 50 43 28 26 24 26 30 58 49 64 70 66 75 74 47 40 43 45 56 66 73 76 50 46 82 93 92 90 68 78 81 80 68 50 33 30 20 16 16 14 9
71 58 48 30 29 28 28 43 60 55 46 53 58 66 76 48 43 44 54 68 79 84 79 49 53 88 95 92 89 62 79 84 78 65 51 34 29 20 15 12 8 7 7
46 42 37 32 30 27 28 60 64 47 48 53 66 73 49 44 50 66 80 90 94 69 46 75 97 95 95 82 61 82 84 79 68 46 36 28 18 16 12 7 6 6 4
37 34 31 30 32 54 74 73 56 48 54 72 65 47 50 68 80 88 95 100 50 57 94 96 92 92 64 76 84 79 77 67 43 42 31 18 18 11 7 6 5 4 4
90 88 76 74 76 80 79 66 52 60 69 56 53 73 84 85 88 100 84 39 80 100 87 88 70 72 83 82 76 77 62 46 47 26 21 21 12 9 7 5 4 4 6
90 95 88 84 82 74 58 58 64 59 62 81 88 83 80 91 88 40 67 94 90 84 72 74 85 83 82 73 78 60 56 49 23 24 19 11 8 8 6 3 4 6 7
97 98 97 88 77 68 62 63 73 86 90 84 78 84 83 47 65 85 81 83 72 75 88 86 82 77 72 77 66 64 47 26 27 18 10 9 8 5 3 4 6 7 14
97 96 96 94 93 92 93 93 93 87 80 82 78 52 68 80 80 84 69 76 92 91 80 83 67 73 80 73 70 40 29 28 16 11 10 8 5 4 5 6 6 16 61
96 97 97 98 99 99 96 88 80 79 72 48 73 78 79 75 62 72 87 90 81 81 85 62 79 81 77 66 36 31 26 15 12 10 8 5 4 5 6 8 31 67 74
93 98 100 100 96 94 90 82 66 53 76 82 81 62 56 68 80 82 82 83 89 75 60 82 85 84 62 36 32 23 15 13 11 9 4 3 5 6 10 47 73 65 40
99 99 99 97 96 91 67 80 87 86 71 50 53 68 76 76 79 86 89 88 62 60 79 85 85 61 37 34 23 16 14 12 11 5 4 6 6 13 63 59 32 31 29
97 95 92 86 81 92 94 86 54 47 59 62 64 68 71 81 90 84 70 60 60 79 83 82 62 44 36 25 17 15 14 12 6 4 5 6 20 60 34 27 19 19 19
94 92 94 95 93 71 46 52 58 50 50 53 63 77 88 90 80 70 58 62 77 84 82 62 47 36 25 19 17 15 14 8 4 5 6 25 60 32 26 21 23 24 24
96 97 79 44 39 41 40 34 35 44 51 66 79 85 84 76 68 60 65 81 86 82 64 47 36 26 20 19 17 15 8 4 5 5 23 54 27 20 24 28 30 26 26

GFSMW_500_rhum_048.txt.gz
RH
20 16 14 17 20 19 17 15 16 42 66 60 52 48 36 32 38 36 43 51 90 98 90 77 81 92 99 93 84 74 61 51 46 42 39 27 26 25 24 24 25 26 27
23 21 19 19 20 23 20 18 14 19 41 64 62 53 45 32 45 46 61 89 96 96 92 85 86 83 96 94 76 64 54 48 42 34 25 26 27 26 26 28 30 31 36
29 29 26 23 20 19 17 19 17 16 18 22 43 56 52 36 40 44 45 76 95 99 95 90 92 78 86 86 71 59 49 45 31 25 27 28 27 29 34 35 34 38 40
23 31 29 24 22 20 19 19 18 15 15 14 20 53 56 49 36 49 40 58 88 97 97 92 96 86 73 75 68 54 43 33 26 28 29 29 31 33 34 44 43 45 56
22 22 32 28 24 21 23 26 23 16 16 12 16 41 61 52 34 45 60 64 79 84 100 97 92 90 62 66 55 39 34 26 30 31 32 36 37 36 36 33 59 71 75
33 27 26 34 27 25 24 24 26 22 15 13 17 45 63 55 39 52 62 66 74 92 97 96 92 57 57 47 34 29 28 31 32 36 41 40 39 35 32 42 62 65 67
34 37 31 28 33 28 25 25 23 26 18 13 16 42 64 59 49 64 68 68 71 74 71 65 53 49 39 31 29 32 34 34 41 44 42 38 35 55 66 67 60 57 52
19 26 34 35 30 28 28 30 26 29 20 13 18 30 60 59 45 67 64 37 36 45 53 48 38 30 33 34 38 35 37 47 47 45 36 45 70 75 66 62 54 45 53
17 13 20 33 39 31 28 34 34 30 19 14 17 27 68 58 43 66 47 31 32 35 34 34 40 34 38 40 37 43 53 52 46 38 62 77 70 62 60 57 57 56 49
31 20 16 21 33 37 35 41 41 29 18 16 19 43 69 56 46 70 63 61 65 59 54 40 37 41 41 42 53 58 57 48 41 69 83 85 63 65 63 62 63 57 48
42 39 23 17 25 36 38 44 42 28 17 16 18 56 66 53 57 81 92 91 91 58 38 40 43 44 51 62 67 62 49 43 77 83 85 60 68 69 66 64 56 46 45
39 39 21 18 27 32 40 45 37 22 18 18 32 64 64 57 79 98 100 99 72 43 43 46 49 61 72 76 65 47 59 89 85 74 61 76 69 67 64 53 49 39 27
56 41 27 16 46 36 47 44 29 23 21 20 43 67 60 82 94 89 83 90 49 44 48 56 68 80 85 63 51 80 93 86 63 74 78 70 68 62 55 53 32 30 15
54 36 43 24 69 48 48 36 27 24 23 35 64 68 76 98 91 72 88 56 45 52 66 78 88 91 55 63 92 93 74 70 82 76 68 70 63 60 49 34 28 13 10
58 44 34 60 75 54 40 29 26 26 32 62 77 69 83 92 69 85 55 45 60 77 90 96 89 49 85 98 85 68 82 81 74 69 72 65 63 39 34 20 12 11 10
56 72 87 77 52 35 32 33 29 29 58 82 74 67 68 67 84 48 48 74 89 96 100 61 60 99 97 72 75 84 79 70 70 73 70 57 37 32 15 13 12 10 8
92 82 54 42 38 37 33 30 43 74 89 83 69 67 75 73 48 69 85 94 98 78 50 88 96 80 74 86 82 80 66 72 75 73 46 38 27 15 15 12 11 7 4
58 45 39 36 35 38 50 67 88 95 90 72 72 76 54 66 87 90 90 77 52 80 90 85 73 87 87 80 80 63 72 78 72 45 38 24 17 16 14 12 8 4 4
99 90 74 68 73 81 91 98 98 98 94 74 61 71 90 90 87 76 56 79 84 82 70 82 87 81 85 75 62 73 77 68 50 39 22 18 17 14 10 8 4 5 11
86 90 95 97 95 97 96 96 96 80 72 94 98 90 87 76 57 82 81 73 61 73 83 82 84 93 66 62 76 77 66 49 35 22 20 18 14 10 7 4 4 20 61
95 95 94 90 93 93 93 97 98 98 97 94 83 65 55 82 80 61 53 70 80 80 85 90 85 60 61 74 74 63 48 31 22 20 19 16 11 6 4 5 29 54 32
98 98 98 99 98 98 97 95 95 89 75 57 68 88 77 52 49 65 78 76 78 90 87 69 59 64 76 73 63 46 31 24 21 20 18 13 6 4 5 32 48 20 17
99 85 84 88 91 95 97 96 84 73 85 88 73 47 52 60 71 70 70 85 90 77 66 60 71 82 76 62 44 31 25 22 22 18 13 6 4 5 39 40 18 19 23
99 96 92 90 90 86 80 85 90 85 58 48 49 44 49 55 62 77 85 84 73 64 62 76 80 75 58 41 30 25 22 18 17 13 6 5 6 45 28 18 19 22 20
93 92 91 88 90 93 88 60 43 45 39 36 38 43 51 65 75 75 69 67 63 68 79 81 74 54 37 29 24 18 17 17 15 7 5 7 44 25 22 26 25 17 17
94 96 99 96 63 38 35 33 31 36 40 41 47 57 70 68 64 66 66 65 76 80 78 70 48 35 27 19 13 17 18 15 9 4 7 42 25 28 31 23 17 17 26

GFSMW_500_rhum_051.txt.gz
RH
19 16 16 17 16 16 15 14 14 16 14 13 21 39 49 49 46 49 40 53 53 64 54 40 57 88 97 81 82 94 97 98 93 74 64 54 49 44 34 30 29 28 26
17 20 19 14 15 17 18 17 16 18 18 14 14 15 14 29 55 62 63 61 66 65 80 89 96 96 96 78 86 84 92 96 91 81 64 51 48 32 28 29 30 28 32
15 17 19 20 16 16 20 20 22 23 22 19 15 11 10 28 37 53 55 54 64 63 64 73 90 97 96 93 95 91 82 83 75 67 50 48 39 31 31 31 31 34 34
14 16 19 20 20 17 17 20 22 22 23 21 16 13 14 14 22 47 59 59 55 61 57 64 73 85 98 97 96 96 90 67 65 52 36 35 34 33 32 35 36 36 35
13 12 14 19 20 22 19 20 22 21 20 19 17 16 12 13 20 37 59 60 50 57 61 71 76 82 91 97 97 95 78 57 49 33 31 35 34 33 36 38 38 37 40
16 15 15 15 20 21 21 22 21 23 20 18 19 17 13 14 18 31 63 61 51 62 60 70 73 96 89 91 93 72 55 43 31 31 36 36 37 40 40 37 40 43 62
16 21 23 27 23 25 22 25 25 25 26 26 25 20 17 14 14 31 68 70 65 66 71 82 86 80 89 70 65 52 36 34 35 37 39 46 48 47 42 40 43 49 62
17 10 17 26 29 32 32 26 30 29 32 33 29 25 19 15 15 29 63 73 67 55 70 62 56 43 43 52 39 37 37 46 40 42 52 56 52 44 45 54 56 58 53
28 14 11 14 23 28 34 36 34 34 36 35 28 30 24 16 26 30 55 69 56 50 68 44 38 38 43 49 48 39 44 43 48 57 64 54 47 58 67 68 58 50 46
48 42 26 16 15 18 29 36 41 41 43 38 37 35 25 16 42 34 60 69 60 74 87 77 77 77 64 45 41 45 46 55 66 70 53 52 68 75 66 57 62 60 52
76 73 60 35 17 17 28 33 41 42 43 42 44 37 25 17 31 46 69 71 66 86 100 100 100 70 43 44 47 53 68 76 72 51 66 80 73 62 62 66 60 52 49
88 79 69 77 48 23 18 33 40 45 46 44 49 36 22 20 22 58 77 66 74 99 99 99 92 48 46 50 64 80 88 66 53 79 82 68 66 72 66 58 54 53 50
78 86 71 73 73 38 30 23 50 50 52 51 48 32 22 24 40 74 76 68 98 100 92 96 59 47 52 74 89 90 55 65 88 78 69 76 74 64 57 56 54 47 35
82 94 61 65 65 62 30 21 59 58 54 55 40 28 25 33 54 81 70 85 100 92 91 69 49 58 85 92 85 54 89 87 73 76 79 76 62 59 58 54 44 29 20
82 100 95 91 72 61 36 34 73 68 58 43 35 29 34 46 76 80 78 98 84 84 70 49 69 97 91 68 71 93 79 74 86 80 77 61 62 60 52 38 24 18 12
59 75 74 78 83 58 38 70 78 60 44 43 43 41 42 73 88 81 88 80 86 66 52 83 98 83 59 94 88 72 84 86 84 71 61 65 59 46 33 22 14 12 10
60 41 34 34 36 60 80 78 56 45 46 56 41 44 75 92 88 77 78 91 57 65 96 88 64 87 93 74 76 87 84 86 62 61 66 58 44 31 22 13 9 9 11
97 95 90 88 91 91 64 51 52 46 61 47 55 87 97 92 82 91 73 57 92 92 72 80 95 81 73 84 84 87 75 59 65 68 58 42 27 19 10 6 6 9 9
53 59 71 69 55 51 50 50 48 45 44 69 95 98 94 94 78 63 92 97 83 76 94 84 69 83 80 87 87 65 60 67 68 56 37 25 12 8 6 5 7 8 4
98 89 54 55 58 59 72 99 70 67 97 99 92 87 78 70 97 98 89 76 92 80 64 82 81 80 90 75 64 62 71 64 49 33 21 9 7 6 6 6 6 4 20
100 100 100 95 97 77 84 93 99 96 86 81 82 91 98 97 76 82 92 73 63 75 76 74 84 90 73 63 65 69 63 47 26 12 9 8 7 7 8 5 4 28 27
98 98 99 96 84 81 81 85 92 95 97 98 97 84 77 92 82 60 58 63 61 60 72 81 77 67 63 69 70 65 44 30 14 9 8 7 8 8 4 5 31 21 23
98 96 96 97 97 97 97 97 96 95 92 90 93 92 62 51 51 46 46 51 61 72 73 68 65 66 72 71 63 42 33 21 8 8 8 8 7 4 6 32 21 28 21
98 98 98 96 92 91 88 86 87 92 93 72 47 44 41 38 38 42 56 65 66 65 67 65 72 76 75 62 42 36 28 11 8 8 7 6 4 5 32 28 30 19 17
95 100 97 90 86 89 95 94 70 47 42 38 38 40 42 44 49 65 73 71 66 66 68 75 77 74 58 42 37 27 13 9 9 7 5 4 5 33 32 33 19 19 23
92 96 96 94 95 75 44 42 37 37 41 45 45 43 46 57 68 73 71 65 65 74 78 78 73 55 44 38 27 16 11 10 9 5 4 5 30 33 37 25 22 26 38

GFSMW_500_rhum_054.txt.gz
RH
14 13 13 11 12 13 14 15 14 12 12 12 13 13 21 10 14 34 55 56 59 59 57 56 55 55 61 75 71 66 97 94 79 80 84 91 96 83 75 66 54 50 39
11 12 11 11 13 13 12 13 17 15 14 13 13 15 28 19 13 14 30 49 64 66 64 59 64 71 78 95 94 97 96 96 86 81 81 83 73 73 59 48 48 47 36
11 12 12 13 14 13 14 14 16 19 16 16 15 14 17 16 14 13 14 26 51 64 67 68 67 69 78 81 82 91 95 97 96 96 91 84 66 62 48 36 42 37 35
12 12 12 11 12 12 15 15 18 20 18 19 18 16 20 20 21 34 35 23 29 45 67 69 64 61 66 63 67 81 90 91 97 97 94 86 57 47 32 39 39 37 43
14 13 12 12 12 11 13 15 16 21 20 19 19 18 20 31 23 22 22 20 27 27 54 70 67 60 62 65 73 85 88 90 86 81 62 52 40 32 43 40 41 46 46
10 12 13 13 13 14 13 14 16 18 25 18 21 21 20 25 23 20 18 18 19 19 52 74 72 75 78 82 87 97 93 99 62 57 44 35 38 55 41 39 49 47 48
11 11 10 10 12 19 21 15 16 20 23 27 22 27 25 25 24 21 19 18 22 24 52 73 73 72 70 73 60 77 47 46 40 37 41 42 47 40 49 51 47 43 52
12 12 14 15 19 16 11 22 20 21 29 27 30 30 29 27 25 23 21 21 26 25 41 75 74 70 64 65 44 41 45 54 58 46 42 43 45 63 64 52 45 54 58
12 14 24 29 32 33 28 14 24 27 33 33 34 32 34 32 29 27 24 22 25 26 43 69 71 66 82 81 81 88 84 56 43 45 47 56 77 69 52 60 69 50 29
31 25 18 20 22 19 34 35 14 25 39 42 33 38 45 40 36 32 26 25 27 42 44 71 74 75 95 95 98 98 62 46 50 50 64 82 64 51 75 70 57 61 61
30 50 62 51 49 53 47 35 34 19 34 43 38 48 55 48 43 36 31 27 28 45 59 78 78 86 100 99 97 91 55 51 54 78 82 60 60 84 67 65 73 70 58
60 59 72 76 73 80 90 55 49 18 25 44 59 59 62 54 50 42 34 32 32 56 82 82 76 93 98 94 92 68 55 63 89 81 57 77 81 67 74 74 70 56 52
48 51 44 39 46 68 98 66 52 19 21 54 80 72 64 60 55 46 35 31 36 57 87 76 73 100 97 94 80 56 74 90 78 61 87 75 76 78 77 64 56 52 45
52 27 55 62 59 74 86 75 40 27 29 58 79 83 70 64 58 45 32 36 46 90 86 72 99 97 99 76 58 88 92 72 76 86 75 81 81 74 59 57 52 43 28
34 39 81 96 82 85 95 89 40 46 44 64 75 87 74 61 52 37 39 44 84 94 80 97 95 94 81 66 97 93 69 91 80 82 82 81 64 60 57 51 40 21 8
48 40 58 100 100 96 94 100 60 45 61 68 78 98 72 56 46 38 52 82 97 89 89 83 87 80 85 99 84 81 89 79 83 86 75 62 62 58 53 29 9 8 7
66 34 51 97 97 97 97 71 42 47 81 76 94 96 79 72 64 64 79 100 98 85 81 91 80 98 98 82 91 75 86 83 87 68 62 63 62 52 22 8 8 8 8
83 49 31 38 45 64 64 42 56 88 84 89 91 78 88 84 72 100 100 95 85 86 93 95 99 95 95 76 80 82 85 82 67 63 64 66 52 33 12 9 9 9 9
75 90 78 66 62 56 63 83 88 77 78 86 96 96 94 90 98 99 92 90 94 96 99 97 99 74 76 79 79 85 71 65 65 71 67 49 35 21 11 11 12 10 7
48 54 87 90 94 86 76 70 75 69 86 93 100 71 75 100 96 100 100 97 99 97 99 72 70 65 68 75 66 66 64 64 68 63 47 35 29 14 13 12 9 8 5
88 60 53 54 58 66 66 67 79 60 88 87 89 86 100 99 97 98 98 97 94 68 62 52 59 66 62 63 65 64 68 67 58 43 37 29 17 14 12 11 9 5 12
98 97 97 89 96 94 99 97 98 99 99 98 98 96 100 98 97 97 81 64 56 47 54 63 59 59 64 64 67 69 67 56 44 36 25 19 15 12 11 10 4 15 29
82 88 99 100 97 98 98 98 84 94 98 98 98 98 97 83 61 61 53 46 48 57 66 65 64 64 63 67 70 66 54 45 34 24 20 15 13 10 8 4 13 32 32
82 87 87 89 96 97 97 98 98 98 97 97 86 58 56 56 50 46 47 54 60 67 68 64 64 68 72 72 64 52 43 33 25 19 15 15 10 7 4 12 35 36 24
84 82 82 90 88 92 96 97 98 82 57 51 49 50 50 48 48 49 57 66 67 64 63 65 71 76 73 62 50 40 30 24 18 13 13 10 6 4 10 37 39 27 30
98 92 91 95 99 99 81 52 47 46 45 48 51 53 65 74 71 69 67 65 63 63 68 73 74 68 57 48 40 30 24 18 14 14 10 6 4 8 37 42 32 37 43

GFSMW_500_rhum_057.txt.gz
RH
14 13 13 13 11 9 7 12 12 12 14 23 15 16 27 21 14 20 24 27 42 54 59 59 59 59 69 62 67 72 80 89 94 92 93 87 96 86 82 75 75 72 63
14 13 11 10 10 11 12 11 11 11 11 21 26 18 21 30 39 31 33 30 24 26 33 47 63 79 70 67 73 83 78 72 79 88 96 98 97 96 95 94 81 61 51
9 8 10 11 11 11 12 12 12 14 13 12 18 26 32 35 31 43 34 27 20 28 37 40 57 56 55 66 70 69 64 58 66 77 88 90 99 96 87 90 86 49 35
10 10 10 10 11 12 12 12 13 13 13 16 15 14 18 30 35 19 27 42 47 53 51 46 36 39 51 63 71 66 77 74 72 96 95 90 80 65 56 46 36 37 51
9 9 11 12 13 14 13 12 12 12 12 13 14 17 20 28 34 45 53 52 49 56 63 41 46 42 50 67 72 80 78 79 93 98 96 86 48 41 37 38 48 55 41
12 14 14 14 13 13 13 14 15 14 14 13 12 13 18 25 37 48 54 50 52 45 49 32 32 31 47 71 79 84 79 74 52 51 44 40 41 52 56 50 43 46 69
14 12 10 9 12 16 13 13 13 16 18 16 15 13 14 27 35 48 54 54 44 39 36 32 27 29 37 62 84 85 74 73 62 57 68 71 63 52 44 44 45 57 67
11 9 8 12 11 10 11 14 15 17 16 18 19 16 14 27 47 52 56 58 59 52 30 26 26 30 30 62 79 77 74 89 88 86 90 66 47 48 49 54 67 62 52
9 13 20 18 14 10 11 12 19 22 22 20 19 27 22 31 47 64 72 64 61 44 28 27 28 32 37 67 74 73 71 80 98 97 94 62 58 57 69 79 65 54 54
16 20 23 24 20 18 17 20 19 23 19 24 25 24 36 48 61 67 73 56 38 32 30 30 34 43 54 72 77 79 90 100 97 88 73 62 63 84 88 67 67 64 48
30 31 32 32 31 27 28 30 24 30 21 17 23 25 40 53 79 73 70 44 41 36 34 40 38 53 55 76 80 70 97 99 94 88 73 64 92 92 68 79 66 74 66
54 55 54 53 51 52 48 43 44 50 52 40 25 30 25 62 81 79 63 51 46 41 38 41 48 48 64 82 79 82 99 96 96 83 70 98 87 77 80 70 77 70 61
50 42 48 54 39 28 38 41 36 36 66 61 42 38 24 57 74 79 71 57 52 44 51 49 41 58 79 84 77 100 94 96 80 87 99 87 88 74 75 77 69 62 61
46 50 48 42 24 48 65 59 63 65 61 96 79 33 22 49 74 87 75 66 57 66 72 50 60 72 92 85 100 95 95 88 99 98 94 91 75 78 79 67 61 60 57
53 51 41 20 37 58 80 66 86 98 96 100 80 27 24 60 75 84 78 72 73 97 50 60 85 100 86 100 93 94 96 99 99 96 82 76 74 75 64 60 56 57 50
73 56 21 29 65 62 84 93 92 99 100 78 38 28 57 77 83 86 84 69 95 61 58 94 90 84 100 87 99 97 98 98 95 81 76 77 69 63 59 58 58 49 36
69 68 30 57 75 94 98 100 100 89 74 45 42 60 81 94 86 93 98 69 97 55 78 73 100 94 94 99 98 99 96 81 79 81 73 66 62 59 62 57 43 35 25
70 80 37 53 96 91 95 91 83 68 40 46 74 88 98 98 92 98 90 86 50 64 100 94 88 100 96 98 98 81 76 80 78 66 64 59 61 63 54 42 29 18 12
65 81 71 40 51 72 62 42 35 35 64 87 91 92 100 99 99 90 56 91 98 100 86 100 97 96 100 81 67 70 71 68 65 61 61 66 62 52 40 27 15 10 10
47 76 81 84 69 46 48 64 76 82 85 90 88 94 97 93 76 88 81 70 87 97 99 90 99 79 60 66 70 68 66 63 61 70 68 60 48 37 26 18 12 10 8
65 51 57 82 83 85 93 93 90 93 99 98 97 79 92 99 100 100 100 100 98 92 95 70 59 58 66 71 68 62 61 62 69 68 59 44 32 23 17 13 10 8 7
96 76 77 84 90 83 97 100 98 97 98 88 97 98 100 100 98 98 98 96 85 64 59 57 62 66 72 66 62 63 64 65 62 54 41 30 21 17 14 11 10 7 4
82 95 87 97 97 97 98 99 99 100 98 99 97 99 98 98 98 91 72 64 56 54 57 63 69 67 62 62 64 65 66 59 48 37 25 18 18 17 14 11 6 4 29
75 79 93 100 99 99 98 97 98 94 96 100 100 100 87 64 61 56 51 52 60 67 69 67 64 64 64 64 67 64 54 43 31 23 22 20 18 13 9 5 5 31 41
77 80 77 81 91 98 100 100 100 100 98 94 80 63 56 53 58 74 81 78 74 70 68 68 68 68 67 65 58 47 37 27 24 22 18 15 12 9 5 7 33 43 36
92 88 82 84 80 82 88 90 71 50 46 46 52 61 86 98 94 83 78 77 73 73 72 68 66 64 58 49 42 34 29 24 20 15 12 13 10 5 8 37 47 41 35

GFSMW_500_rhum_060.txt.gz
RH
12 9 9 10 11 9 8 8 6 5 28 40 45 54 61 41 25 28 32 18 21 31 28 28 28 33 43 54 59 76 71 70 75 76 74 73 73 78 82 98 98 97 97
14 14 13 13 12 12 10 9 9 7 7 14 22 30 36 46 60 62 42 40 43 40 39 34 32 28 31 46 62 63 59 61 72 63 58 64 74 70 87 90 96 98 82
15 15 14 14 14 13 12 10 9 9 8 9 12 24 41 46 54 62 59 79 60 60 62 58 43 41 52 45 55 46 49 63 68 66 75 73 79 99 96 93 89 81 63
15 16 15 15 11 10 11 11 10 10 10 11 12 16 20 27 21 25 37 46 50 58 68 68 68 70 77 61 62 52 49 63 70 79 78 78 78 86 82 93 49 44 43
16 15 12 10 10 10 10 10 11 12 12 12 13 12 13 19 27 27 43 58 62 81 83 81 80 86 77 65 44 44 48 59 67 72 74 67 59 45 39 42 50 64 66
15 12 10 10 9 9 9 10 12 14 14 13 12 12 12 12 14 20 24 41 58 67 84 86 80 76 72 59 39 35 45 48 67 73 70 56 64 67 70 76 70 55 55
11 10 8 7 7 8 11 13 13 12 12 12 11 10 12 13 13 14 22 40 60 77 84 86 81 76 74 53 39 30 32 45 69 68 70 56 72 77 81 87 71 60 59
8 7 6 7 10 13 12 11 10 11 11 12 11 10 11 15 18 19 22 44 58 69 80 82 83 83 77 59 34 30 34 58 61 68 70 64 92 76 79 68 62 61 62
7 11 12 11 11 10 9 10 12 15 11 11 12 14 17 14 14 25 25 35 60 71 76 83 90 96 88 64 32 32 43 69 65 72 67 66 82 86 84 76 69 62 68
11 10 9 8 8 8 9 11 12 16 18 13 12 12 17 22 23 26 33 47 57 79 88 91 99 97 80 40 34 54 42 54 95 80 68 76 87 87 87 71 74 89 76
13 17 22 24 25 31 37 38 36 36 30 28 25 22 20 30 46 41 58 55 67 80 90 94 96 76 40 41 46 42 46 47 78 76 74 94 95 86 77 83 93 88 77
23 20 18 18 33 42 40 38 39 38 45 66 55 43 29 17 59 69 76 59 81 84 86 88 77 44 42 53 47 49 47 55 78 71 94 97 96 84 88 96 95 76 74
18 18 35 50 46 41 39 35 40 35 30 31 72 61 61 52 53 70 72 53 70 95 90 76 55 51 57 61 55 94 63 87 67 86 99 93 89 92 98 90 72 72 67
26 45 46 57 44 26 17 20 27 44 44 46 48 57 85 86 57 50 57 43 56 95 82 67 63 59 83 92 64 68 69 71 92 99 92 92 94 100 83 68 66 65 63
48 42 59 52 24 25 31 50 47 50 73 61 76 83 94 99 60 39 24 44 53 72 74 72 65 57 88 55 63 60 76 94 97 83 91 95 97 73 60 59 63 60 59
49 55 62 24 28 39 46 56 41 61 67 100 94 88 98 91 46 27 53 47 65 80 75 70 94 97 72 54 65 94 100 92 95 92 94 85 64 55 60 60 60 62 62
51 59 58 18 40 36 50 70 68 99 93 96 100 77 96 79 43 76 47 61 82 80 78 93 96 98 99 94 100 98 88 98 89 94 65 56 57 60 59 62 66 64 49
49 54 59 22 26 45 48 54 54 68 92 100 99 68 53 55 99 94 99 96 92 79 94 98 88 74 98 100 95 93 94 92 67 55 56 61 61 60 65 66 57 43 33
55 50 59 24 24 54 60 55 60 54 49 42 43 49 80 98 99 98 100 99 99 100 100 79 94 98 94 96 99 96 72 55 58 63 62 58 61 71 64 49 38 28 20
65 47 62 60 31 29 31 35 38 49 68 82 93 94 98 99 99 99 99 73 68 77 99 100 100 98 98 97 70 58 51 65 66 62 61 65 64 56 45 32 23 22 18
47 41 62 78 66 71 70 66 67 80 90 94 97 99 99 99 98 98 73 82 91 100 97 97 96 95 71 57 52 66 69 63 65 70 73 65 52 41 29 24 20 14 10
69 73 72 76 72 67 81 96 98 97 98 100 100 100 100 100 100 99 100 100 88 95 97 83 71 57 61 80 75 64 64 65 65 65 56 44 34 26 21 16 13 9 8
65 75 73 82 84 92 87 74 92 95 98 92 80 79 80 96 96 93 99 99 93 80 70 70 86 91 70 67 68 67 64 62 56 47 40 31 24 15 12 10 9 6 5
62 72 89 84 84 88 92 95 92 87 98 98 98 97 98 98 91 67 71 72 77 90 96 86 74 72 72 70 66 64 58 50 44 36 29 19 13 10 8 7 5 6 27
83 75 79 93 97 96 94 96 97 98 99 100 100 96 86 84 87 82 89 90 84 81 81 78 76 73 67 66 60 54 49 40 33 27 20 12 8 7 6 5 6 35 41
86 81 84 84 100 100 100 99 97 96 85 75 69 60 69 86 87 83 75 77 84 85 80 76 70 68 62 57 53 45 38 32 22 14 9 8 7 5 5 8 39 41 43

GFSMW_500_rhum_066.txt.gz
RH
13 11 9 9 7 7 8 9 8 10 8 8 9 11 18 21 25 51 63 67 64 50 33 32 29 48 50 26 24 34 30 24 25 28 31 38 38 47 53 50 52 55 58
11 10 7 8 9 7 8 8 8 9 8 8 9 8 10 11 16 38 62 70 72 80 80 75 66 57 53 53 56 55 48 54 45 38 54 53 58 53 52 46 52 56 58
10 9 7 8 9 8 8 8 7 6 6 8 11 10 10 10 11 25 54 61 63 77 88 88 86 85 82 87 89 88 87 79 85 87 67 76 63 54 46 42 43 54 60
9 8 8 8 8 9 10 9 8 8 7 8 9 11 11 12 13 17 21 34 34 50 69 70 70 67 71 80 81 89 96 96 97 96 96 88 83 53 43 38 40 46 49
7 8 7 8 9 10 12 12 11 11 10 9 9 10 13 12 13 13 14 15 15 23 43 56 71 62 63 76 76 78 90 97 97 98 98 96 81 59 52 33 37 45 43
8 11 12 11 10 12 13 14 14 13 12 12 11 11 10 7 9 11 11 12 13 19 38 55 64 69 65 61 68 73 74 81 96 97 97 97 95 80 54 33 27 44 45
12 14 13 13 13 14 14 15 15 15 15 15 14 12 9 8 8 9 8 12 15 16 31 27 47 57 58 54 63 70 71 79 91 97 97 97 97 94 78 32 30 45 48
15 15 16 17 17 19 18 18 17 16 15 13 12 10 9 8 8 7 6 7 13 14 22 46 55 68 64 50 52 69 78 79 79 84 92 95 96 97 93 39 48 44 61
22 21 20 19 21 21 20 18 17 15 14 12 11 10 9 8 6 6 7 9 11 11 14 51 52 84 87 73 69 70 90 85 80 74 86 96 100 96 54 50 51 47 44
21 21 20 20 20 18 17 16 15 13 11 10 9 8 8 8 10 10 10 9 10 11 14 22 57 58 91 81 74 67 75 70 84 81 86 92 99 94 80 62 51 54 51
15 14 14 13 12 12 11 10 9 10 11 11 11 11 11 11 11 11 12 12 16 19 18 17 25 66 78 78 82 81 78 79 73 77 85 97 96 64 58 92 91 61 66
13 12 12 11 11 11 10 10 9 9 11 14 17 24 26 26 25 28 28 27 25 24 26 23 19 29 34 48 42 47 72 70 91 98 81 94 63 71 83 97 96 82 85
12 10 10 10 11 12 13 15 18 20 23 29 30 30 33 48 59 62 47 48 50 50 37 33 21 22 23 24 28 52 84 73 69 79 97 80 64 86 99 95 77 99 99
16 14 19 20 16 18 20 20 25 32 36 28 21 19 20 21 22 30 43 59 67 76 72 50 29 25 43 44 49 91 89 80 95 95 80 67 99 99 94 99 100 100 100
27 21 16 26 28 25 30 34 22 20 21 22 27 27 24 26 32 42 54 40 85 98 90 67 43 46 52 57 66 90 72 96 87 82 66 88 99 100 98 100 100 100 95
29 25 28 34 38 19 10 9 12 26 27 34 40 39 50 41 43 43 87 50 54 88 98 69 46 35 51 81 71 80 97 76 99 92 97 100 97 99 99 100 94 94 83
37 30 36 39 35 19 20 17 17 22 37 43 38 65 45 46 86 100 100 86 74 92 98 96 82 72 70 54 94 78 98 99 81 94 99 98 99 91 99 97 83 91 89
34 32 34 46 37 23 24 29 25 22 23 24 33 64 92 84 100 99 94 98 81 96 100 98 93 82 45 80 95 92 100 98 98 100 93 96 100 100 89 82 86 72 62
37 39 39 43 48 37 31 39 44 45 36 36 34 41 85 85 88 83 100 100 100 100 100 84 45 96 89 96 100 99 98 99 98 99 96 92 92 92 84 73 59 49 41
39 45 45 46 53 51 49 46 44 51 50 53 68 73 61 78 84 94 96 78 53 60 100 93 96 98 99 99 100 100 99 98 92 91 94 89 77 72 58 48 38 36 33
42 35 48 49 58 57 53 55 52 46 56 63 65 85 87 85 92 97 99 100 99 96 98 99 97 95 99 100 100 97 92 98 96 93 82 69 57 48 37 34 33 30 27
49 41 55 55 54 56 62 62 72 68 60 69 69 80 80 80 91 91 97 98 99 98 99 100 99 99 100 93 90 97 97 96 92 70 56 46 37 35 34 32 29 23 16
59 53 57 56 59 64 60 57 70 77 76 69 72 75 74 76 77 90 100 100 100 100 99 98 98 99 96 89 90 93 79 64 54 43 36 36 35 34 31 23 14 10 9
64 62 57 57 59 60 59 62 77 77 85 83 84 86 88 93 92 93 96 97 96 98 99 91 83 82 85 76 65 58 49 40 37 36 35 34 30 22 16 12 10 6 4
73 65 59 74 69 65 64 64 68 75 79 80 79 75 77 79 82 88 99 98 89 82 78 74 71 67 62 56 48 40 38 38 38 36 30 23 17 10 7 5 4 4 7
79 86 67 75 74 76 75 74 66 58 50 49 55 72 81 85 90 97 94 82 76 75 72 66 60 57 52 42 40 41 40 40 34 27 19 11 6 4 3 3 5 20 37

GFSMW_500_rhum_069.txt.gz
RH
15 12 11 10 9 9 10 10 10 10 9 10 11 26 32 42 40 41 40 45 48 65 68 67 62 48 37 41 40 41 45 51 46 46 46 43 45 37 42 47 48 43 38
14 12 10 8 7 7 7 8 9 10 10 10 12 9 9 28 33 31 38 41 37 40 73 78 79 82 77 77 81 73 75 83 79 78 82 72 75 85 67 62 58 49 40
15 14 12 11 10 9 7 7 9 10 10 11 11 10 10 10 10 13 12 17 17 26 49 70 68 68 76 74 70 76 76 71 72 73 85 98 95 98 94 78 76 59 42
14 13 12 11 10 10 8 7 9 9 9 11 10 9 9 11 14 14 14 12 13 14 30 54 50 55 57 59 62 64 69 63 83 78 86 89 91 95 98 97 90 72 55
9 9 9 10 9 9 8 8 9 9 8 9 8 9 10 11 12 13 14 14 15 16 23 29 24 27 33 42 45 68 79 78 76 75 82 81 78 86 97 97 98 96 92
7 6 6 6 7 8 8 8 9 9 8 8 9 10 12 13 14 16 16 16 16 16 27 30 34 50 36 39 50 61 69 72 66 76 82 84 75 82 91 94 90 93 88
9 8 7 7 7 7 8 9 10 9 9 10 10 10 12 13 15 16 14 13 13 13 13 22 28 34 47 49 57 62 61 71 79 77 78 82 82 86 94 86 86 85 86
10 9 9 11 11 12 11 10 10 11 12 14 14 14 14 14 14 15 13 11 10 11 12 16 26 34 45 57 64 73 74 78 82 80 80 86 88 89 81 77 98 89 88
11 12 11 10 11 12 12 13 14 15 16 17 17 16 16 15 15 14 13 11 10 10 9 10 18 47 49 61 81 83 85 86 91 88 74 74 95 86 74 76 96 93 98
15 15 15 14 15 16 17 18 19 20 20 19 18 16 15 14 13 12 11 10 10 9 9 10 14 23 44 64 77 82 91 88 90 91 77 81 81 79 82 82 80 87 91
18 17 17 17 17 17 16 15 14 13 12 11 10 10 10 10 11 12 12 12 13 13 14 15 16 18 24 26 46 55 52 82 86 86 72 79 85 92 94 92 100 99 89
23 21 20 18 15 12 10 11 11 11 12 12 12 12 12 15 18 20 20 21 24 26 24 24 27 26 28 31 30 24 26 40 82 66 44 58 87 89 98 96 100 99 87
15 14 12 11 11 11 10 10 10 11 12 14 18 21 27 35 43 46 48 52 52 51 51 52 46 48 51 41 31 31 25 34 41 33 52 78 100 83 95 95 100 81 84
13 12 12 11 10 14 16 17 19 19 20 19 18 16 17 19 17 17 25 32 35 28 41 62 70 69 67 60 50 45 37 33 50 58 78 100 91 100 99 93 85 94 99
12 11 14 18 16 19 22 19 14 12 12 12 13 16 21 28 28 32 42 49 48 38 31 37 64 76 82 80 78 86 73 84 73 74 94 100 98 96 90 92 97 94 99
22 32 25 17 24 23 20 17 14 14 14 15 16 20 30 40 47 35 24 43 51 64 67 52 69 95 100 100 100 89 100 93 81 98 100 100 100 91 98 98 99 100 98
33 29 23 24 24 28 21 18 24 15 15 18 20 25 28 27 34 18 32 67 92 100 91 78 98 94 96 99 90 100 100 99 71 67 93 93 91 99 100 100 100 100 94
36 33 25 25 30 32 26 23 25 20 17 31 35 26 31 33 24 35 63 94 98 96 96 86 89 98 100 95 100 83 77 60 98 99 100 98 99 100 96 91 93 96 93
44 33 33 33 32 36 33 30 33 28 31 36 45 36 45 40 56 52 68 94 89 95 92 100 93 100 100 94 66 76 83 82 94 100 99 98 98 98 97 97 94 72 48
46 43 38 42 40 42 45 44 38 34 44 47 50 45 60 61 61 80 92 98 95 97 99 98 94 93 74 89 100 99 99 98 99 99 98 98 98 99 86 54 40 33 33
57 49 42 36 47 51 52 55 57 52 49 58 54 51 54 54 68 83 89 93 99 100 95 100 99 100 99 97 96 99 100 98 96 92 92 86 63 48 37 33 30 21 14
55 52 46 59 59 54 57 52 57 57 63 65 60 60 65 66 70 72 73 85 96 100 100 99 100 99 99 99 98 92 88 88 81 71 57 44 37 34 29 23 16 11 8
53 68 59 61 51 53 58 55 54 68 79 72 66 74 75 72 78 85 88 91 94 96 96 95 90 82 76 73 73 76 70 64 55 43 39 35 28 20 15 11 9 6 4
58 73 63 56 56 53 54 65 63 76 84 84 87 73 68 76 80 82 89 96 93 88 81 74 71 71 71 68 65 60 53 44 42 39 34 26 19 14 9 6 4 3 3
65 77 72 66 63 63 64 65 72 70 68 66 58 58 68 79 84 87 92 93 82 73 70 69 68 67 63 60 56 50 47 45 42 36 28 21 11 7 6 4 4 8 16
72 85 89 81 71 72 76 77 71 59 52 49 59 72 81 84 88 88 87 84 80 76 70 66 64 61 59 57 52 49 49 47 39 31 21 11 8 5 4 9 15 17 25

GFSMW_500_rhum_072.txt.gz
RH
21 14 12 13 12 12 14 14 18 16 13 12 14 14 12 16 29 45 46 47 56 55 56 46 44 63 71 70 65 53 51 61 66 61 68 60 64 70 82 85 86 95 83
17 14 13 14 12 11 10 11 11 11 11 11 11 11 12 11 15 11 16 33 57 54 44 42 47 47 70 78 77 78 77 78 78 76 62 54 62 77 74 87 98 92 96
16 15 12 12 12 13 12 12 12 10 9 9 11 11 10 12 12 12 13 14 24 39 30 37 43 35 48 66 69 64 62 64 65 61 56 56 60 76 77 79 80 76 90
16 15 15 13 11 11 11 12 11 10 8 7 10 10 11 12 13 12 12 13 13 12 17 28 44 62 69 75 72 61 50 36 40 43 59 64 59 63 64 78 77 70 74
17 16 15 13 12 11 11 11 11 10 9 7 8 10 10 11 12 11 11 12 12 14 15 20 47 55 42 58 68 58 45 27 27 39 47 46 55 62 63 63 79 74 67
16 15 14 13 12 12 11 10 9 9 8 7 7 9 9 10 11 14 14 13 14 16 14 15 24 42 44 47 52 55 60 65 59 58 61 55 57 61 72 67 68 76 74
11 10 10 9 8 7 7 7 7 8 8 7 7 9 10 11 12 15 17 17 18 19 20 20 18 19 32 36 44 56 61 63 69 75 73 75 68 70 78 78 80 76 88
12 11 10 9 8 6 5 5 5 6 7 8 10 11 12 13 15 17 17 18 19 21 20 18 17 15 14 30 36 45 51 61 68 70 76 76 79 79 78 80 84 74 87
12 12 11 10 9 8 7 7 7 7 9 11 11 12 14 16 17 18 19 20 19 18 16 14 14 15 16 18 24 42 53 60 68 68 88 78 82 84 86 95 84 69 84
15 13 12 11 10 9 8 10 10 11 12 12 13 14 16 18 19 19 18 16 15 14 14 13 13 13 16 18 22 26 41 62 71 82 89 87 87 73 86 94 84 92 87
19 16 13 11 11 12 14 15 16 17 16 16 15 13 12 11 10 10 11 12 12 13 14 15 16 17 18 20 22 25 28 30 31 42 51 57 97 56 46 88 98 80 70
24 22 19 17 16 17 18 18 16 14 11 10 10 10 9 10 10 11 12 14 18 24 27 33 35 33 36 41 41 46 42 36 34 33 40 37 35 87 59 97 62 67 99
24 22 20 21 22 19 15 12 11 11 10 10 11 12 13 15 16 14 15 21 26 30 37 44 55 58 60 69 74 84 76 61 57 55 59 54 38 59 70 45 50 99 98
28 26 23 18 13 12 12 11 10 12 13 15 14 10 9 9 9 10 12 19 28 38 37 39 40 42 41 50 85 86 88 92 82 72 80 73 45 60 66 66 84 100 100
17 15 13 13 13 11 11 14 16 20 16 11 9 9 7 10 12 13 14 13 46 40 26 36 57 57 56 44 55 79 98 98 95 86 85 82 70 89 89 100 98 100 96
16 15 13 12 15 16 18 23 23 15 12 11 12 10 11 12 15 18 16 14 16 20 40 64 59 84 67 64 58 97 99 99 100 100 89 100 100 100 100 100 96 100 98
12 11 18 26 22 19 27 24 19 19 15 14 14 15 22 19 23 23 28 26 38 43 45 66 79 99 99 94 100 100 96 100 99 100 83 80 92 96 96 100 100 98 92
18 36 36 32 28 27 27 26 21 19 22 19 21 20 28 26 28 29 38 44 45 41 59 92 89 92 95 99 89 93 99 98 98 93 84 69 84 100 99 100 99 98 97
46 48 40 30 31 32 33 30 27 26 30 31 28 26 31 29 32 38 35 41 45 49 59 86 95 93 89 96 64 89 96 100 97 100 100 99 100 100 100 96 83 64 44
52 46 45 38 40 42 43 37 40 36 36 31 36 40 39 43 41 39 36 44 48 65 77 92 98 94 96 96 99 97 100 100 99 98 100 100 95 86 71 52 41 35 30
55 52 53 45 40 42 43 48 48 50 49 48 44 47 50 46 53 54 59 64 70 77 87 96 98 98 99 100 100 100 100 100 97 90 82 69 58 47 38 36 32 24 18
61 53 46 42 43 54 63 62 55 54 54 51 49 58 57 58 58 62 65 66 73 77 86 92 94 97 98 98 93 81 67 62 62 59 52 44 41 40 36 30 24 16 10
56 44 48 54 56 55 55 60 50 48 44 61 74 70 70 62 57 62 66 71 75 75 72 69 68 67 64 62 60 58 57 57 54 49 45 46 44 38 29 18 12 9 5
48 41 55 63 56 52 50 46 46 54 54 75 81 76 59 56 60 60 65 67 71 76 70 66 64 62 60 58 56 55 56 52 50 51 50 46 38 22 13 10 7 4 8
48 55 70 73 65 62 60 59 62 62 67 69 66 57 62 69 72 72 70 68 74 73 70 65 60 56 52 52 53 56 58 56 56 53 44 37 19 15 9 5 6 11 12
67 64 76 87 86 75 72 73 77 70 57 52 52 65 74 76 73 71 73 75 72 70 63 57 54 54 53 57 61 63 63 61 55 46 36 19 13 8 5 7 12 13 14

GFSMW_500_rhum_075.txt.gz
RH
34 31 30 27 23 16 11 13 19 24 21 20 23 24 20 27 16 19 21 18 23 41 49 50 52 61 61 56 46 52 70 72 71 62 65 73 73 70 68 66 67 68 70
38 32 29 27 22 14 12 12 15 18 22 22 20 21 17 19 17 12 15 15 15 15 14 17 47 63 63 53 44 48 46 70 76 75 71 69 62 66 63 61 61 68 68
35 29 30 28 21 13 14 15 15 14 12 12 12 11 11 10 10 11 11 12 11 11 11 11 12 32 52 61 49 46 42 46 67 76 62 56 59 60 66 65 65 60 59
24 24 24 22 18 14 13 14 14 14 13 12 12 11 9 8 9 12 11 11 11 10 11 10 12 13 14 17 34 37 63 66 75 83 71 52 39 31 40 51 53 54 55
20 18 18 17 17 16 15 14 14 13 13 12 11 11 10 8 9 11 12 12 12 11 18 12 42 32 42 47 46 36 47 74 67 88 86 59 39 29 36 33 44 51 60
30 22 15 14 14 13 13 12 12 12 12 12 11 10 10 9 8 12 13 14 13 14 15 14 16 31 32 40 44 55 62 74 86 80 86 89 85 66 70 69 55 60 69
19 18 16 15 14 14 13 12 11 11 11 10 10 9 9 9 8 11 13 13 14 15 18 19 17 17 17 20 41 40 60 71 70 74 74 73 78 71 70 66 66 63 71
21 16 16 16 15 14 12 11 10 9 8 7 7 7 8 8 8 9 13 13 15 19 22 24 24 24 25 27 28 30 32 38 47 60 60 59 71 68 60 60 80 74 72
14 14 13 12 11 10 9 9 8 7 6 5 5 6 8 9 10 12 13 16 19 21 23 23 23 24 24 24 24 22 23 26 27 27 37 56 69 65 53 91 98 96 94
16 15 13 12 12 11 10 9 9 8 8 7 7 9 11 11 12 12 14 18 20 19 17 15 14 14 16 17 19 20 20 22 29 33 34 41 47 74 48 97 97 75 74
16 15 14 13 12 12 11 11 10 10 9 10 10 11 12 12 14 15 13 10 10 10 12 13 14 17 19 20 22 26 34 53 54 53 49 46 43 55 55 55 92 99 93
18 18 17 15 14 14 13 12 12 12 13 13 14 18 18 14 10 9 8 10 10 8 7 9 13 15 26 45 62 71 72 62 64 65 56 50 40 37 35 41 67 78 56
31 27 23 20 18 15 15 16 16 16 20 20 15 10 10 9 10 10 7 6 8 9 10 11 10 13 37 42 42 45 62 81 88 87 82 74 63 52 44 43 44 47 50
32 29 28 26 24 21 19 20 21 20 14 10 10 10 11 11 7 7 7 8 9 8 15 17 15 16 27 30 41 58 77 68 54 53 79 94 87 78 76 73 76 68 63
34 32 29 26 24 24 22 17 13 11 10 12 14 14 9 8 6 7 8 8 8 10 19 19 25 35 42 56 68 55 66 57 49 60 85 100 100 99 96 92 93 95 96
34 31 28 25 19 15 13 12 11 13 15 20 15 11 9 9 12 11 11 11 12 12 17 16 21 39 56 74 80 81 98 69 94 95 100 100 99 99 100 100 100 100 100
21 19 17 16 14 13 11 14 18 17 23 18 15 12 13 14 20 18 16 16 18 18 17 21 32 44 51 57 67 99 97 100 99 100 99 98 100 99 100 100 100 100 100
18 16 14 12 11 14 21 23 20 29 24 19 18 16 20 22 20 18 22 22 21 26 27 30 36 57 52 53 60 72 76 83 72 90 95 100 100 98 98 99 96 98 98
13 12 12 24 32 32 29 27 29 30 26 21 23 27 29 27 26 27 28 27 30 37 36 38 39 44 46 58 68 62 59 76 90 94 97 98 98 100 100 96 78 52 40
17 24 39 48 42 33 32 38 36 32 31 28 29 32 33 34 36 38 34 37 38 43 47 45 49 60 69 77 79 81 89 98 100 98 100 98 87 59 51 42 41 41 38
41 56 57 52 51 42 46 46 43 44 41 40 41 41 44 45 44 46 40 44 45 48 52 60 64 68 71 73 78 86 94 92 82 67 55 49 44 42 44 46 44 30 16
67 61 59 57 47 41 38 40 50 57 57 50 48 52 51 58 58 53 48 46 54 57 57 62 61 58 58 61 62 60 54 48 42 41 42 45 49 51 48 40 24 18 13
75 68 59 48 46 49 50 54 53 62 62 51 46 50 68 68 62 57 51 53 53 52 58 59 54 55 56 52 42 38 36 37 40 46 50 53 53 46 39 25 19 11 10
70 58 48 39 55 56 54 51 52 51 47 44 49 55 70 71 58 52 56 58 56 58 57 55 58 56 45 41 39 35 36 39 44 48 50 48 44 38 31 16 10 10 6
62 48 42 45 60 61 56 54 56 55 59 63 63 64 66 58 54 65 65 63 62 63 60 60 56 47 45 43 38 38 40 42 48 50 50 48 43 33 20 12 10 8 8
49 52 58 60 67 70 74 70 63 64 74 72 62 53 51 64 74 75 74 72 69 62 60 59 53 49 49 44 43 45 47 48 49 50 52 49 42 25 19 13 9 8 11

GFSMW_500_rhum_078.txt.gz
RH
56 46 41 37 34 27 28 44 47 48 24 20 20 22 24 20 19 32 26 26 24 20 23 21 17 18 37 45 49 62 66 60 48 44 44 60 66 71 74 73 66 63 54
61 50 44 45 35 27 28 25 22 33 40 30 26 23 24 28 25 27 30 26 22 13 10 12 13 12 10 10 12 42 64 72 64 52 43 34 48 85 83 75 69 60 64
68 60 49 38 36 32 28 27 23 18 12 15 14 18 17 16 13 12 15 14 18 19 20 16 12 14 10 11 11 13 20 44 61 54 46 48 63 79 90 82 72 61 51
83 63 49 39 33 27 28 28 24 16 13 12 12 15 13 11 12 12 11 10 10 11 14 33 30 19 19 20 38 45 28 20 44 47 47 55 61 71 86 93 84 66 36
85 75 66 48 40 35 35 29 23 15 15 14 13 12 12 12 12 12 12 11 9 8 8 18 20 19 24 28 46 68 76 71 69 77 75 72 70 82 84 90 90 72 58
80 76 73 61 37 27 27 24 20 16 15 15 14 14 12 12 10 11 12 12 10 10 12 13 12 14 14 19 26 37 30 65 66 75 72 78 83 90 89 94 92 82 78
72 48 61 62 24 20 18 19 18 16 15 14 14 13 12 12 12 11 10 11 10 9 14 16 14 14 16 19 22 22 24 28 28 31 39 60 71 88 99 98 91 85 78
56 30 25 30 47 36 20 15 14 14 13 13 12 12 12 11 10 9 8 9 9 9 10 12 16 18 19 21 24 26 27 29 30 36 45 43 52 66 69 78 86 78 74
68 36 29 33 20 17 17 16 15 14 13 12 11 10 8 7 6 6 6 7 8 12 15 16 19 22 22 19 17 15 15 15 18 30 30 30 32 42 64 64 51 49 52
44 38 34 43 28 19 14 14 12 11 10 10 9 8 6 6 6 7 8 11 13 16 17 18 16 11 11 12 12 14 18 23 30 32 42 63 60 49 56 60 60 56 51
22 31 31 21 25 19 13 12 12 11 11 10 10 9 9 8 9 10 11 13 15 15 11 10 10 10 7 8 9 10 12 12 22 40 63 85 96 99 100 94 80 78 56
24 21 20 22 21 16 14 13 13 12 12 11 11 10 9 10 12 13 16 14 11 9 10 9 6 6 7 8 9 14 16 20 36 47 51 64 100 100 96 90 84 71 64
23 20 18 17 16 16 16 16 15 14 14 12 11 12 14 15 18 14 10 9 10 7 6 7 6 8 9 10 14 23 32 42 38 38 39 45 64 97 99 90 85 100 71
28 25 23 22 24 23 21 19 17 16 15 16 16 18 20 14 10 10 11 8 6 6 7 6 9 13 12 17 22 17 28 37 70 78 56 54 74 67 67 91 92 93 99
46 42 39 37 35 30 26 24 22 20 19 21 22 16 10 10 12 13 7 6 6 7 10 10 15 18 19 18 12 12 19 34 33 52 57 64 58 91 65 80 93 100 95
54 48 42 37 33 31 28 25 23 24 22 14 11 10 12 17 11 8 9 10 13 11 13 16 20 23 24 20 12 16 24 34 64 70 68 94 92 98 97 100 100 100 96
45 44 39 36 32 29 27 24 20 15 12 11 12 18 18 14 11 13 12 14 14 18 18 20 23 30 25 26 19 19 22 41 48 54 75 96 96 97 90 86 97 99 100
29 28 27 24 22 19 17 14 12 13 18 18 23 22 19 17 13 15 15 16 18 22 23 28 29 30 31 33 35 40 33 24 30 40 68 86 92 95 97 100 100 100 93
24 22 20 17 15 13 12 13 18 24 21 24 30 25 21 22 20 22 22 24 26 29 30 33 35 38 42 44 47 50 52 58 62 78 88 90 93 96 92 76 57 45 45
18 15 13 12 14 19 24 29 29 28 30 34 34 29 26 27 30 27 31 38 40 36 33 38 46 48 50 52 57 59 61 63 68 67 64 57 52 49 45 45 49 48 41
14 15 15 20 40 48 42 34 35 43 42 38 35 38 36 36 38 42 42 49 50 42 39 47 50 45 50 49 48 48 46 42 39 38 39 39 40 44 47 48 45 38 30
19 20 30 47 52 50 46 40 44 47 46 44 47 49 47 42 41 47 59 61 54 47 48 50 51 51 53 48 45 42 37 36 35 35 35 37 38 37 40 41 40 34 25
56 51 59 59 57 54 48 40 44 51 56 56 60 56 48 46 51 66 67 62 50 49 51 50 50 51 49 44 43 40 40 35 34 34 33 35 38 40 44 44 40 30 22
82 80 71 62 57 50 48 53 55 51 51 58 54 49 54 62 71 75 68 53 55 54 53 55 56 52 50 48 46 45 39 36 35 37 38 38 40 43 46 46 43 28 24
95 80 66 55 44 49 56 55 53 50 52 54 55 61 70 74 76 68 56 61 63 61 62 62 56 55 53 51 47 42 40 40 41 39 38 41 44 46 50 50 47 31 21
91 72 57 47 51 62 63 61 62 67 60 57 64 72 73 67 59 60 69 68 65 61 62 60 60 58 54 50 46 43 41 38 37 36 38 40 44 45 47 53 48 20 20

GFSMW_500_rhum_081.txt.gz
RH
80 85 70 50 48 36 30 33 36 39 28 23 21 17 18 23 18 34 30 38 26 27 26 25 22 16 16 18 16 17 14 12 15 27 49 56 61 55 51 41 51 78 82
88 70 91 78 47 44 36 33 42 56 53 40 45 44 34 23 22 26 37 36 31 27 24 27 31 23 12 11 10 10 10 11 11 11 13 34 52 76 62 55 59 60 80
97 84 74 87 79 51 40 35 33 33 38 51 61 64 61 54 41 35 23 14 16 35 32 32 24 24 16 20 33 36 20 21 19 31 39 26 16 25 39 47 53 65 76
84 88 80 75 77 77 62 53 44 35 29 27 25 23 23 25 18 14 21 25 26 24 24 14 16 24 32 35 23 18 21 23 42 46 78 81 64 55 60 85 79 76 84
47 81 88 78 74 72 66 61 55 56 46 27 24 20 15 13 12 12 12 10 10 9 8 14 20 19 24 21 16 18 25 21 24 29 39 46 54 78 74 75 83 90 97
33 51 79 82 74 63 58 56 70 65 49 31 23 19 16 14 14 14 13 13 12 12 11 11 10 10 10 10 15 20 20 22 26 25 28 32 46 61 70 68 71 87 91
29 28 55 81 88 74 66 57 44 36 32 30 25 20 16 14 13 12 13 14 14 14 13 12 11 10 10 10 12 14 15 20 24 28 38 46 47 50 54 59 57 56 78
36 31 34 57 75 84 75 70 48 29 27 24 22 18 16 14 13 12 11 10 12 12 10 9 9 11 11 12 14 17 20 19 15 14 30 30 33 46 45 68 80 90 88
38 29 38 66 80 72 71 72 32 22 19 18 19 17 16 14 13 12 12 11 8 6 6 6 8 12 14 18 20 16 12 11 9 8 10 17 36 40 51 68 74 86 87
36 30 45 69 82 48 29 34 38 30 20 16 15 14 14 14 13 11 8 7 6 6 8 10 12 16 18 14 11 11 8 7 8 8 10 15 19 27 37 56 78 96 100
34 29 39 58 85 50 38 57 24 18 17 16 15 14 12 10 9 9 8 8 7 9 12 14 15 13 11 10 10 6 8 9 11 13 11 11 18 40 57 62 56 60 87
32 26 26 56 81 72 56 64 50 25 15 12 12 12 11 11 11 10 10 9 10 12 15 15 11 10 10 6 7 10 12 14 11 6 11 18 20 49 60 55 52 60 78
33 28 25 24 23 27 39 48 37 21 15 15 14 13 13 12 12 11 10 13 16 16 12 10 11 7 6 5 12 16 16 16 8 9 16 16 26 31 56 58 50 54 72
32 30 28 26 25 23 22 21 21 25 18 15 14 15 14 13 13 15 16 17 13 10 10 10 7 6 8 10 17 19 20 16 8 12 17 20 33 38 42 47 56 79 97
34 30 29 28 27 26 25 25 24 21 20 19 18 16 17 18 18 19 14 10 11 13 9 7 7 10 12 16 17 20 22 18 10 12 17 25 31 50 56 69 82 93 95
64 57 52 46 47 43 40 37 32 28 25 24 23 21 20 20 14 10 10 15 11 9 7 13 14 15 17 20 21 24 24 22 21 12 14 24 29 34 63 64 74 92 92
92 78 62 57 57 47 39 34 33 30 26 24 23 21 16 12 11 16 17 12 12 10 15 16 16 18 21 24 25 31 31 29 31 33 31 32 44 57 60 68 79 81 86
90 92 88 79 69 54 38 33 30 27 24 20 15 12 13 15 22 19 16 13 14 16 16 18 24 26 28 26 31 38 39 41 44 45 47 52 60 64 63 61 64 61 52
38 34 32 31 30 28 25 22 18 16 14 13 14 17 20 27 23 23 22 20 22 26 30 30 34 36 32 34 38 42 42 44 44 42 41 40 39 36 35 35 36 39 40
34 31 27 24 21 18 16 14 14 16 19 21 24 24 32 31 27 31 30 32 33 38 39 40 44 37 36 44 43 47 44 40 41 37 32 30 29 30 32 33 34 35 36
24 21 19 16 16 22 32 33 38 37 32 31 33 36 40 38 37 39 39 40 44 46 48 54 45 42 44 47 46 44 42 41 36 35 34 33 34 34 33 34 34 36 41
25 18 17 17 23 39 60 58 47 38 42 45 45 46 47 46 48 50 47 49 52 55 61 51 46 46 46 44 45 48 43 38 40 39 38 36 34 34 33 33 37 41 43
50 46 36 32 47 57 60 55 48 42 46 50 48 49 59 60 57 54 51 61 68 67 55 49 51 47 48 49 50 49 45 45 43 38 36 34 32 31 32 33 37 38 38
88 74 70 65 61 58 58 54 51 44 46 52 58 63 67 65 54 57 68 78 76 61 57 56 53 51 53 53 54 49 48 44 38 35 32 31 31 33 34 36 37 34 33
99 97 91 86 75 65 61 56 54 54 53 53 56 56 54 55 59 73 82 77 63 62 63 56 53 55 56 55 53 52 46 42 40 36 34 35 36 37 37 40 39 34 36
100 100 97 82 69 60 52 48 54 57 59 60 62 59 58 66 73 75 71 64 69 70 66 61 58 58 56 55 54 51 47 45 41 37 36 36 37 40 41 41 37 34 42

GFSMW_500_rhum_084.txt.gz
RH
85 88 96 83 55 50 36 38 45 52 51 53 49 31 22 18 17 16 16 14 15 27 40 29 20 23 27 26 26 14 10 10 10 10 10 10 12 14 21 41 76 84 73
81 83 93 92 77 58 50 39 37 41 43 48 43 30 29 28 22 26 31 22 22 31 31 28 34 34 30 29 27 25 18 19 24 26 24 15 25 38 41 36 28 25 38
96 88 79 89 88 68 54 49 46 43 37 41 44 42 38 41 47 65 59 47 53 54 56 29 31 36 31 22 16 17 24 31 26 18 16 18 24 33 43 66 86 82 75
75 91 82 83 92 88 65 52 52 48 44 42 47 62 69 70 67 60 68 65 51 34 33 39 38 40 26 19 16 21 16 20 16 16 18 25 20 19 22 37 53 42 67
37 50 78 79 81 80 80 56 54 56 49 45 42 39 34 29 29 25 21 20 17 15 12 20 19 18 16 20 19 12 11 10 12 20 24 26 29 32 33 30 42 57 70
38 35 41 75 80 86 83 79 71 76 67 49 56 46 38 35 35 26 21 19 12 12 11 11 11 11 16 11 11 11 10 10 10 14 16 19 30 34 32 34 35 46 58
46 31 31 32 67 82 88 84 78 89 81 67 55 59 58 56 36 25 20 16 15 14 14 13 12 10 10 11 10 8 8 10 13 17 18 17 13 21 37 39 36 48 66
40 42 32 32 36 67 82 87 84 85 83 78 63 66 59 38 31 25 21 17 16 16 16 15 14 12 11 8 6 6 10 13 16 17 11 11 8 8 10 12 34 20 66
27 44 41 43 34 44 73 86 88 79 74 70 53 43 33 30 26 23 19 16 14 15 15 14 13 9 6 6 8 11 12 15 12 10 7 7 9 11 10 7 13 25 34
26 50 50 58 39 35 58 70 87 88 84 72 62 50 38 30 23 19 17 15 13 12 13 10 8 7 8 10 12 15 15 11 11 6 8 12 13 9 6 8 15 20 15
60 58 58 61 42 32 50 81 83 79 73 77 67 26 22 19 17 16 14 14 14 12 9 9 8 9 12 15 16 12 11 11 7 11 14 16 14 7 8 8 12 19 24
78 75 70 64 40 32 42 80 92 44 36 61 28 22 20 19 18 16 15 12 11 10 10 10 10 11 14 15 10 11 7 7 12 15 16 17 12 8 8 12 18 21 28
74 72 60 55 35 31 46 50 93 55 37 54 35 17 16 14 14 12 12 12 12 11 11 10 13 16 15 10 11 7 6 8 15 16 18 17 14 9 10 18 24 34 36
67 58 45 36 30 29 36 44 90 94 91 90 70 54 20 15 14 14 13 13 13 12 12 15 16 12 10 11 7 7 9 15 16 18 21 20 18 9 17 20 27 35 37
64 50 40 33 28 25 28 31 29 33 34 48 79 67 53 37 22 15 14 13 14 16 17 14 11 13 11 9 9 12 16 20 18 22 26 25 26 22 15 16 26 37 42
66 60 40 35 32 30 28 27 26 25 27 26 23 22 22 19 18 16 18 18 18 14 12 13 14 11 11 14 16 19 21 23 23 29 33 36 37 37 40 42 49 53 51
98 76 47 39 35 32 30 29 30 30 33 35 30 27 24 23 22 21 19 15 12 12 18 14 14 18 16 16 20 22 26 23 30 36 33 33 36 38 40 38 32 28 26
97 94 83 70 62 57 54 52 46 40 38 37 32 28 24 22 20 18 13 14 20 19 16 18 19 18 20 24 25 30 29 31 33 34 35 36 37 34 28 26 25 24 23
93 91 85 87 88 80 71 70 62 40 32 33 53 42 22 17 15 18 22 25 23 23 23 26 27 30 31 34 35 34 34 36 34 37 37 34 31 30 28 29 27 27 27
76 86 46 42 53 58 49 45 34 29 25 22 19 16 18 22 27 31 31 28 31 34 34 36 38 40 41 43 42 38 37 36 38 39 36 34 33 30 28 27 27 28 26
48 42 42 33 29 27 25 22 20 18 20 23 28 30 35 37 38 40 34 37 42 42 42 44 48 51 53 48 41 41 40 41 41 40 37 36 32 30 30 29 28 28 28
31 30 23 20 21 22 24 30 44 50 50 44 40 39 40 43 50 45 43 50 52 51 51 54 62 64 51 44 43 44 47 45 42 38 37 33 32 31 29 27 27 28 29
97 79 52 32 29 35 53 62 65 61 54 50 56 56 58 57 56 54 55 58 61 57 62 72 67 54 48 49 48 49 47 46 41 41 36 36 36 32 29 28 26 28 34
100 100 90 73 62 57 64 71 67 66 57 50 56 62 60 57 61 70 70 61 61 69 76 73 59 55 54 50 47 48 48 46 44 40 40 40 37 35 34 30 28 32 39
100 100 100 96 97 92 82 77 71 63 57 58 64 64 65 68 72 68 60 59 68 80 77 62 63 60 54 51 50 50 49 47 45 45 45 45 44 44 41 35 32 38 41
100 100 100 100 100 94 84 76 76 70 65 66 64 60 60 59 58 56 58 68 76 75 64 72 75 70 62 56 55 56 54 52 52 52 52 53 54 54 48 40 39 42 42

GFSMW_500_rhum_087.txt.gz
RH
100 96 97 96 95 94 86 80 98 100 95 88 78 40 35 37 28 24 20 20 19 17 15 15 18 27 36 24 26 25 27 28 26 23 19 20 24 32 35 26 31 45 57
97 94 96 96 89 91 92 51 40 68 92 91 82 69 61 57 47 27 25 27 33 30 26 21 24 34 32 33 40 37 30 28 21 16 21 28 30 21 18 23 30 39 37
79 72 95 87 99 95 88 84 45 37 50 80 80 74 71 74 55 37 34 30 27 33 40 46 45 55 56 22 36 33 34 21 16 19 14 12 13 14 18 23 26 24 30
96 80 71 82 79 100 94 79 66 46 51 54 62 55 57 55 56 52 54 56 71 75 84 82 74 59 52 41 31 27 16 15 20 13 11 10 10 11 17 25 23 30 43
46 80 81 90 89 87 98 88 73 66 66 56 57 50 50 52 67 72 79 76 74 77 86 93 87 60 34 22 20 14 12 20 12 12 10 9 9 10 13 15 22 25 19
35 38 55 65 80 88 81 96 83 72 65 62 58 61 62 58 52 47 54 54 54 66 46 24 28 30 24 19 14 13 13 14 12 9 8 9 11 12 16 13 8 7 13
51 32 34 40 48 72 88 83 92 95 88 80 68 56 49 43 46 45 47 53 49 32 30 29 27 17 14 13 13 12 12 12 8 7 8 11 14 17 11 8 8 10 11
42 42 32 34 37 44 55 84 87 95 97 95 92 86 74 62 58 51 44 47 48 45 29 23 17 15 14 12 12 11 11 8 6 7 12 16 14 11 8 9 12 12 10
13 23 37 32 31 35 34 46 78 88 94 97 92 89 84 77 68 67 67 63 47 38 29 23 19 16 15 14 12 12 7 7 8 12 16 12 11 7 10 13 15 14 9
11 10 11 31 40 37 36 33 46 76 87 90 91 90 87 82 77 59 56 54 38 31 24 21 19 18 16 14 11 8 8 10 12 16 11 10 7 12 12 15 17 13 9
18 17 11 11 23 43 52 43 37 47 74 82 86 88 84 79 73 62 58 37 29 26 21 19 17 16 14 10 10 10 10 14 15 11 11 7 9 11 14 16 16 14 9
28 32 38 21 13 28 48 56 48 36 54 90 100 95 90 86 79 66 62 25 22 22 17 16 16 13 11 11 11 11 16 15 11 10 7 7 11 13 17 18 19 15 11
75 63 62 51 24 28 51 67 57 37 40 89 92 91 75 37 45 57 35 24 22 19 18 15 12 12 12 12 12 16 14 11 11 8 8 10 15 16 19 22 24 23 14
70 74 75 63 40 51 57 70 56 36 36 52 92 91 44 54 42 24 20 18 16 14 14 13 13 13 13 14 16 14 12 12 9 11 12 16 18 21 22 27 31 31 32
68 78 84 78 80 74 72 70 51 33 36 47 69 93 79 60 70 58 37 20 17 16 15 14 14 15 16 16 12 14 12 10 13 15 18 21 22 23 25 28 26 32 34
94 92 91 83 74 51 44 52 37 32 36 36 64 85 61 59 89 79 62 54 39 25 18 16 16 18 16 12 16 13 13 18 17 19 23 24 25 27 28 26 27 29 31
100 99 97 80 62 49 41 35 28 27 28 32 29 40 29 27 26 29 43 43 31 19 18 19 18 13 16 17 14 20 23 20 22 26 28 28 30 32 28 26 28 27 25
100 100 96 90 82 66 52 41 31 30 29 29 28 27 30 29 34 30 26 24 22 20 18 14 16 20 17 18 21 25 26 28 30 30 32 34 32 31 28 28 27 24 23
100 100 100 96 90 83 64 52 46 37 35 35 38 38 41 35 30 27 24 21 18 16 15 20 23 20 22 27 32 33 36 36 38 38 36 32 33 31 29 30 26 24 25
98 100 100 99 98 92 79 68 57 59 62 62 39 34 33 39 32 25 21 16 19 26 30 28 28 29 35 38 40 44 44 46 43 38 35 37 35 32 32 27 26 26 25
86 61 93 99 92 88 88 89 70 60 54 44 40 44 56 77 63 28 23 31 37 36 33 38 41 45 47 46 48 52 53 45 40 38 40 39 34 34 30 29 30 30 29
46 57 60 58 79 38 34 32 33 33 28 30 28 22 23 24 30 38 40 45 43 41 45 51 53 49 49 52 59 57 47 45 44 41 42 41 35 32 33 36 36 36 36
31 36 39 39 30 25 24 24 26 32 42 51 57 54 48 44 45 49 53 53 50 53 56 57 57 57 61 69 59 51 51 49 43 44 44 39 37 36 40 41 43 44 45
99 98 100 98 71 53 39 35 55 72 76 74 64 60 61 65 66 65 62 62 61 62 64 62 63 71 76 63 56 56 53 49 47 47 45 43 41 43 46 49 49 50 51
100 100 99 99 100 92 80 68 72 80 74 73 67 59 63 67 65 61 67 73 74 68 60 64 76 80 66 64 65 61 57 55 53 52 50 48 48 51 53 54 54 53 53
95 100 100 100 100 100 95 92 84 77 76 73 68 64 61 66 68 71 72 66 62 64 74 82 81 68 73 82 82 79 72 67 64 55 52 51 52 53 52 53 54 56 54

GFSMW_500_rhum_090.txt.gz
RH
100 94 95 96 93 96 94 91 98 96 97 94 86 72 66 55 47 36 28 24 22 21 20 18 16 15 14 15 26 34 29 30 37 33 30 25 18 21 23 28 27 17 16
97 97 98 97 98 97 96 94 94 96 98 97 94 90 88 81 63 53 36 32 30 26 23 21 22 24 24 23 26 32 45 37 31 35 35 21 22 18 12 11 11 13 17
94 98 96 97 97 98 97 97 96 96 96 96 96 95 95 96 86 58 66 61 46 34 27 27 29 34 43 43 50 59 43 34 41 39 22 13 15 13 12 11 11 11 14
94 86 89 92 98 98 97 96 94 97 94 93 95 96 95 95 96 94 96 85 87 58 68 46 55 63 76 83 84 76 79 60 32 19 14 13 11 10 9 10 11 14 16
91 95 94 79 82 97 95 95 94 92 97 78 70 64 81 96 96 96 89 82 89 83 81 84 90 95 92 98 96 93 89 61 48 14 12 12 11 10 7 5 9 16 18
61 93 96 85 92 81 83 83 71 90 94 97 89 68 58 68 85 83 78 76 82 84 91 90 93 93 95 94 86 77 55 32 18 13 13 13 11 6 6 8 13 16 11
43 46 59 67 83 91 90 92 96 99 97 93 92 96 96 96 96 95 93 86 75 80 80 82 87 90 81 40 45 35 22 15 14 14 14 11 7 7 10 14 15 11 7
32 31 30 34 37 53 71 70 88 92 96 95 88 85 92 96 95 95 96 95 84 73 66 79 74 59 56 40 25 19 17 16 15 14 12 8 8 12 16 14 11 7 11
37 41 44 32 29 33 37 48 51 80 90 88 95 94 87 80 79 74 66 59 55 52 53 48 46 45 47 44 33 21 17 15 14 13 8 8 11 16 13 12 9 12 10
11 11 18 30 37 40 36 35 37 42 56 86 91 91 92 93 97 97 85 82 80 73 72 66 64 56 44 33 24 19 17 15 14 10 10 10 15 13 12 9 11 13 11
13 12 12 12 15 24 32 39 44 40 38 41 82 94 94 89 92 95 92 91 91 92 81 62 62 44 30 25 22 19 16 14 11 11 10 14 14 11 8 8 12 13 14
19 17 14 12 11 10 10 11 31 44 43 37 40 77 98 99 98 97 97 94 91 86 77 71 64 40 30 25 20 16 14 12 11 11 13 14 12 9 8 9 14 14 16
21 17 14 14 15 18 19 19 12 14 41 50 45 41 59 95 97 97 98 97 92 85 77 68 65 27 23 19 17 14 12 12 12 15 14 13 11 10 11 15 16 17 18
17 16 30 45 58 55 48 36 29 24 13 44 57 50 39 41 92 96 98 95 82 49 62 62 42 23 20 16 14 14 14 14 17 14 15 13 11 15 18 18 20 22 23
44 39 50 55 49 62 58 58 53 44 17 41 64 60 45 38 60 93 97 53 53 50 26 22 20 17 15 14 15 15 16 17 13 16 14 13 18 21 21 24 26 27 26
43 50 46 49 64 62 67 58 71 41 31 41 68 63 41 35 45 65 95 67 54 57 51 36 35 30 20 17 19 18 17 13 18 15 16 21 24 25 27 30 30 27 27
67 68 71 76 69 74 84 83 81 80 69 72 69 54 33 36 44 83 71 34 51 82 64 64 68 54 51 24 19 16 16 19 16 22 25 28 30 31 34 32 29 28 27
78 72 74 91 100 92 96 81 80 60 42 50 42 34 31 35 38 55 51 40 31 37 48 57 40 26 21 18 16 20 20 21 25 27 33 35 37 39 35 31 30 29 28
82 82 84 99 100 100 97 83 78 70 55 50 34 29 28 27 28 30 47 38 38 36 32 28 24 20 17 22 24 23 26 29 33 38 41 42 43 39 35 34 31 27 26
87 92 93 100 100 97 96 100 95 82 84 63 42 36 32 31 35 43 42 41 32 29 25 20 18 22 28 29 29 32 36 39 44 42 47 47 42 38 39 37 30 29 28
82 100 89 94 100 100 98 98 89 96 74 65 60 56 53 49 41 39 41 34 29 25 21 24 33 38 36 37 41 44 49 49 47 54 50 45 42 43 41 35 32 30 33
54 66 86 92 73 95 100 98 98 98 92 77 69 65 67 56 32 45 71 93 88 61 33 40 42 41 48 53 52 52 54 57 60 53 49 47 45 44 42 40 35 36 40
36 32 37 38 88 57 78 89 41 67 52 70 90 81 42 34 36 34 34 29 39 47 51 48 51 53 60 56 58 61 66 66 55 54 52 49 47 46 45 43 43 46 49
75 74 90 100 100 100 77 47 39 33 40 50 52 53 52 56 54 53 52 56 57 57 54 54 57 59 64 64 72 77 69 59 58 57 55 55 54 52 51 49 50 50 48
100 98 100 100 100 100 100 97 82 65 65 86 83 83 76 71 69 69 68 68 67 67 68 73 73 68 70 79 82 70 66 72 73 71 70 76 95 66 51 51 50 50 51
99 94 95 100 100 100 100 100 100 100 90 86 84 77 75 68 69 73 73 69 68 76 81 79 73 74 84 87 74 77 86 86 84 85 81 89 82 66 63 61 60 58 57

GFSMW_500_rhum_093.txt.gz
RH
85 92 97 97 77 63 91 95 95 94 96 96 96 87 80 78 75 86 87 58 50 35 26 23 21 19 17 17 16 15 15 19 26 32 43 29 38 36 25 20 17 13 11
90 84 89 87 95 87 75 94 96 95 100 97 96 96 96 95 87 96 82 60 48 37 30 25 23 22 21 22 26 27 24 21 26 54 43 37 45 29 17 17 14 12 11
86 86 98 97 97 97 96 93 97 96 93 96 96 94 96 95 97 97 89 66 57 48 46 42 32 30 29 26 27 33 49 58 60 58 66 61 35 21 15 14 13 11 9
98 98 99 96 93 95 94 95 95 95 96 96 98 97 96 96 96 94 94 90 86 87 67 69 78 73 58 54 60 83 94 98 100 94 80 62 43 23 11 13 12 9 8
85 89 98 97 98 97 97 97 98 97 97 96 96 97 98 95 97 96 95 93 96 96 98 96 97 97 87 96 96 96 98 98 100 96 87 60 33 13 15 12 10 7 9
42 66 96 93 94 94 93 94 96 96 95 95 96 96 94 95 96 95 95 98 97 96 96 96 96 96 96 96 95 94 97 96 93 79 47 25 15 14 13 12 7 7 10
43 44 75 92 77 74 79 76 75 81 91 96 93 96 96 96 94 94 94 93 94 96 93 90 90 94 94 95 94 94 88 59 66 43 23 18 16 15 13 9 7 10 12
39 42 62 90 93 97 96 93 83 74 70 71 68 75 69 94 97 89 90 93 90 87 90 94 93 93 94 94 91 76 64 61 48 35 27 19 17 16 12 9 9 11 15
36 38 40 42 50 81 84 73 75 85 81 68 67 70 87 89 90 92 96 96 98 100 100 100 95 89 90 65 52 49 52 52 48 41 24 19 33 14 10 10 12 16 12
35 33 30 31 34 34 38 48 39 63 73 76 76 82 92 98 96 96 95 93 91 95 94 94 95 94 87 76 63 62 62 58 49 28 21 25 15 11 11 13 16 12 11
11 17 22 25 28 33 40 42 37 33 34 40 46 56 74 96 100 100 99 98 95 91 89 87 88 83 80 77 76 66 67 43 27 24 21 16 12 12 13 17 13 13 9
11 11 11 12 12 12 15 26 34 40 42 39 35 36 41 44 68 95 93 91 90 94 96 92 93 90 88 90 84 73 67 49 36 25 17 13 13 14 17 15 14 9 10
15 12 12 14 17 17 15 12 12 12 14 18 21 32 42 38 40 44 72 93 98 93 94 85 88 98 90 82 79 73 68 38 21 18 14 15 14 16 16 14 13 11 16
25 21 20 21 21 19 16 14 13 14 13 12 12 12 12 21 46 43 43 48 74 96 95 93 89 87 83 79 79 72 67 26 18 16 15 16 18 16 15 16 14 18 22
45 37 33 28 22 16 14 16 21 29 31 36 35 26 18 18 15 41 51 46 42 59 82 97 96 92 58 38 46 41 27 18 18 17 18 21 27 19 16 18 22 26 27
40 36 29 28 23 19 32 36 47 42 43 44 40 47 46 36 21 38 50 58 40 41 51 82 82 69 67 42 35 32 25 35 21 36 45 19 22 18 22 27 30 31 33
19 22 29 36 33 37 43 49 65 67 56 51 58 59 41 38 28 61 64 57 36 44 59 67 83 75 82 78 76 58 76 80 76 58 20 22 19 26 32 35 36 37 33
24 42 49 49 47 52 59 70 82 83 84 83 74 81 72 69 60 69 56 41 36 55 66 49 42 36 69 85 88 88 87 54 25 26 22 25 31 38 40 42 42 36 35
34 61 66 60 56 62 64 80 78 82 94 79 79 79 48 60 64 61 37 34 36 51 58 49 42 43 39 48 44 35 22 27 27 28 32 37 44 43 44 46 41 38 39
67 66 54 57 68 72 83 90 90 83 85 80 78 75 60 62 38 31 30 28 28 29 39 61 44 36 34 29 25 34 33 32 36 38 46 48 49 51 50 44 42 42 42
71 64 73 77 83 85 93 96 96 100 96 95 94 91 82 76 49 40 35 34 37 42 46 59 36 27 26 36 43 38 39 44 51 55 55 55 58 53 48 46 43 42 44
72 76 75 71 83 87 81 90 99 99 100 99 94 89 82 69 63 62 63 54 39 37 41 60 46 46 51 48 47 49 55 60 58 59 63 64 56 51 49 47 46 46 45
72 58 49 44 49 60 73 78 89 99 88 93 92 94 76 55 49 59 47 41 30 63 96 96 97 86 62 52 60 65 64 64 66 70 69 59 56 54 54 55 55 53 49
68 46 48 56 35 46 80 96 80 65 76 70 51 63 50 55 88 91 76 64 64 79 53 54 66 63 69 75 70 68 72 73 73 71 62 61 61 62 66 82 90 62 55
70 67 98 90 97 100 97 96 100 99 95 100 77 86 84 84 83 77 75 76 76 76 79 78 75 76 75 72 75 77 75 78 75 73 75 79 81 80 78 88 78 70 66
35 39 54 91 99 100 100 98 95 100 100 100 100 95 100 96 99 94 88 83 85 84 82 77 74 76 81 82 82 80 90 81 75 81 85 81 83 84 79 74 74 76 75

GFSMW_500_rhum_096.txt.gz
RH
38 97 100 82 95 61 75 57 72 98 92 98 95 47 41 54 54 51 57 65 70 67 62 54 47 32 25 21 19 18 17 16 15 17 21 24 36 47 36 43 25 17 14
25 50 89 91 90 98 94 75 84 97 94 92 95 97 84 80 67 64 65 70 77 78 84 62 50 36 30 24 22 20 21 22 26 28 27 39 58 57 72 52 35 20 16
24 46 62 84 87 97 98 89 62 65 96 96 94 91 96 96 96 96 94 83 80 96 94 69 53 41 33 27 29 28 27 26 29 33 61 79 90 93 86 68 54 25 14
23 81 66 81 79 95 96 96 71 65 66 84 92 96 95 97 96 97 96 96 96 94 90 83 66 52 50 52 50 52 54 64 74 86 95 92 99 96 90 64 25 17 16
28 81 77 100 99 92 93 93 97 92 95 71 97 97 89 86 95 96 96 97 96 95 96 95 97 96 94 89 91 100 90 90 95 96 97 99 96 85 74 48 19 16 17
34 68 100 96 97 97 93 94 93 98 89 94 92 96 97 97 97 97 97 96 96 97 97 97 96 97 98 98 98 97 98 97 99 97 96 94 87 74 56 36 36 25 25
28 42 90 97 98 99 97 95 97 94 96 98 96 93 97 96 96 97 97 96 97 96 97 97 97 96 97 96 97 96 98 96 96 95 93 92 82 53 43 39 21 27 40
29 28 35 93 96 95 96 98 98 98 97 100 96 96 96 96 96 95 96 97 97 97 97 96 96 94 95 96 94 96 91 86 90 73 56 53 57 56 46 42 21 55 29
31 36 38 50 64 56 58 90 95 86 94 89 79 74 87 90 93 96 94 94 95 96 95 93 92 93 91 92 96 95 84 87 70 62 63 63 61 48 35 24 28 18 14
28 35 37 41 43 47 59 66 75 76 93 83 71 62 65 77 79 90 96 95 95 94 89 94 100 100 100 100 97 96 95 93 86 78 66 62 64 43 26 21 18 13 17
17 28 36 39 42 42 42 52 55 84 93 70 68 73 78 75 74 80 82 83 95 92 82 78 79 82 89 94 93 90 86 87 84 79 76 68 58 35 26 29 31 13 21
12 17 26 32 34 38 41 42 42 42 49 39 36 36 45 55 64 65 68 78 89 90 86 85 80 86 86 90 88 88 84 87 85 82 84 72 67 49 22 17 15 16 18
10 10 10 11 13 15 16 16 16 20 27 32 34 36 37 38 39 37 36 40 46 51 64 72 76 81 83 87 86 86 84 80 75 75 73 71 68 27 17 17 17 18 18
24 20 14 12 11 12 12 14 16 16 14 12 12 14 14 13 14 17 23 32 38 40 41 43 47 55 67 80 80 77 77 75 78 78 75 72 57 17 18 18 20 20 21
38 33 24 18 14 14 14 17 19 19 18 16 14 17 25 24 24 19 12 11 11 17 38 46 47 44 43 57 72 84 84 91 54 36 32 26 28 21 26 27 59 31 21
49 48 49 39 35 34 33 31 27 22 17 17 26 29 34 36 34 32 28 28 19 15 12 33 49 50 40 44 55 67 84 64 51 28 28 32 28 33 77 77 27 22 28
62 60 51 40 32 28 22 20 22 22 20 22 24 31 38 49 46 35 33 33 42 30 15 35 55 49 39 46 55 72 80 80 81 80 69 75 82 88 47 28 26 36 38
40 32 24 20 16 18 17 16 21 24 28 35 41 51 63 62 54 45 55 35 37 22 22 46 60 42 49 51 64 60 65 74 89 96 96 97 61 37 27 26 37 44 46
42 36 37 25 23 42 53 57 58 56 55 55 63 72 66 73 75 70 66 64 54 47 68 65 37 40 54 54 50 49 44 44 86 96 73 37 34 30 37 45 50 52 50
39 35 32 25 46 58 51 50 53 60 61 68 70 72 72 74 75 76 55 61 71 72 70 45 35 47 59 51 54 43 42 40 35 36 41 37 42 47 53 58 60 54 49
28 26 40 65 62 54 52 60 66 66 68 78 77 85 90 85 88 82 72 71 47 42 34 32 31 31 32 60 76 37 33 44 49 52 68 56 58 62 65 64 58 53 51
59 74 72 56 56 59 63 69 74 76 77 87 80 88 89 97 80 86 87 80 64 56 46 46 46 49 52 54 63 40 63 60 79 67 62 66 70 69 67 61 57 55 50
61 65 66 65 60 54 49 51 63 64 78 96 96 87 85 100 96 92 70 69 71 69 59 48 36 40 52 89 83 71 76 76 72 74 75 72 73 72 64 60 57 54 60
65 64 70 77 71 54 53 39 39 57 86 72 67 76 74 68 85 76 83 86 70 66 58 42 43 93 98 91 98 97 91 77 81 81 79 80 75 66 62 61 65 72 76
46 47 76 67 67 83 60 52 83 94 99 100 97 86 100 82 81 70 69 75 79 88 95 95 93 99 96 85 83 86 90 88 85 86 86 78 69 69 74 79 80 80 83
49 37 66 69 53 74 94 95 90 93 93 95 100 100 98 99 86 100 92 94 97 99 98 99 98 99 99 98 98 99 97 94 96 91 85 75 74 82 78 78 79 74 72

GFSMW_500_rhum_099.txt.gz
RH
23 24 30 33 41 81 97 93 59 51 63 97 96 92 57 45 43 55 47 28 32 42 49 55 61 59 68 60 36 25 22 20 18 18 17 17 21 24 26 45 54 66 68
26 31 46 46 70 81 87 97 81 61 63 70 94 96 96 86 37 47 61 69 39 38 46 65 74 72 71 66 47 31 26 23 22 22 25 28 31 39 54 72 81 84 75
23 26 56 94 80 62 76 78 98 57 46 67 91 95 96 96 95 81 66 76 86 56 43 59 72 79 92 79 55 39 32 27 27 28 32 34 46 80 98 98 96 89 75
25 22 20 33 70 79 79 78 92 94 61 57 78 73 96 96 92 97 96 94 95 95 94 85 70 75 92 86 73 65 63 54 46 51 57 84 96 96 90 100 95 91 80
34 35 21 19 18 33 72 79 87 92 97 86 98 64 94 92 96 94 96 96 97 97 97 96 95 96 93 94 95 95 87 85 92 97 92 100 96 100 96 99 95 95 49
46 43 27 19 19 18 34 76 89 89 92 96 94 95 88 85 90 88 99 94 96 98 97 96 96 93 96 96 97 96 96 99 97 97 97 98 96 97 97 92 82 66 69
59 41 23 21 20 21 40 62 73 85 97 96 100 87 95 89 96 97 96 92 96 97 97 96 97 97 96 96 97 96 97 96 98 98 97 96 97 91 75 59 57 58 55
31 31 28 20 17 32 78 90 97 95 94 95 94 97 95 97 96 94 96 97 97 96 97 97 98 97 96 97 97 97 97 96 96 97 97 91 89 74 65 67 65 61 62
25 29 23 21 31 49 94 100 97 99 98 82 90 99 96 96 97 97 96 96 97 96 97 96 97 97 96 96 96 96 95 94 95 95 93 84 88 86 83 74 62 64 43
25 19 18 24 29 38 68 93 98 99 98 94 97 97 92 97 97 96 94 96 95 95 96 95 96 96 94 77 84 85 83 87 94 95 97 96 89 85 82 83 77 70 58
17 16 16 24 31 38 40 49 94 94 89 93 94 92 96 100 98 96 95 90 97 96 98 95 89 86 88 87 82 83 89 87 87 91 87 87 89 91 87 82 83 75 69
18 18 20 21 32 40 43 46 86 82 73 90 80 84 87 78 80 94 71 77 88 92 83 86 86 88 82 81 84 85 87 85 88 91 88 80 81 78 78 78 78 76 68
19 20 21 24 32 37 40 41 42 48 44 44 48 52 63 67 44 47 49 42 37 39 44 45 46 53 61 65 70 72 73 73 76 78 80 76 71 67 69 72 76 72 45
12 11 11 13 20 29 33 33 32 32 31 30 32 32 32 33 33 34 34 34 28 24 26 30 34 34 34 37 41 45 46 53 55 66 65 65 65 71 70 61 53 36 31
14 12 10 11 10 10 11 12 12 12 13 14 15 15 14 13 13 13 13 14 19 20 18 15 12 11 14 25 34 38 38 41 41 49 53 65 82 86 42 25 24 41 30
35 24 27 30 22 17 15 14 16 19 22 26 25 22 20 16 14 16 25 28 29 25 24 21 19 19 14 11 12 33 46 40 38 49 61 79 81 76 67 33 32 39 82
51 45 44 46 43 43 41 37 35 32 29 27 25 24 22 18 18 23 23 21 25 34 35 32 26 21 18 22 13 15 47 44 40 46 56 77 86 87 96 70 80 96 87
70 65 60 55 52 40 32 24 18 15 14 12 11 12 14 20 24 23 24 36 43 47 48 40 37 26 23 30 16 20 48 44 50 74 75 72 76 83 88 91 96 56 35
62 52 42 36 32 28 26 22 20 18 21 24 27 31 30 36 44 49 53 57 56 53 52 46 41 28 34 28 41 62 59 44 75 60 56 51 50 57 93 91 50 34 46
61 52 43 38 34 31 28 26 22 41 47 43 46 46 48 52 53 57 53 55 63 69 78 73 60 53 34 49 69 58 41 62 73 52 47 48 48 79 57 47 46 57 57
60 54 47 38 30 26 27 33 54 53 42 42 47 50 53 59 66 62 67 74 77 68 62 63 66 59 65 67 56 42 36 55 58 72 37 39 49 49 51 66 67 65 69
52 46 35 29 34 40 60 65 52 43 51 56 59 56 55 64 68 64 64 72 72 81 82 76 72 58 50 43 35 34 33 41 75 52 47 61 69 93 89 76 78 75 68
28 44 57 62 60 62 58 48 47 52 52 55 56 66 70 76 77 70 65 70 83 90 84 91 73 68 56 48 46 50 54 56 79 90 71 94 96 85 83 92 83 71 63
68 70 66 59 55 53 58 60 58 47 42 42 49 67 70 63 56 71 74 69 78 76 84 90 83 69 42 60 50 46 57 73 95 83 84 92 92 99 99 91 74 66 64
89 74 60 54 52 58 65 63 62 54 39 54 68 75 81 89 72 81 99 84 75 66 65 78 95 97 93 62 72 99 99 99 100 99 98 99 100 100 96 79 71 76 79
52 50 46 46 43 52 63 62 66 84 70 81 81 85 85 86 91 98 99 93 82 97 94 96 88 96 96 94 93 97 87 92 96 99 100 100 100 100 86 80 84 84 80

GFSMW_500_rhum_102.txt.gz
RH
30 20 20 25 32 42 48 52 61 64 75 95 93 96 97 96 92 45 47 38 47 44 32 27 32 37 42 50 52 50 52 41 30 24 22 20 19 20 24 27 31 45 72
28 21 18 20 26 29 33 38 58 68 69 91 53 74 75 92 94 94 81 60 61 57 73 62 54 39 43 47 66 64 61 56 44 35 27 24 25 26 30 60 56 76 77
26 23 20 23 25 32 33 30 42 60 81 88 83 53 71 96 96 98 98 96 78 77 84 94 85 60 41 47 51 71 66 66 57 46 39 32 32 41 48 62 87 90 88
26 26 20 25 31 30 36 49 29 78 84 81 93 90 99 96 95 95 94 96 96 96 95 95 96 94 88 57 56 83 92 84 89 84 90 85 62 71 83 97 96 92 91
20 24 29 24 28 31 32 38 35 46 58 65 88 92 95 95 94 94 95 94 96 97 97 95 98 96 96 96 96 96 96 97 97 96 95 96 95 94 91 97 100 97 94
24 18 19 40 35 32 30 44 38 38 34 55 67 77 90 88 88 81 91 94 97 95 97 94 94 94 94 97 95 97 97 96 97 97 94 98 95 98 97 97 100 90 78
26 24 20 35 32 21 21 24 22 22 28 36 68 70 91 96 98 97 96 97 94 90 84 95 96 92 98 96 90 97 96 96 98 96 98 97 97 97 97 98 94 88 76
69 40 43 29 29 36 34 21 19 19 18 23 60 70 86 97 97 96 95 92 96 97 98 95 94 96 96 100 97 96 97 96 95 95 97 98 98 97 96 93 89 83 86
76 58 55 47 41 42 43 31 24 23 22 25 47 65 88 90 90 90 93 97 96 96 90 93 93 98 95 97 98 97 97 95 98 98 97 94 95 91 86 90 88 82 73
64 68 68 66 61 55 29 22 19 20 20 35 69 90 98 97 97 97 97 96 96 94 85 95 96 97 97 96 96 96 94 94 94 96 95 86 82 88 92 91 87 83 76
76 68 66 56 30 28 22 18 20 28 53 70 100 95 99 92 96 96 97 96 95 96 97 97 96 96 96 95 95 95 96 96 92 89 90 92 92 89 93 92 80 74 71
82 75 56 33 22 19 17 17 22 36 39 70 91 98 97 99 96 99 99 98 96 98 97 88 92 96 95 95 93 93 94 92 93 93 93 94 92 81 75 77 76 78 74
27 30 27 19 23 21 17 22 26 31 37 38 52 70 95 94 93 90 92 90 90 80 68 60 63 80 56 59 71 78 70 67 54 60 64 59 57 60 61 64 70 75 70
55 39 24 21 25 24 32 33 38 39 43 44 47 54 77 88 56 71 57 48 49 47 65 54 36 30 22 20 17 18 21 26 29 31 33 36 41 45 50 64 70 76 78
28 25 22 21 24 27 26 30 35 35 34 34 37 32 26 20 16 14 14 14 14 14 14 13 14 14 16 17 15 14 11 11 10 11 22 38 40 41 43 59 64 78 75
26 17 13 12 11 12 13 13 14 14 13 13 13 15 17 19 19 19 18 17 16 15 15 16 17 21 22 20 20 17 15 14 13 13 10 16 33 37 39 59 75 88 98
24 20 18 16 17 18 18 17 18 18 21 26 30 31 30 28 26 24 23 21 17 15 14 15 17 22 22 21 23 30 28 24 20 19 16 12 35 42 45 63 76 94 97
55 50 45 43 45 47 50 51 48 43 32 24 18 15 14 14 13 12 12 12 12 15 19 19 20 34 35 32 31 34 33 27 21 28 25 24 57 49 52 76 59 79 77
89 79 73 68 64 58 46 34 26 20 18 20 20 19 21 24 23 22 23 22 22 22 30 36 40 42 39 37 38 44 43 34 27 40 36 59 63 50 69 55 56 55 61
95 75 61 54 48 42 37 33 29 28 27 25 20 22 35 37 30 26 26 28 28 35 46 54 47 46 50 49 64 64 48 46 39 34 66 60 51 61 74 50 49 56 86
95 77 65 57 48 42 40 37 33 29 27 24 23 37 40 34 28 31 35 35 41 51 63 61 58 59 59 62 64 64 59 66 63 67 51 39 43 70 61 44 53 58 65
80 77 68 60 53 49 44 31 27 26 22 26 45 50 39 38 46 48 49 51 58 62 64 62 62 62 77 78 76 68 61 46 52 40 37 36 46 68 73 93 67 82 94
65 56 51 48 42 37 33 34 38 49 55 57 52 45 51 51 52 59 61 63 68 69 64 64 65 75 78 84 84 74 60 60 51 48 48 53 58 70 73 78 97 100 99
64 40 34 30 28 35 49 53 56 51 48 51 52 50 42 41 51 62 67 69 57 72 84 74 67 70 72 85 79 82 51 44 43 45 52 59 72 96 98 99 99 100 100
73 71 64 59 63 73 68 60 53 51 54 59 58 54 42 49 63 62 61 66 72 80 83 95 79 69 67 68 92 91 93 76 80 72 91 94 100 97 97 99 100 100 99
85 80 79 79 74 63 58 49 45 51 62 61 68 63 59 70 70 75 74 76 76 76 84 93 91 96 94 93 86 94 100 84 77 96 100 99 100 100 100 100 100 100 98

GFSMW_500_rhum_105.txt.gz
RH
80 97 67 44 51 48 76 97 75 66 96 93 92 96 94 82 82 71 80 71 55 45 50 50 44 30 26 29 35 46 48 51 58 55 50 42 33 27 26 26 24 27 53
69 86 70 51 37 50 70 96 92 65 64 76 66 72 88 96 98 96 97 95 94 85 59 50 55 59 49 38 36 33 42 50 54 65 67 64 47 36 37 33 32 48 56
91 62 47 39 42 42 35 39 73 52 54 57 60 67 81 95 97 94 91 95 97 95 93 94 88 80 65 73 77 64 49 39 46 61 70 75 82 67 62 56 72 67 72
80 55 54 39 28 41 44 48 69 73 54 51 53 52 50 70 47 59 81 94 97 90 95 95 95 97 95 96 95 96 95 86 66 55 71 99 94 96 96 92 89 89 88
77 58 48 36 29 23 22 29 50 54 37 44 31 35 36 43 52 59 76 90 92 93 91 97 95 98 96 97 97 97 98 97 96 97 94 94 94 98 81 99 96 91 87
63 45 30 24 26 22 22 26 46 65 77 60 35 39 51 56 70 69 98 96 96 96 96 96 94 91 95 91 95 97 95 98 97 97 97 97 96 87 83 92 94 90 97
76 64 51 26 20 22 28 30 36 45 37 40 34 42 50 53 76 70 81 91 94 94 94 90 91 93 84 81 91 94 86 94 94 93 96 97 97 97 88 89 99 95 97
80 67 52 50 43 26 28 30 30 33 34 35 34 24 22 21 33 63 69 71 95 95 91 97 95 97 95 96 97 92 91 91 95 87 97 97 96 97 97 97 98 99 93
72 67 59 28 24 30 23 35 32 30 26 27 22 22 19 20 21 32 62 65 91 95 96 95 96 95 96 96 97 98 93 96 94 98 96 96 97 97 97 96 95 93 90
61 71 68 53 36 25 25 36 41 34 38 27 23 22 23 23 22 19 38 64 81 83 94 86 83 88 94 92 96 96 92 90 99 98 96 95 96 96 95 93 95 94 92
69 63 62 64 36 34 30 33 35 41 42 41 38 32 29 26 25 26 30 53 88 92 95 96 97 85 95 97 99 97 97 98 96 98 97 96 94 95 94 93 85 79 81
63 70 69 69 67 57 49 52 50 49 48 35 30 26 22 22 22 60 65 96 100 96 97 96 94 95 94 82 95 95 95 95 96 96 95 94 91 91 93 85 87 82 82
63 69 69 67 74 66 50 50 47 42 28 14 16 16 21 39 54 90 97 100 93 97 96 94 92 93 93 95 79 68 58 50 48 60 62 71 38 41 43 44 48 50 56
81 76 75 76 74 72 44 29 26 22 18 15 19 29 35 56 64 66 87 97 94 91 77 59 50 59 58 46 35 36 34 22 18 15 13 12 12 14 18 29 35 39 43
95 87 85 68 58 45 28 28 31 31 26 30 34 40 42 46 50 58 54 47 68 73 42 20 21 18 15 13 14 13 12 13 15 14 12 11 12 13 11 10 13 34 41
91 70 44 40 43 38 36 37 37 34 35 37 35 35 35 27 18 15 16 16 17 17 17 17 17 18 17 17 18 17 16 15 14 14 12 13 12 14 16 15 12 23 44
99 94 95 89 89 70 43 37 32 29 26 21 16 13 13 14 16 20 25 27 27 25 24 23 21 17 13 12 10 10 14 22 26 24 24 30 30 26 22 21 20 18 55
62 40 43 41 32 31 30 21 14 13 13 14 17 25 30 30 28 23 17 14 13 13 12 12 12 11 11 11 12 16 23 27 31 33 33 33 39 35 27 27 32 29 62
48 44 37 34 29 27 30 32 39 46 50 49 42 31 20 17 18 18 22 23 24 25 28 28 29 32 33 32 32 35 41 34 35 32 31 41 48 37 28 40 37 68 58
90 89 83 74 66 62 60 60 60 48 33 26 24 26 26 24 22 23 31 41 37 30 26 25 27 27 29 40 50 49 43 42 42 40 50 54 44 32 31 54 63 58 66
100 100 97 89 74 66 58 48 43 40 37 34 31 28 26 26 24 26 36 41 35 34 36 39 40 41 47 52 56 52 48 46 52 59 62 58 64 67 68 49 43 52 67
100 100 99 96 90 68 54 47 43 40 40 32 25 20 20 22 26 43 48 43 46 49 56 53 56 58 59 58 59 58 59 59 62 66 70 63 56 61 46 44 52 66 82
100 100 100 100 94 79 67 59 53 48 42 33 34 35 39 46 52 50 46 45 47 51 60 59 56 58 69 68 61 58 63 73 78 76 67 56 56 52 57 60 67 70 77
95 97 96 86 65 51 46 39 36 38 39 42 45 48 50 49 46 51 49 44 43 60 57 60 64 67 68 74 71 69 67 81 79 77 92 64 51 59 74 76 89 91 96
83 80 82 82 61 54 51 46 49 58 57 58 57 53 57 60 56 55 54 48 64 67 62 67 70 65 68 79 86 84 73 74 74 92 92 96 97 76 78 95 100 100 100
86 84 83 89 78 74 75 77 76 68 60 53 48 50 62 63 65 68 61 77 74 74 70 66 64 70 72 81 80 92 95 95 96 91 99 99 98 100 100 100 100 100 100

GFSMW_500_rhum_108.txt.gz
RH
83 81 70 85 87 96 96 96 98 98 96 93 95 90 74 74 69 57 56 56 61 59 50 35 33 40 44 39 30 28 28 30 34 36 35 44 48 56 58 53 43 36 37
95 87 77 76 99 86 96 93 96 87 91 70 94 96 96 95 90 83 66 68 80 87 93 79 80 66 46 44 44 53 54 49 41 38 33 42 43 45 61 61 71 58 61
77 98 90 87 98 90 78 84 81 88 90 96 86 87 97 95 96 96 95 89 95 97 92 96 97 90 88 92 94 92 82 67 73 87 70 72 60 46 54 65 90 92 94
83 84 88 96 97 85 79 63 70 74 94 96 96 91 96 94 76 88 94 96 96 97 95 96 95 96 94 96 96 98 96 94 95 93 96 96 97 97 96 91 90 82 91
73 82 99 97 100 95 73 59 45 57 71 95 96 94 80 97 89 86 82 91 60 83 71 79 94 97 96 95 96 96 97 96 96 96 97 98 98 94 98 95 96 94 71
93 66 89 96 97 94 80 59 49 51 60 44 73 94 88 94 72 67 57 58 39 51 86 96 97 95 98 96 95 94 96 97 96 97 96 95 97 99 96 94 98 93 84
65 69 91 84 82 69 66 58 48 52 54 56 63 58 60 58 56 69 80 96 95 96 95 96 95 96 96 98 93 94 92 95 98 94 95 94 93 91 96 95 98 96 94
89 66 71 79 73 73 72 57 54 60 49 37 53 64 59 60 44 44 49 59 36 27 28 44 62 62 71 84 88 97 97 98 96 85 76 75 79 83 97 96 96 94 93
83 73 66 61 68 43 36 43 46 38 34 35 45 56 42 33 32 31 26 23 21 23 24 31 42 50 70 74 81 92 94 98 97 98 100 90 99 89 99 98 98 97 98
76 64 59 61 50 52 60 40 39 24 30 45 42 35 36 34 34 29 25 26 24 22 20 19 29 54 70 69 81 93 89 89 93 94 96 94 99 100 98 98 97 97 96
48 61 66 64 64 69 52 48 41 38 45 50 40 34 26 26 24 25 24 25 28 28 22 17 15 36 57 66 74 87 90 88 92 97 98 100 99 99 98 97 98 95 90
40 42 44 60 68 61 48 27 49 50 49 33 34 39 31 38 45 37 35 34 26 24 22 20 16 31 80 87 98 95 96 96 97 97 97 96 95 98 96 96 96 94 81
28 32 38 44 57 66 64 54 28 32 35 30 37 40 44 41 40 40 39 34 23 18 19 57 89 91 100 98 96 92 94 92 80 83 66 57 48 48 30 22 24 24 30
58 37 40 42 54 58 69 71 57 37 38 36 37 40 45 44 18 16 15 14 14 23 60 92 95 84 94 86 84 78 66 61 51 37 26 21 17 14 14 13 13 12 12
72 79 65 57 69 82 80 75 75 68 61 58 53 47 39 20 17 15 16 20 30 60 94 100 97 91 85 86 73 67 31 17 14 14 13 14 16 16 15 13 13 12 13
71 74 81 83 90 85 82 76 72 65 39 35 31 28 26 20 21 25 34 35 34 26 18 19 34 45 37 23 18 16 17 17 18 15 13 15 14 14 16 17 17 20 24
100 97 95 85 83 86 82 78 73 57 33 32 32 30 30 29 32 33 26 16 13 14 17 20 22 22 22 22 20 18 17 14 11 10 10 11 14 17 24 28 32 35 39
92 99 99 95 90 86 74 70 61 56 42 38 36 35 34 30 20 13 13 15 21 24 25 21 16 14 13 13 12 12 12 12 12 13 20 25 25 31 30 31 33 41 49
95 99 98 99 96 87 77 76 85 89 60 42 36 24 16 13 14 21 29 28 20 17 16 15 15 16 18 21 22 21 21 23 24 24 29 38 37 35 36 36 44 53 47
100 100 85 65 68 68 54 42 39 32 24 20 18 20 26 37 41 37 24 18 18 16 14 14 25 32 27 23 24 24 24 25 31 38 44 44 41 30 41 60 63 58 44
70 86 88 80 68 54 46 42 42 41 46 52 55 54 50 38 24 22 23 23 21 20 17 31 38 36 34 32 35 39 42 43 48 50 50 49 53 50 57 66 64 62 68
97 89 86 86 86 87 81 77 73 70 66 59 48 37 34 33 29 27 24 21 20 26 38 46 45 43 44 50 53 52 57 62 62 56 53 57 62 66 73 68 63 60 70
100 100 100 100 100 100 100 92 83 81 68 48 42 39 36 34 29 26 26 30 41 45 48 46 44 43 52 55 54 57 65 62 68 66 65 64 70 79 73 61 58 58 53
96 99 100 100 100 100 100 93 88 77 67 62 51 45 42 38 34 32 32 38 42 39 42 44 42 44 58 52 50 56 59 62 70 74 66 69 77 87 75 79 82 66 82
84 76 85 96 96 98 97 91 83 80 72 52 43 40 38 38 38 45 46 40 37 41 48 54 49 53 60 58 58 56 60 71 76 76 78 76 72 92 93 91 97 96 85
84 86 81 81 88 88 88 79 60 62 55 50 53 58 57 56 53 48 44 47 53 58 66 61 63 65 67 64 52 59 77 82 84 85 90 93 95 98 96 100 92 100 100

GFSMW_500_rhum_111.txt.gz
RH
79 76 81 94 95 97 96 79 94 91 74 68 30 28 28 34 38 42 52 52 53 53 49 41 35 37 36 30 26 25 23 23 23 25 26 26 30 38 40 42 49 55 59
88 74 73 78 94 94 95 96 96 97 94 65 49 50 61 62 60 60 65 75 72 72 68 70 75 89 80 78 83 78 56 59 70 70 64 66 70 68 45 46 62 59 56
90 79 80 73 88 96 95 96 96 95 94 91 90 88 80 88 92 82 86 82 76 65 75 85 89 93 95 93 96 96 95 95 95 94 93 96 92 92 90 94 94 91 98
76 65 65 67 65 76 97 97 96 96 87 94 76 94 96 96 98 97 96 96 96 95 96 96 94 97 97 96 96 92 95 93 94 94 95 90 96 97 90 98 94 86 95
84 82 72 80 82 70 94 98 98 96 88 79 94 93 97 92 96 97 96 96 96 96 96 95 97 97 91 95 96 96 97 95 96 93 96 93 98 89 79 92 88 84 91
87 85 93 86 82 82 77 96 95 96 87 79 93 96 94 95 95 96 93 96 95 82 89 94 94 86 96 97 97 97 96 97 95 99 96 97 95 90 90 88 95 91 87
98 91 80 81 93 93 99 96 96 88 92 96 98 96 93 96 97 97 95 97 96 96 96 96 94 94 81 83 94 94 90 94 95 85 90 96 96 96 95 94 94 96 97
86 82 95 90 96 96 93 94 85 82 82 87 96 96 96 93 95 93 95 93 86 84 81 58 66 57 30 22 28 42 47 56 57 83 85 97 96 95 89 95 86 94 98
99 96 91 86 85 94 93 98 98 97 96 87 91 90 86 95 93 67 61 68 60 41 33 28 25 23 24 19 16 16 31 52 60 75 75 89 96 97 98 98 98 96 94
95 98 92 85 73 91 94 90 94 94 93 80 82 78 75 65 53 73 64 52 36 34 32 27 26 26 24 21 20 15 14 20 48 68 65 82 96 96 96 97 97 97 98
99 100 100 98 98 96 89 88 87 81 78 69 75 68 65 50 37 54 50 34 35 37 30 25 26 29 31 26 20 15 14 12 26 51 86 83 87 96 97 96 98 97 97
98 99 98 85 92 87 78 77 74 74 66 59 63 58 40 42 48 41 37 32 34 31 26 33 34 32 24 19 16 16 13 14 51 98 91 94 93 97 93 96 96 96 95
88 82 68 67 68 78 72 61 64 64 58 54 51 34 38 52 45 32 36 40 36 38 43 38 34 32 22 15 16 26 61 96 96 96 87 94 98 92 87 48 35 30 30
41 52 53 43 49 69 79 74 72 82 53 50 67 67 59 58 54 46 46 49 46 44 36 26 20 18 18 19 45 93 97 90 78 66 68 69 74 66 36 18 15 15 16
34 20 31 44 35 40 56 65 67 74 79 66 42 31 32 34 32 34 37 38 39 38 17 15 16 14 16 38 66 71 79 92 85 74 67 48 24 18 15 15 16 17 18
60 52 21 18 32 32 43 49 45 55 63 63 56 47 44 38 40 42 48 45 36 17 16 16 18 22 22 36 53 53 64 57 38 20 16 17 18 16 16 15 14 17 14
72 65 59 38 37 32 49 35 34 43 52 57 61 63 59 53 51 45 33 26 18 18 17 15 13 13 15 16 18 19 19 19 16 13 12 14 15 14 12 12 12 14 19
80 72 68 62 61 70 80 89 72 70 77 76 74 69 55 41 28 25 23 21 22 17 12 12 13 17 20 22 18 13 10 10 11 13 16 18 19 19 21 23 25 30 36
99 86 90 89 87 89 93 91 86 82 82 78 73 67 43 31 31 30 27 24 16 12 12 18 24 24 21 16 14 10 9 11 18 19 16 16 17 17 20 27 36 40 38
85 98 97 100 100 100 98 92 90 81 74 72 65 55 43 39 33 27 19 12 12 15 24 30 27 19 17 14 12 10 14 19 24 19 21 28 29 30 36 43 47 44 38
77 85 98 100 100 100 98 85 81 81 82 81 76 76 68 44 27 14 13 15 29 40 37 26 20 20 17 17 15 16 24 27 25 32 32 37 44 44 45 50 50 53 54
86 78 87 87 88 84 77 74 74 66 56 42 35 29 23 19 20 29 42 50 44 33 24 24 23 19 18 16 22 31 32 30 37 44 40 41 46 51 52 55 58 61 64
94 100 100 99 93 92 95 96 83 63 55 44 47 50 56 58 60 56 42 36 32 30 27 23 19 18 22 29 32 33 33 45 50 45 45 51 58 56 64 62 67 70 74
100 100 100 100 100 100 100 100 97 86 86 84 80 75 71 64 53 46 42 38 35 32 31 30 28 28 28 28 28 37 44 57 54 53 52 51 59 68 67 70 66 70 74
99 100 100 100 100 100 100 100 100 100 100 100 94 90 87 80 66 61 52 45 42 37 34 31 33 35 35 30 42 47 55 59 57 52 53 59 66 77 82 92 94 90 92
95 100 100 100 95 91 94 94 100 100 100 100 100 92 88 85 74 52 38 35 35 39 44 44 40 40 46 53 59 60 61 64 59 54 55 65 73 77 84 88 94 92 90

GFSMW_500_rhum_114.txt.gz
RH
99 95 92 87 93 88 66 81 94 89 76 81 69 56 36 27 27 25 22 21 17 17 18 18 19 19 17 17 24 29 28 28 40 48 46 48 54 54 51 52 53 57 53
51 60 56 67 81 97 99 76 91 94 100 86 78 70 37 27 28 31 27 24 22 21 21 30 39 40 33 55 76 74 88 88 77 67 64 79 93 94 91 82 81 86 88
63 56 59 69 90 91 96 97 90 88 96 96 82 71 56 26 25 28 28 33 45 49 51 54 57 61 70 90 94 96 89 83 85 91 88 90 92 96 97 94 95 98 94
60 59 68 63 82 93 94 96 96 92 92 84 70 74 81 44 32 45 56 61 61 67 68 69 83 95 90 87 96 87 89 97 97 95 93 94 89 90 90 90 88 86 82
66 71 70 55 70 95 96 97 93 96 100 88 93 89 95 83 77 76 74 95 97 98 97 95 93 94 95 96 98 96 98 97 93 95 92 93 89 98 98 96 88 82 82
75 74 72 76 70 68 71 93 91 96 100 97 96 91 91 97 96 97 96 98 96 96 96 97 97 96 97 97 96 94 89 85 95 95 84 85 93 92 96 96 100 93 93
77 78 75 75 82 62 67 70 88 98 97 96 96 95 96 96 96 96 96 96 97 96 97 97 95 96 96 92 86 61 58 43 42 46 50 48 56 55 70 95 96 96 96
90 90 91 76 69 62 56 52 81 94 94 96 97 96 96 97 96 96 97 95 97 96 97 96 96 94 91 83 57 32 24 21 20 17 15 28 40 45 74 98 85 95 93
98 93 86 71 78 80 75 85 88 96 98 97 96 97 95 96 97 94 96 96 96 96 97 94 94 60 51 42 29 30 26 23 18 15 15 14 14 39 59 70 93 93 97
86 86 93 90 88 95 86 88 96 93 95 94 96 96 97 95 98 94 95 96 96 92 80 66 40 34 35 30 30 32 30 29 24 18 15 12 11 10 29 68 91 96 94
93 98 98 95 98 86 84 80 98 98 96 94 93 96 98 95 94 95 94 92 86 63 58 46 34 36 37 32 32 32 35 30 23 17 15 14 16 35 72 82 80 77 89
99 92 96 93 95 99 100 95 86 89 96 88 86 95 98 96 96 97 94 92 72 36 45 36 35 36 37 31 34 40 36 28 20 16 14 19 29 78 98 92 99 98 100
85 99 98 100 100 99 93 82 73 73 72 79 80 82 82 79 84 82 70 57 48 39 38 38 39 53 48 44 47 35 26 23 22 20 17 22 56 81 80 71 80 76 76
98 96 95 98 98 90 96 93 90 89 82 75 72 79 73 64 65 48 36 47 48 43 38 48 51 45 44 40 30 19 22 19 14 15 23 35 70 85 78 66 58 59 36
83 98 97 97 98 91 87 91 94 85 72 66 73 76 61 67 61 59 63 62 59 51 49 38 39 43 40 31 16 20 14 12 15 32 48 62 80 70 43 31 24 18 17
42 42 80 86 88 79 72 64 66 72 68 64 65 66 70 72 66 55 44 37 34 34 35 39 44 46 32 16 16 15 14 17 16 16 16 15 13 10 11 10 10 10 12
18 18 29 41 44 65 50 40 37 44 59 63 63 62 58 64 65 57 48 47 51 47 44 45 45 34 21 15 12 13 14 16 16 15 11 9 10 10 11 13 14 16 16
41 44 29 17 28 23 23 28 38 34 32 35 41 45 54 60 62 62 62 60 58 53 49 41 27 20 16 12 12 16 18 18 17 13 10 9 9 10 13 18 17 13 14
40 40 48 33 32 20 20 21 22 28 28 35 48 68 78 71 72 74 66 48 37 31 28 31 29 23 11 12 17 22 22 19 15 12 10 10 10 17 22 18 21 25 28
72 68 74 75 59 46 47 43 55 54 64 74 71 81 89 82 79 76 67 52 32 30 24 27 21 12 13 17 24 26 22 19 16 11 14 13 19 26 26 30 31 30 34
73 65 72 87 87 80 71 64 63 64 71 72 76 81 77 72 70 71 72 60 42 34 29 23 14 13 22 30 28 24 21 19 17 14 13 21 30 27 29 33 31 33 38
71 82 84 82 80 86 88 90 93 93 88 85 85 84 79 77 73 71 63 56 48 36 20 14 20 37 40 35 26 23 23 19 14 14 20 28 32 31 27 32 34 36 44
87 97 77 74 84 84 85 90 94 100 100 95 89 88 90 86 78 71 60 38 22 22 30 44 47 43 36 29 27 25 22 22 18 20 26 33 34 33 36 37 36 38 52
74 77 88 95 90 91 94 93 91 92 97 85 75 61 53 49 46 41 44 48 56 57 55 49 44 39 36 32 30 30 26 22 22 27 40 39 37 41 47 40 43 49 58
71 83 99 94 96 97 100 98 100 98 94 96 95 86 79 75 69 69 67 70 76 76 65 52 48 46 43 40 34 28 27 27 32 48 54 50 49 53 53 47 47 53 60
63 71 79 100 100 100 100 100 100 100 100 100 98 94 98 98 98 100 100 98 92 87 82 83 72 44 38 35 31 36 37 41 44 55 56 56 57 59 57 56 60 55 56

GFSMW_500_rhum_117.txt.gz
RH
77 54 75 94 93 95 98 97 74 82 93 73 76 90 82 63 48 44 38 32 30 27 24 22 19 17 16 15 14 15 14 17 21 28 28 38 44 44 47 55 70 76 74
65 54 64 93 96 91 94 86 96 90 86 78 74 94 80 65 50 42 38 34 31 28 25 22 18 16 15 15 17 16 21 37 54 79 80 82 79 81 82 84 82 82 80
70 58 46 60 96 96 98 96 83 88 80 78 85 85 81 62 52 40 32 28 23 19 18 16 16 15 18 28 33 43 88 87 91 88 82 83 90 94 89 87 82 83 87
63 57 37 53 89 98 96 96 97 87 94 80 83 75 85 70 60 44 34 29 24 23 25 27 29 34 41 52 61 87 92 96 95 95 93 94 87 90 96 92 81 87 89
81 68 57 58 66 88 95 96 82 96 97 100 74 83 86 93 76 53 31 33 35 27 25 34 48 57 74 90 94 94 96 96 97 95 75 88 80 81 78 91 80 56 74
60 46 54 93 96 97 93 90 99 98 98 99 86 81 96 97 96 71 39 29 29 34 49 56 82 93 93 96 96 94 97 97 48 41 40 39 42 39 34 36 49 26 63
88 58 41 59 73 74 77 81 92 94 85 95 96 94 96 96 96 96 89 60 56 90 89 90 94 96 96 97 93 96 95 84 38 30 24 18 18 14 15 13 14 15 35
88 76 74 79 77 74 80 91 94 94 96 96 95 91 96 95 96 97 96 97 96 98 97 97 96 96 97 97 97 93 80 65 51 28 25 22 19 15 13 12 10 11 11
86 82 73 85 75 63 64 83 91 96 95 93 95 99 97 96 96 96 96 96 97 96 96 97 96 97 97 95 93 88 67 31 30 30 30 29 28 19 15 12 12 11 13
98 83 85 84 82 80 80 78 79 91 93 97 97 96 95 95 96 95 96 96 96 97 97 97 96 96 94 87 73 36 34 37 35 35 38 36 29 20 15 14 13 13 13
98 88 91 97 89 97 96 94 92 87 92 96 98 96 95 92 96 96 96 96 97 96 97 96 94 92 85 53 38 35 39 39 36 42 43 37 29 20 17 17 15 13 19
99 97 89 87 97 100 87 88 96 96 96 97 98 97 96 98 96 97 98 95 94 95 95 97 95 92 85 52 39 36 49 50 45 47 35 26 23 21 18 16 16 26 65
98 98 91 92 96 98 95 89 86 89 92 96 96 94 93 93 91 81 81 85 86 92 92 82 80 82 60 39 37 47 47 44 42 30 22 26 21 19 15 16 18 32 51
99 98 92 96 95 95 97 95 87 92 97 95 95 94 90 96 89 77 70 64 62 54 55 59 50 46 41 39 46 45 43 39 33 19 24 24 21 17 15 17 32 34 26
78 95 97 100 100 98 98 97 94 96 97 96 93 94 91 91 72 81 73 66 57 50 50 52 52 53 54 49 38 38 42 38 20 17 21 15 15 17 14 12 11 10 10
98 87 79 82 92 95 98 97 98 97 97 100 100 98 88 77 71 77 68 65 64 59 51 46 40 38 36 38 38 43 46 33 16 16 13 14 15 14 11 10 10 11 12
24 49 79 80 96 100 97 100 100 96 93 86 76 75 76 72 68 67 66 66 63 57 51 48 50 48 50 48 46 42 34 21 15 12 14 16 16 14 12 10 10 14 12
11 11 15 29 49 58 74 89 87 76 60 43 45 53 61 67 68 61 52 59 54 59 65 63 61 57 50 45 38 30 23 18 12 14 17 19 17 15 13 12 13 11 7
16 14 12 18 23 24 25 31 40 40 52 51 46 40 37 39 43 40 45 47 58 68 69 64 58 50 42 35 28 24 24 13 12 19 23 22 18 18 16 15 11 8 15
38 37 37 30 20 16 16 19 20 22 24 22 21 30 41 42 54 56 56 67 69 72 72 70 60 46 34 33 32 29 17 12 16 27 27 21 22 20 14 11 10 14 17
54 52 46 59 53 41 31 18 19 22 30 34 34 49 61 66 90 92 81 78 71 75 76 76 69 48 40 36 29 18 14 22 36 31 25 24 24 18 16 13 12 15 16
37 44 45 44 43 56 61 57 46 33 36 42 48 56 70 83 88 83 76 72 68 65 64 63 58 50 42 26 23 30 39 40 37 29 28 27 23 21 18 14 14 17 21
46 49 46 51 52 53 61 65 69 71 71 69 72 80 92 98 96 89 82 77 77 77 80 77 71 53 32 29 44 47 43 39 34 32 31 29 26 23 17 15 20 22 30
31 35 40 46 52 63 68 69 74 77 79 83 86 92 89 85 89 89 89 89 89 85 73 56 44 36 45 55 53 48 45 43 39 39 36 31 24 18 16 19 22 31 38
28 32 38 41 46 48 50 60 75 88 93 98 95 96 100 96 94 90 83 76 66 62 69 70 70 68 66 62 62 58 54 50 49 37 30 25 22 22 27 29 30 39 45
41 37 35 46 60 64 69 74 62 63 71 81 86 89 94 98 99 97 94 87 86 92 93 93 91 96 97 92 95 87 75 58 39 35 34 34 33 37 40 39 43 46 50

GFSMW_500_rhum_120.txt.gz
RH
69 57 61 63 96 94 98 96 96 96 91 75 85 96 88 100 88 81 71 61 49 36 30 25 22 21 19 18 17 16 17 17 16 15 18 20 21 22 26 34 41 45 51
94 76 62 54 95 94 96 96 94 98 93 99 95 99 100 99 91 77 65 59 52 43 35 29 25 22 20 18 17 16 14 14 16 21 29 35 64 71 72 75 79 80 79
97 91 89 51 84 92 95 96 91 97 89 77 94 94 94 92 94 84 64 54 46 40 36 32 28 25 23 20 17 14 13 17 25 41 63 87 82 77 80 77 81 78 71
95 75 78 50 89 95 97 96 96 97 96 72 86 94 99 93 90 78 70 60 50 42 39 35 31 27 23 18 15 18 24 31 77 88 87 89 81 77 80 73 70 53 64
92 66 66 49 57 94 96 96 96 96 91 85 93 90 94 87 97 96 89 69 53 45 40 34 27 22 18 17 23 33 45 70 93 91 89 87 46 62 59 78 38 42 60
86 54 53 56 77 88 94 95 96 96 96 96 93 89 92 84 84 70 70 65 53 43 36 29 25 22 24 31 43 55 68 95 100 95 58 44 31 25 19 16 24 22 14
73 52 66 61 60 94 97 93 95 96 96 97 96 91 94 85 91 92 83 73 66 47 36 30 28 33 38 47 80 84 93 95 96 94 48 27 26 30 23 18 15 13 11
61 74 71 63 90 87 82 98 96 96 98 95 93 94 82 93 96 97 97 91 86 65 48 39 36 42 68 92 98 96 96 97 93 73 40 32 29 28 28 26 24 16 14
74 56 72 59 62 83 83 96 87 89 94 97 97 96 96 96 97 96 96 96 96 90 62 64 82 82 82 96 97 96 97 96 81 61 70 32 35 35 36 33 27 21 15
96 54 46 52 59 82 96 95 93 85 87 93 95 96 96 96 96 93 96 97 96 97 96 95 94 96 97 96 97 94 96 90 77 89 34 36 35 41 41 36 28 19 15
63 59 65 64 65 65 90 93 96 96 90 92 92 96 97 96 89 95 97 96 97 96 97 97 97 97 96 96 97 96 96 95 57 46 40 44 40 43 42 33 26 20 16
96 95 84 71 71 57 63 85 94 94 95 96 92 92 91 83 68 88 93 93 96 97 97 97 95 97 96 94 91 89 84 79 83 69 50 44 42 39 27 24 23 20 19
97 88 82 86 98 97 97 87 79 76 82 90 96 92 97 97 93 94 97 99 98 94 93 92 93 96 96 96 95 91 87 70 59 49 45 41 38 20 25 26 23 21 18
97 98 98 100 98 92 90 78 70 73 77 94 97 94 94 96 90 85 74 83 84 80 70 61 70 78 71 60 57 53 44 41 44 43 36 38 34 20 26 25 20 16 15
97 95 98 98 95 97 97 98 97 98 87 86 76 75 88 77 63 54 54 63 62 60 54 52 48 48 48 46 46 49 52 50 38 31 35 37 27 22 23 16 16 14 11
96 99 98 100 98 98 100 93 90 93 80 77 83 80 74 63 54 47 48 56 68 65 63 60 56 56 55 54 48 40 36 36 37 38 39 41 28 23 15 15 15 14 12
86 88 95 94 95 99 98 96 100 100 97 82 82 82 79 74 61 54 52 59 58 58 59 57 47 42 30 31 31 33 39 37 36 41 40 33 25 16 13 15 17 15 14
20 41 54 48 65 73 79 89 83 83 84 89 86 83 86 78 66 61 58 59 62 59 51 37 42 35 35 34 33 38 43 44 44 40 32 24 18 13 14 17 20 17 17
10 11 10 13 22 24 39 45 51 63 67 82 82 79 68 56 61 60 54 56 58 54 50 40 40 42 44 49 53 51 48 46 40 32 26 23 15 13 18 23 22 19 19
8 6 8 9 11 14 14 16 20 21 32 35 33 46 46 51 53 45 38 37 35 35 38 40 44 53 59 66 64 54 48 43 36 34 31 22 14 16 26 26 23 23 21
14 9 7 7 15 18 19 18 17 15 17 17 19 21 26 28 26 25 27 33 35 38 47 62 62 65 67 70 65 62 49 44 42 34 26 17 24 30 32 26 27 26 24
31 23 20 20 18 33 48 42 36 28 17 16 22 23 25 25 33 45 46 44 53 67 75 73 72 70 73 70 67 63 58 51 41 26 21 32 38 36 32 30 31 28 24
16 20 24 24 22 24 29 26 28 33 51 58 61 64 57 57 68 78 81 81 81 86 83 79 74 69 66 66 67 65 60 46 30 33 39 41 40 38 35 37 32 27 19
14 15 19 23 27 30 33 35 37 35 52 61 72 80 90 99 100 100 100 100 98 96 92 86 84 81 86 93 86 75 57 49 52 53 50 47 45 44 44 37 30 24 21
10 13 14 16 20 28 34 38 44 49 51 54 60 73 88 100 100 100 100 100 100 100 100 100 100 99 94 81 66 59 64 72 67 62 60 64 70 71 50 34 32 30 29
6 7 10 13 14 22 31 33 34 33 42 58 74 83 87 83 93 100 99 99 100 100 100 100 100 99 95 87 86 81 92 100 90 95 96 83 69 52 42 40 34 37 40

GFSMW_500_rhum_123.txt.gz
RH
42 69 66 73 75 54 94 88 96 89 98 92 95 92 82 82 69 60 66 67 67 62 56 48 42 35 32 29 26 24 24 23 22 21 20 18 16 15 14 14 19 38 49
62 81 67 64 64 43 93 96 96 96 97 100 100 96 90 86 73 62 68 67 67 61 54 47 42 38 33 31 28 26 23 21 18 16 17 15 15 15 23 51 62 67 65
80 84 73 61 54 45 94 95 96 97 96 96 96 96 90 87 85 83 79 80 73 62 49 40 34 30 27 23 20 20 17 18 16 16 18 17 19 29 68 74 74 74 69
54 84 89 64 53 63 95 93 97 93 98 96 96 95 72 88 88 87 86 85 80 73 58 47 36 34 30 26 24 22 21 19 18 19 23 33 65 73 84 84 78 68 64
58 83 83 69 59 92 95 94 97 98 96 80 82 86 79 95 91 85 85 94 83 67 53 50 43 42 36 32 29 26 24 20 22 30 39 89 81 89 75 79 70 57 40
67 88 89 72 82 88 94 96 96 97 96 87 96 98 94 91 92 94 91 91 78 74 74 56 48 44 40 36 32 28 23 23 31 41 86 80 96 97 67 50 35 18 15
79 79 84 72 80 94 93 95 96 97 98 96 96 98 97 97 96 95 87 87 89 84 74 72 63 52 44 37 31 26 22 31 49 56 87 96 99 85 54 42 26 20 21
71 65 82 75 93 88 90 96 100 97 96 96 96 94 96 94 97 96 96 97 90 84 88 80 63 52 44 35 28 22 27 43 71 95 96 96 68 38 30 28 28 28 29
77 73 69 77 91 95 94 96 96 93 95 93 97 96 94 96 95 94 96 98 92 94 89 73 65 57 48 37 30 33 65 80 95 96 96 82 61 49 40 34 36 37 36
56 62 56 64 93 91 96 97 93 96 93 96 97 96 96 95 96 97 96 95 95 94 94 84 80 73 61 46 67 61 82 94 96 96 97 95 96 49 40 37 38 41 39
64 62 44 59 91 95 97 91 94 95 95 93 93 94 96 97 97 97 96 96 96 97 97 97 98 95 96 94 96 91 94 95 97 96 94 94 76 60 52 46 44 42 36
90 77 54 51 79 87 96 96 99 97 94 94 90 92 95 93 94 97 97 94 97 97 97 96 96 94 96 95 96 97 96 94 95 95 93 90 85 72 54 43 38 29 23
85 80 61 67 87 93 96 96 86 90 82 82 80 88 71 83 92 93 92 98 96 97 95 96 97 97 97 96 97 97 96 95 97 91 74 67 68 56 45 36 30 24 25
100 99 84 75 85 88 90 87 80 78 79 83 77 80 82 96 97 97 96 91 98 98 95 96 97 96 96 94 90 86 78 67 64 60 68 65 51 37 20 20 25 26 26
98 98 100 98 99 95 95 96 93 90 90 87 81 86 84 92 90 85 89 93 85 91 92 90 80 64 71 63 56 52 46 41 40 41 40 42 34 23 26 28 31 27 28
98 98 97 98 99 94 98 95 97 96 89 91 92 87 78 82 77 79 70 70 72 58 88 58 50 45 44 48 50 47 46 46 50 48 33 22 18 24 26 29 35 32 30
96 96 96 97 96 90 89 87 84 74 69 69 77 78 65 62 64 76 61 56 44 37 49 55 54 50 50 50 51 42 30 21 20 19 22 16 17 24 30 32 34 32 22
89 91 89 90 80 74 74 72 68 68 67 74 78 71 63 63 61 64 68 63 53 56 42 38 38 42 46 43 35 27 22 20 19 19 19 19 19 28 32 35 30 24 16
17 17 21 26 29 37 45 41 44 55 58 60 60 58 56 60 60 59 59 61 55 52 46 45 46 48 37 32 26 21 20 16 16 16 27 28 28 35 35 31 28 22 14
9 10 10 10 10 11 12 15 18 22 25 22 39 40 49 55 61 68 63 64 62 57 52 49 52 52 49 35 26 24 21 23 22 22 24 26 29 37 38 36 30 21 16
9 9 8 7 7 7 8 8 8 8 10 12 14 22 31 35 38 40 44 48 50 47 42 35 33 32 29 26 25 29 30 32 40 50 48 52 55 46 40 35 26 19 30
24 19 15 14 15 21 16 12 10 12 15 19 20 21 21 22 26 31 38 43 40 37 37 36 32 33 39 47 58 67 69 70 65 66 65 63 58 51 48 30 23 35 37
8 12 20 21 23 21 21 24 29 34 41 41 37 36 37 45 47 40 35 36 44 52 54 61 70 71 83 85 84 84 81 79 78 73 66 61 56 50 36 29 40 42 40
10 13 9 5 8 12 12 15 25 29 33 38 46 49 48 49 63 73 78 83 82 67 79 98 98 99 97 96 93 87 82 74 71 70 73 78 76 57 43 47 48 47 47
8 8 8 8 7 7 7 7 10 13 22 26 31 40 52 64 73 77 81 88 91 97 100 100 100 97 94 96 93 89 88 84 86 95 98 86 66 65 63 58 59 65 88
13 13 12 11 11 9 9 8 7 7 7 9 25 37 46 58 71 89 100 100 100 100 100 100 100 99 99 99 100 100 100 99 92 90 92 86 89 95 90 87 97 91 70